[[[{"header":{"parameterUnit":"kt","parameterCategory":2,"dx":1,"dy":1,"la1":29.587661999999998,"la2":31.0,"lo1":-88.76705300000003,"lo2":-86.6583820000003,"nx":115,"ny":88,"refTime":"2022-10-22T12:00:00:Z","depth":0,"parameterNumber":1,"parameterNumberName":"U-component_of_WINDS"},"data":[-11.4879,-11.4879,-11.4879,-11.5635,-11.6973,-11.8253,-11.9533,-12.0812,-12.2034,-12.2728,-12.2728,-12.2728,-12.2728,-12.2728,-12.2728,-12.2615,-12.222,-12.0056,-11.7495,-11.4812,-11.2667,-10.9897,-10.757,-10.6402,-10.5487,-10.4697,-10.4218,-10.3554,-10.2887,-10.2753,-10.2753,-10.2753,-10.2753,-10.2753,-10.2753,-10.2753,-10.2753,-10.2607,-10.2106,-10.1178,-10.0251,-9.9324,-9.8347,-9.7322,-9.6395,-9.6395,-9.6395,-9.6395,-9.6395,-9.6395,-9.6395,-9.6395,-9.6395,-9.6395,-9.6395,-9.6395,-9.6395,-9.6019,-9.4595,-9.1813,-8.8539,-8.5576,-8.1625,-7.7685,-7.5507,-7.4439,-7.4359,-7.4238,-7.4068,-7.3679,-7.3289,-7.2989,-7.2859,-7.2206,-7.1288,-7.0762,-7.0367,-7.0273,-7.0141,-7.0047,-7.0009,-7.0009,-6.9933,-6.9325,-6.8528,-6.7693,-6.6895,-6.606,-6.5149,-6.5035,-6.4959,-6.5187,-6.5453,-6.5263,-6.5225,-6.5377,-6.4959,-6.4314,-6.3516,-6.215,-6.1011,-6.0251,-5.9948,-5.9228,-5.8621,-5.7209,-5.4746,-5.1348,-4.9212,-4.6726,-4.5398,-4.4671,-4.382,-4.3089,-4.2478,-11.4879,-11.4879,-11.4879,-11.5577,-11.6915,-11.8253,-11.9474,-12.0754,-12.2034,-12.2728,-12.2728,-12.2728,-12.2728,-12.2728,-12.2728,-12.2728,-12.1882,-11.9825,-11.7377,-11.4812,-11.2172,-10.9643,-10.7957,-10.6973,-10.6402,-10.5618,-10.4565,-10.3687,-10.2838,-10.2691,-10.2691,-10.2704,-10.2753,-10.2753,-10.2753,-10.2753,-10.2753,-10.2655,-10.2447,-10.1471,-10.0446,-9.9616,-9.8299,-9.7176,-9.6395,-9.6395,-9.6395,-9.6395,-9.6395,-9.6395,-9.6395,-9.6395,-9.6395,-9.6395,-9.6395,-9.6395,-9.6395,-9.6346,-9.5302,-9.2109,-8.876,-8.5418,-8.1757,-7.8283,-7.5291,-7.4278,-7.4278,-7.4238,-7.4238,-7.3939,-7.3379,-7.3119,-7.3119,-7.2728,-7.1813,-7.0894,-7.0762,-7.0631,-7.0273,-7.0047,-7.0009,-7.0009,-6.9705,-6.9211,-6.8452,-6.7579,-6.6744,-6.5908,-6.5301,-6.5187,-6.5263,-6.5529,-6.5946,-6.6098,-6.606,-6.5794,-6.5225,-6.4466,-6.3251,-6.1808,-6.0669,-6.0289,-6.0062,-5.9835,-5.8163,-5.6021,-5.3546,-5.1197,-4.8496,-4.564,-4.4914,-4.455,-4.382,-4.3089,-4.2356,-11.4879,-11.4879,-11.4879,-11.5228,-11.6043,-11.7962,-11.9125,-11.994,-12.1743,-12.2728,-12.2728,-12.2728,-12.2728,-12.2728,-12.2728,-12.2728,-12.222,-11.994,-11.7259,-11.4691,-11.2172,-10.9516,-10.8086,-10.7103,-10.6793,-10.6402,-10.5093,-10.3903,-10.2874,-10.2496,-10.2057,-10.1959,-10.1959,-10.1959,-10.2057,-10.246,-10.2753,-10.2753,-10.2753,-10.1666,-9.9909,-9.947,-9.8543,-9.7078,-9.6395,-9.6395,-9.6395,-9.6395,-9.6395,-9.6395,-9.6395,-9.6395,-9.6395,-9.6395,-9.6395,-9.6395,-9.6298,-9.6151,-9.4269,-9.1244,-8.7155,-8.3817,-8.0255,-7.7257,-7.4529,-7.4238,-7.4238,-7.4238,-7.4238,-7.4238,-7.3679,-7.3549,-7.3549,-7.3379,-7.2467,-7.1944,-7.1813,-7.1288,-7.0631,-7.0273,-7.0009,-6.9895,-6.9287,-6.8756,-6.7845,-6.6971,-6.606,-6.5187,-6.5301,-6.5339,-6.5605,-6.5946,-6.663,-6.6895,-6.6782,-6.6288,-6.5491,-6.42,-6.2947,-6.177,-6.0783,-6.0365,-5.9797,-5.9228,-5.7898,-5.5211,-5.2844,-5.0724,-4.8018,-4.5519,-4.4792,-4.4428,-4.3698,-4.2967,-4.2478,-11.4879,-11.4879,-11.4879,-11.4879,-11.5228,-11.7729,-11.8776,-11.9067,-12.151,-12.2728,-12.2728,-12.2728,-12.2728,-12.2728,-12.2728,-12.2728,-12.1768,-11.9074,-11.6904,-11.4624,-11.1103,-10.842,-10.7311,-10.7103,-10.7103,-10.6663,-10.5749,-10.4433,-10.3706,-10.2439,-10.1588,-10.1325,-10.1374,-10.1764,-10.2008,-10.2496,-10.2753,-10.2753,-10.2607,-10.1764,-10.0007,-9.9421,-9.8689,-9.7127,-9.6395,-9.6395,-9.6395,-9.6395,-9.6395,-9.6395,-9.6395,-9.6395,-9.6395,-9.6395,-9.6395,-9.6346,-9.6053,-9.5068,-9.2846,-8.9061,-8.5405,-8.1922,-7.876,-7.5932,-7.452,-7.4319,-7.4238,-7.4238,-7.4238,-7.4238,-7.4238,-7.4238,-7.4108,-7.3809,-7.3379,-7.3419,-7.3289,-7.2206,-7.1026,-7.0499,-7.0141,-6.9553,-6.887,-6.811,-6.7161,-6.6326,-6.5491,-6.5035,-6.5225,-6.5832,-6.6136,-6.6668,-6.7313,-6.7693,-6.7351,-6.682,-6.5491,-6.42,-6.2719,-6.177,-6.0973,-6.0213,-5.9569,-5.8849,-5.7209,-5.413,-5.1433,-4.9538,-4.7778,-4.5761,-4.4792,-4.455,-4.382,-4.3089,-4.2627,-11.4879,-11.4879,-11.4879,-11.4879,-11.5286,-11.7671,-11.8776,-11.9125,-12.1394,-12.2728,-12.2728,-12.2728,-12.2728,-12.2728,-12.2728,-12.2728,-12.1484,-11.8491,-11.607,-11.4691,-11.0727,-10.8086,-10.7311,-10.7103,-10.7103,-10.6533,-10.588,-10.5174,-10.4744,-10.3063,-10.1507,-10.1276,-10.1178,-10.152,-10.2154,-10.2691,-10.2887,-10.2753,-10.2643,-10.1862,-10.03,-9.9421,-9.8689,-9.6834,-9.6395,-9.6395,-9.6395,-9.6395,-9.6395,-9.6395,-9.6395,-9.6395,-9.6395,-9.6395,-9.6395,-9.6249,-9.5614,-9.4113,-9.1103,-8.7178,-8.358,-8.0126,-7.6667,-7.4958,-7.4359,-7.4238,-7.4238,-7.4238,-7.4238,-7.4238,-7.4238,-7.4238,-7.4238,-7.4068,-7.3809,-7.3679,-7.3549,-7.2859,-7.1774,-7.1211,-7.0609,-6.938,-6.8657,-6.7655,-6.6744,-6.6174,-6.5529,-6.5035,-6.5415,-6.6364,-6.6857,-6.7389,-6.8224,-6.8908,-6.8262,-6.7009,-6.5643,-6.4048,-6.2415,-6.139,-6.0707,-5.9947,-5.9191,-5.7668,-5.6021,-5.2844,-5.0013,-4.7748,-4.5882,-4.4914,-4.4792,-4.455,-4.4091,-4.3333,-4.2749,-11.4879,-11.4879,-11.4879,-11.4879,-11.5345,-11.7671,-11.8776,-11.9125,-12.0696,-12.1976,-12.2669,-12.2728,-12.2728,-12.2728,-12.2728,-12.2615,-12.222,-11.8608,-11.6015,-11.4449,-11.1301,-10.8804,-10.7311,-10.7103,-10.7103,-10.6793,-10.6272,-10.5518,-10.4936,-10.3157,-10.095,-10.0528,-10.0349,-10.0983,-10.1862,-10.2594,-10.2704,-10.2753,-10.2594,-10.152,-10.0495,-9.9616,-9.8299,-9.6883,-9.6444,-9.6395,-9.6395,-9.6395,-9.6395,-9.6395,-9.6395,-9.6395,-9.6395,-9.6395,-9.6395,-9.62,-9.5321,-9.3086,-8.9694,-8.5729,-8.2411,-7.9145,-7.6167,-7.4626,-7.4238,-7.4238,-7.4238,-7.4238,-7.4238,-7.4238,-7.4238,-7.4238,-7.4238,-7.4238,-7.4108,-7.3939,-7.3549,-7.3119,-7.2689,-7.1958,-7.0955,-6.9596,-6.8368,-6.7364,-6.644,-6.5794,-6.5225,-6.4997,-6.5643,-6.6592,-6.7237,-6.7958,-6.8984,-6.9705,-6.8528,-6.7275,-6.5756,-6.4124,-6.2415,-6.1163,-6.0403,-5.991,-5.9683,-5.7668,-5.4978,-5.2022,-4.93,-4.6697,-4.4971,-4.4914,-4.4792,-4.4578,-4.4119,-4.336,-4.2749,-11.4879,-11.4879,-11.4879,-11.4879,-11.517,-11.6857,-11.8137,-11.8951,-12.0172,-12.1452,-12.2728,-12.2728,-12.2728,-12.2728,-12.2728,-12.2728,-12.1371,-11.9362,-11.6785,-11.3962,-11.0853,-10.8932,-10.7699,-10.7103,-10.7103,-10.6793,-10.6301,-10.5578,-10.4846,-10.2461,-10.049,-9.9941,-10.03,-10.0983,-10.1813,-10.2496,-10.2607,-10.2753,-10.2753,-10.1569,-10.03,-9.9714,-9.8299,-9.703,-9.6444,-9.6395,-9.6395,-9.6395,-9.6395,-9.6395,-9.6395,-9.6395,-9.6395,-9.6395,-9.6395,-9.6249,-9.483,-9.2337,-8.8185,-8.4935,-8.138,-7.7492,-7.536,-7.4368,-7.4238,-7.4238,-7.4238,-7.4238,-7.4238,-7.4238,-7.4238,-7.4238,-7.4238,-7.4238,-7.4238,-7.4108,-7.4068,-7.3549,-7.2989,-7.2519,-7.2101,-7.0658,-6.8446,-6.7274,-6.606,-6.5339,-6.5035,-6.5187,-6.5718,-6.6706,-6.7541,-6.8414,-6.9287,-6.9591,-6.8604,-6.7313,-6.5756,-6.42,-6.2491,-6.1087,-6.0555,-6.0251,-6.01,-5.8278,-5.4978,-5.1904,-4.8974,-4.7116,-4.5349,-4.5141,-4.5084,-4.4541,-4.4119,-4.3482,-4.2749,-11.4879,-11.4879,-11.4879,-11.4879,-11.4937,-11.517,-11.6566,-11.8776,-12.0056,-12.1394,-12.2557,-12.2728,-12.2728,-12.2728,-12.2728,-12.2728,-12.1882,-11.7495,-11.5655,-11.3772,-11.0023,-10.8291,-10.7233,-10.7103,-10.7103,-10.6843,-10.628,-10.5335,-10.4322,-10.2093,-10.0569,-10.012,-10.0674,-10.1374,-10.2008,-10.2496,-10.2545,-10.2447,-10.235,-10.1227,-10.0007,-9.9519,-9.825,-9.7127,-9.6395,-9.6395,-9.6395,-9.6395,-9.6395,-9.6395,-9.6395,-9.6395,-9.6395,-9.6395,-9.6395,-9.5858,-9.4345,-9.017,-8.5785,-8.3625,-8.0017,-7.5874,-7.4457,-7.4368,-7.4238,-7.4238,-7.4238,-7.4238,-7.4238,-7.4238,-7.4238,-7.4238,-7.4238,-7.4238,-7.4238,-7.4238,-7.4198,-7.3939,-7.3419,-7.3079,-7.2661,-7.1097,-6.8918,-6.6969,-6.5718,-6.5187,-6.4997,-6.5225,-6.587,-6.6895,-6.7731,-6.8642,-6.9097,-6.9401,-6.8528,-6.7199,-6.5718,-6.4352,-6.2643,-6.1428,-6.0973,-6.0631,-6.0289,-5.8772,-5.5211,-5.2055,-4.9363,-4.7266,-4.5707,-4.5454,-4.5397,-4.4794,-4.3726,-4.3238,-4.2749,-11.4879,-11.4879,-11.4879,-11.4879,-11.4879,-11.4879,-11.5345,-11.6508,-11.8544,-12.0696,-12.2266,-12.2728,-12.2728,-12.2728,-12.2728,-12.2728,-12.2107,-11.7377,-11.4933,-11.4084,-10.9516,-10.757,-10.7103,-10.7103,-10.7103,-10.6849,-10.6184,-10.519,-10.4121,-10.23,-10.0955,-10.0508,-10.1001,-10.1374,-10.1618,-10.1862,-10.1862,-10.1813,-10.1422,-10.0593,-9.986,-9.8933,-9.7957,-9.6883,-9.6395,-9.6395,-9.6395,-9.6395,-9.6395,-9.6395,-9.6395,-9.6395,-9.6395,-9.6298,-9.6053,-9.5517,-9.3977,-9.0701,-8.5648,-8.2984,-7.9554,-7.5102,-7.4368,-7.4238,-7.4238,-7.4238,-7.4238,-7.4238,-7.4238,-7.4238,-7.4238,-7.4238,-7.4238,-7.4238,-7.4238,-7.4238,-7.4238,-7.4238,-7.3809,-7.3679,-7.318,-7.1159,-6.9045,-6.7258,-6.5491,-6.5187,-6.4959,-6.5491,-6.606,-6.6933,-6.7769,-6.8452,-6.8946,-6.868,-6.7883,-6.6895,-6.5756,-6.4428,-6.3175,-6.196,-6.1428,-6.0707,-6.0365,-5.9456,-5.5558,-5.2055,-4.9482,-4.7418,-4.5871,-4.5312,-4.5454,-4.4671,-4.3537,-4.2967,-4.2505,-11.4879,-11.4879,-11.4879,-11.4879,-11.4879,-11.4879,-11.4879,-11.5286,-11.7206,-11.9591,-12.1627,-12.2499,-12.2728,-12.2728,-12.2728,-12.2615,-12.1597,-11.7495,-11.4933,-11.4206,-10.9516,-10.7699,-10.7103,-10.7103,-10.7103,-10.6798,-10.5857,-10.4813,-10.3541,-10.1828,-10.0893,-10.0569,-10.0511,-10.069,-10.0739,-10.0739,-10.1032,-10.1032,-10.0593,-9.9958,-9.9665,-9.8982,-9.7957,-9.6542,-9.6395,-9.6395,-9.6395,-9.6395,-9.6395,-9.6395,-9.6395,-9.6395,-9.6395,-9.5809,-9.5517,-9.5029,-9.3589,-9.1105,-8.7839,-8.3074,-8.0011,-7.69,-7.4973,-7.4238,-7.4238,-7.4238,-7.4238,-7.4238,-7.4238,-7.4238,-7.4238,-7.4238,-7.4238,-7.4238,-7.4238,-7.4238,-7.4238,-7.4238,-7.4238,-7.3939,-7.3329,-7.1435,-6.9105,-6.699,-6.5538,-6.4997,-6.4959,-6.5415,-6.6022,-6.6857,-6.7579,-6.8186,-6.8452,-6.7958,-6.7427,-6.6744,-6.5718,-6.458,-6.3516,-6.2415,-6.1542,-6.0745,-5.9985,-5.8392,-5.5211,-5.2055,-4.9607,-4.7356,-4.59,-4.5141,-4.5198,-4.4775,-4.3549,-4.2736,-4.2221,-11.4879,-11.4879,-11.4879,-11.4879,-11.4879,-11.4879,-11.4879,-11.5112,-11.6392,-11.8427,-12.087,-12.215,-12.2728,-12.2728,-12.2728,-12.2728,-12.1484,-11.7731,-11.5054,-11.3962,-11.015,-10.7699,-10.7233,-10.7052,-10.6951,-10.6798,-10.5603,-10.3827,-10.1828,-10.0903,-10.0242,-9.9968,-9.9648,-9.9714,-9.9714,-9.9714,-10.0202,-10.1032,-10.0837,-10.0105,-9.9519,-9.908,-9.7908,-9.6786,-9.6395,-9.6395,-9.6395,-9.6395,-9.6395,-9.6395,-9.6395,-9.6249,-9.6151,-9.537,-9.4784,-9.4394,-9.2735,-9.1737,-9.087,-8.5317,-8.13,-7.8,-7.519,-7.4368,-7.4238,-7.4238,-7.4238,-7.4238,-7.4238,-7.4238,-7.4238,-7.4238,-7.4238,-7.4238,-7.4238,-7.4238,-7.4238,-7.4238,-7.4068,-7.3809,-7.3048,-7.1914,-6.9212,-6.7076,-6.5862,-6.5234,-6.5035,-6.5339,-6.5946,-6.6668,-6.7275,-6.7769,-6.7958,-6.7465,-6.6933,-6.6402,-6.5756,-6.4807,-6.3744,-6.2681,-6.1732,-6.0093,-5.8269,-5.6634,-5.4047,-5.1359,-4.9164,-4.72,-4.6312,-4.5511,-4.5369,-4.4747,-4.3466,-4.2546,-4.1725,-11.4879,-11.4879,-11.4879,-11.4879,-11.4879,-11.4879,-11.4879,-11.5112,-11.6217,-11.8253,-12.0754,-12.1976,-12.2728,-12.2728,-12.2728,-12.2728,-12.1655,-11.919,-11.6785,-11.4084,-11.1426,-10.9059,-10.7699,-10.6951,-10.6595,-10.5731,-10.4639,-10.3322,-10.1383,-10.043,-9.9725,-9.9162,-9.8799,-9.8982,-9.9128,-9.908,-9.9031,-9.9421,-9.8982,-9.7859,-9.8494,-9.7957,-9.6932,-9.6688,-9.6395,-9.6395,-9.6395,-9.6395,-9.6395,-9.6395,-9.6249,-9.5956,-9.5468,-9.4957,-9.4004,-9.293,-9.1785,-9.1152,-8.9808,-8.6637,-8.2982,-7.8883,-7.5961,-7.4586,-7.4238,-7.4238,-7.4238,-7.4238,-7.4238,-7.4238,-7.4238,-7.4238,-7.4238,-7.4238,-7.4238,-7.4238,-7.4238,-7.4238,-7.3939,-7.3609,-7.3289,-7.2688,-7.0305,-6.8735,-6.7661,-6.6855,-6.6138,-6.5453,-6.5984,-6.644,-6.7009,-6.7237,-6.7427,-6.6971,-6.6402,-6.5832,-6.5225,-6.4314,-6.3516,-6.2605,-6.111,-5.8442,-5.6483,-5.5094,-5.3096,-5.0537,-4.8503,-4.6776,-4.6153,-4.5795,-4.535,-4.4945,-4.3577,-4.2112,-4.1324,-11.5345,-11.4879,-11.4879,-11.4879,-11.4879,-11.4879,-11.4879,-11.5054,-11.5752,-11.7555,-12.0056,-12.1743,-12.2728,-12.2728,-12.2728,-12.2728,-12.222,-11.994,-11.7259,-11.4812,-11.2172,-10.9643,-10.7701,-10.6595,-10.6087,-10.5274,-10.3801,-10.2208,-10.0929,-9.9855,-9.9231,-9.8506,-9.7751,-9.8035,-9.8055,-9.7762,-9.8103,-9.8445,-9.8299,-9.7664,-9.8103,-9.7567,-9.7274,-9.659,-9.6395,-9.6395,-9.6395,-9.6395,-9.6395,-9.6298,-9.5956,-9.5468,-9.5103,-9.3857,-9.293,-9.1905,-9.1222,-9.0685,-8.963,-8.7426,-8.4279,-7.9843,-7.6432,-7.4238,-7.4238,-7.4238,-7.4238,-7.4238,-7.4238,-7.4238,-7.4238,-7.4238,-7.4238,-7.4238,-7.4238,-7.4238,-7.4238,-7.4238,-7.4028,-7.3426,-7.3185,-7.2896,-7.1588,-7.0203,-6.9181,-6.8165,-6.6683,-6.5567,-6.5908,-6.6326,-6.6516,-6.6832,-6.6782,-6.644,-6.5756,-6.5225,-6.4693,-6.3934,-6.3137,-6.234,-6.1272,-5.8332,-5.5246,-5.3682,-5.1898,-4.9591,-4.7684,-4.6254,-4.5699,-4.5653,-4.535,-4.4699,-4.3366,-4.1878,-4.088,-11.6159,-11.517,-11.5112,-11.5112,-11.5112,-11.4937,-11.4879,-11.4937,-11.4937,-11.645,-11.8835,-12.1045,-12.215,-12.2557,-12.2728,-12.2728,-12.2615,-12.0228,-11.7613,-11.4933,-11.2366,-10.9867,-10.7393,-10.5935,-10.5274,-10.4563,-10.3242,-10.1978,-10.0802,-9.9379,-9.8585,-9.8138,-9.719,-9.6667,-9.6639,-9.703,-9.7518,-9.7762,-9.8299,-9.825,-9.8103,-9.8201,-9.8055,-9.6737,-9.6395,-9.6395,-9.6395,-9.6395,-9.6395,-9.6395,-9.5565,-9.4957,-9.4199,-9.2979,-9.2002,-9.127,-9.0636,-9.0294,-8.9463,-8.7545,-8.4885,-8.183,-7.8127,-7.4973,-7.4368,-7.4238,-7.4238,-7.4238,-7.4238,-7.4238,-7.4238,-7.4238,-7.4238,-7.4238,-7.4238,-7.4238,-7.4238,-7.4198,-7.3836,-7.3152,-7.2622,-7.2335,-7.1315,-7.0684,-6.9777,-6.9017,-6.7603,-6.644,-6.663,-6.6174,-6.6375,-6.6489,-6.6364,-6.5946,-6.5225,-6.458,-6.4086,-6.3403,-6.2605,-6.1884,-6.0622,-5.7817,-5.4349,-5.2489,-5.0192,-4.8473,-4.6623,-4.6175,-4.5691,-4.5502,-4.5067,-4.4324,-4.3143,-4.1815,-4.0793,-11.7206,-11.7729,-11.6741,-11.6333,-11.6217,-11.5286,-11.4937,-11.4879,-11.4879,-11.581,-11.7439,-11.9009,-12.0929,-12.2208,-12.2615,-12.2728,-12.2615,-12.1995,-11.8957,-11.6015,-11.3664,-11.0523,-10.716,-10.5376,-10.441,-10.2835,-10.2175,-10.1442,-10.0342,-9.9152,-9.8138,-9.7518,-9.6895,-9.6395,-9.659,-9.6981,-9.7078,-9.703,-9.7322,-9.7274,-9.703,-9.7225,-9.6981,-9.6639,-9.6395,-9.6395,-9.6395,-9.6395,-9.6346,-9.6151,-9.5273,-9.4248,-9.3515,-9.2246,-9.1319,-9.0587,-9.0343,-9.005,-8.9297,-8.7783,-8.6136,-8.3671,-8.0591,-7.6176,-7.4973,-7.4238,-7.4238,-7.4238,-7.4238,-7.4238,-7.4238,-7.4238,-7.4238,-7.4238,-7.4238,-7.4238,-7.4198,-7.4037,-7.3715,-7.2991,-7.2468,-7.1934,-7.1276,-7.0842,-7.0325,-6.9676,-6.8804,-6.7668,-6.6971,-6.6288,-6.6326,-6.644,-6.6288,-6.5756,-6.5035,-6.4314,-6.3592,-6.2871,-6.2074,-6.0851,-5.8326,-5.5653,-5.3465,-5.0792,-4.8229,-4.6899,-4.6577,-4.6157,-4.571,-4.5076,-4.4416,-4.3703,-4.296,-4.1858,-4.0747,-11.8951,-11.9474,-11.8195,-11.738,-11.6741,-11.6043,-11.5403,-11.4996,-11.4937,-11.5635,-11.6799,-11.7671,-11.9358,-12.151,-12.2441,-12.2728,-12.2391,-12.1257,-11.8608,-11.5415,-11.2758,-10.9818,-10.6112,-10.4309,-10.3547,-10.2175,-10.1514,-10.0854,-10.0234,-9.9124,-9.8212,-9.7767,-9.6895,-9.6395,-9.6493,-9.703,-9.6834,-9.6639,-9.6395,-9.6395,-9.6542,-9.6834,-9.6883,-9.6444,-9.6395,-9.6395,-9.6395,-9.6395,-9.6249,-9.5517,-9.4638,-9.3564,-9.2539,-9.1514,-9.0733,-9.005,-9.005,-9.005,-8.965,-8.7497,-8.6423,-8.481,-8.1336,-7.7663,-7.6176,-7.5102,-7.4238,-7.4238,-7.4238,-7.4238,-7.4238,-7.4238,-7.4238,-7.4238,-7.4238,-7.4238,-7.4158,-7.3956,-7.3474,-7.283,-7.2186,-7.1167,-7.0353,-6.9887,-6.9251,-6.8968,-6.8446,-6.7783,-6.7313,-6.6895,-6.6895,-6.6706,-6.606,-6.5453,-6.4693,-6.3934,-6.3137,-6.2264,-6.1428,-5.9896,-5.6885,-5.4438,-5.253,-5.0207,-4.7881,-4.6788,-4.6414,-4.5852,-4.517,-4.4452,-4.3766,-4.2937,-4.2114,-4.1198,-4.0341,-12.0812,-12.0812,-11.9533,-11.8253,-11.7148,-11.6799,-11.6043,-11.4996,-11.4879,-11.5577,-11.645,-11.6857,-11.8137,-12.0056,-12.151,-12.2383,-12.1824,-12.0343,-11.7613,-11.4648,-11.1419,-10.8122,-10.5197,-10.2937,-10.2226,-10.1565,-10.0752,-10.0346,-9.9808,-9.8951,-9.8336,-9.7891,-9.702,-9.6395,-9.6395,-9.659,-9.6395,-9.6444,-9.6395,-9.6395,-9.6542,-9.7176,-9.7078,-9.6639,-9.6395,-9.6298,-9.6053,-9.6005,-9.5565,-9.4638,-9.3515,-9.2539,-9.1661,-9.0636,-9.0148,-9.005,-9.005,-9.0001,-8.965,-8.7664,-8.6136,-8.5294,-8.1212,-7.8757,-7.7155,-7.5833,-7.4238,-7.4238,-7.4238,-7.4238,-7.4238,-7.4238,-7.4238,-7.4238,-7.4238,-7.4238,-7.4117,-7.3795,-7.287,-7.2186,-7.0851,-6.9959,-6.9469,-6.8889,-6.8298,-6.8251,-6.8242,-6.8101,-6.7845,-6.7996,-6.8034,-6.6744,-6.5908,-6.4883,-6.401,-6.3365,-6.2529,-6.1618,-6.074,-5.9787,-5.7528,-5.5431,-5.2847,-5.0213,-4.817,-4.6775,-4.6108,-4.5397,-4.4658,-4.3885,-4.3289,-4.2318,-4.1357,-4.062,-3.9968,-12.1278,-12.2092,-12.087,-11.9591,-11.8311,-11.7264,-11.6101,-11.5054,-11.4937,-11.5054,-11.5403,-11.6275,-11.709,-11.8137,-11.9882,-12.1627,-12.2333,-11.9768,-11.7092,-11.42,-11.0556,-10.7247,-10.4581,-10.2734,-10.1565,-10.0955,-10.0346,-10.0102,-9.9614,-9.8828,-9.8138,-9.7643,-9.6895,-9.6395,-9.6444,-9.6542,-9.6395,-9.6395,-9.6395,-9.6395,-9.6444,-9.659,-9.659,-9.6444,-9.6395,-9.5956,-9.5321,-9.5175,-9.454,-9.3515,-9.2588,-9.1737,-9.1514,-9.0636,-9.005,-9.005,-9.005,-9.005,-8.9367,-8.7616,-8.6136,-8.5896,-8.1088,-7.8883,-7.7536,-7.592,-7.4238,-7.4238,-7.4238,-7.4238,-7.4238,-7.4238,-7.4238,-7.4238,-7.4238,-7.4198,-7.3997,-7.3313,-7.2387,-7.1012,-6.9441,-6.8795,-6.858,-6.808,-6.7893,-6.7844,-6.7834,-6.7731,-6.8148,-6.8452,-6.7958,-6.6668,-6.5529,-6.4466,-6.3327,-6.2605,-6.1922,-6.1047,-6.0208,-5.9288,-5.7629,-5.5815,-5.3086,-5.012,-4.8271,-4.6788,-4.5805,-4.5056,-4.4146,-4.3349,-4.2665,-4.1926,-4.1163,-4.046,-3.9837,-12.1452,-12.2499,-12.1917,-12.087,-11.9591,-11.8311,-11.7031,-11.5868,-11.517,-11.4879,-11.5112,-11.5577,-11.6159,-11.7031,-11.8427,-11.9533,-11.958,-11.7542,-11.5037,-11.225,-10.8252,-10.4589,-10.3084,-10.1717,-10.0854,-10.0498,-10.0295,-10.0052,-9.9686,-9.9074,-9.8632,-9.7891,-9.7194,-9.6646,-9.6618,-9.6834,-9.7176,-9.7371,-9.7762,-9.8055,-9.8055,-9.8055,-9.7664,-9.703,-9.6298,-9.5419,-9.4736,-9.4394,-9.3467,-9.2539,-9.1905,-9.1368,-9.088,-9.0294,-9.005,-9.005,-9.005,-9.005,-8.965,-8.7616,-8.6256,-8.5535,-8.1212,-7.8505,-7.7536,-7.5961,-7.4368,-7.4238,-7.4238,-7.4238,-7.4238,-7.4238,-7.4238,-7.4238,-7.4238,-7.4238,-7.3956,-7.295,-7.1904,-7.0734,-6.9324,-6.8398,-6.7941,-6.7637,-6.7364,-6.7324,-6.7478,-6.7769,-6.8186,-6.8034,-6.7655,-6.6516,-6.5529,-6.4086,-6.2415,-6.1884,-6.1314,-6.0398,-5.9523,-5.8399,-5.6862,-5.462,-5.2158,-5.006,-4.8747,-4.72,-4.5945,-4.4146,-4.3435,-4.2695,-4.2296,-4.1899,-4.1052,-4.0379,-3.9756,-12.1336,-12.2325,-12.2499,-12.1859,-12.0638,-11.9591,-11.8195,-11.6741,-11.5694,-11.5112,-11.4937,-11.4937,-11.5577,-11.6333,-11.6624,-11.738,-11.7567,-11.4929,-11.2181,-10.9823,-10.5442,-10.2699,-10.2022,-10.1108,-10.0447,-10.0295,-10.0295,-10.0295,-10.0052,-9.9564,-9.8705,-9.8262,-9.7518,-9.6895,-9.6765,-9.7176,-9.7518,-9.7811,-9.8787,-9.908,-9.908,-9.9031,-9.8738,-9.6932,-9.5663,-9.4687,-9.415,-9.3271,-9.2393,-9.1514,-9.1368,-9.088,-9.0294,-9.0099,-9.005,-9.005,-9.005,-9.005,-8.9884,-8.802,-8.6902,-8.5173,-8.183,-7.926,-7.7663,-7.592,-7.4457,-7.4238,-7.4238,-7.4238,-7.4238,-7.4238,-7.4238,-7.4238,-7.4198,-7.4117,-7.3635,-7.2468,-7.1019,-7.0333,-6.9368,-6.8364,-6.7792,-6.7332,-6.7219,-6.7258,-6.7682,-6.8186,-6.8224,-6.7807,-6.7199,-6.6288,-6.5377,-6.3516,-6.1732,-6.1428,-6.1239,-6.0474,-6.012,-5.902,-5.6974,-5.4068,-5.1488,-4.9723,-4.8201,-4.6699,-4.5012,-4.3297,-4.2638,-4.278,-4.2324,-4.1814,-4.1473,-4.1215,-4.0502,-12.0812,-12.1045,-12.215,-12.1859,-12.0754,-12.0463,-11.9067,-11.709,-11.6566,-11.5868,-11.5054,-11.4879,-11.4996,-11.5403,-11.6275,-11.6799,-11.619,-11.3417,-11.0674,-10.8291,-10.3896,-10.2116,-10.1616,-10.0905,-10.0295,-10.0295,-10.0295,-10.0295,-9.993,-9.9196,-9.8582,-9.8138,-9.727,-9.6646,-9.652,-9.6688,-9.7322,-9.8201,-9.9177,-9.9372,-9.8884,-9.9372,-9.8347,-9.6493,-9.525,-9.415,-9.2686,-9.2002,-9.1417,-9.0343,-9.0294,-9.0197,-9.005,-9.005,-9.005,-9.005,-9.005,-9.005,-8.9767,-8.9249,-8.802,-8.6016,-8.2937,-8.0467,-7.8127,-7.5961,-7.4586,-7.4238,-7.4238,-7.4238,-7.4238,-7.4238,-7.4238,-7.4198,-7.4238,-7.3876,-7.2991,-7.1502,-7.0576,-6.9891,-6.9006,-6.8404,-6.7917,-6.75,-6.7312,-6.7432,-6.8114,-6.8452,-6.811,-6.7617,-6.6706,-6.5794,-6.4693,-6.3061,-6.196,-6.1504,-6.158,-6.1269,-6.1444,-6.0024,-5.8306,-5.5333,-5.2339,-5.0108,-4.7058,-4.5483,-4.3726,-4.2752,-4.261,-4.2866,-4.2636,-4.2236,-4.209,-4.191,-4.1315,-12.0056,-12.0754,-12.1336,-12.1627,-12.1568,-12.0987,-11.9998,-11.8776,-11.7439,-11.645,-11.5868,-11.5112,-11.4879,-11.4996,-11.5519,-11.6217,-11.5981,-11.419,-11.1176,-10.7319,-10.3242,-10.123,-10.0905,-10.0549,-10.0295,-10.0295,-10.0295,-10.0052,-9.9736,-9.9124,-9.8509,-9.7767,-9.727,-9.6771,-9.6444,-9.703,-9.7762,-9.8738,-9.9421,-9.9763,-9.9763,-10.0251,-9.9275,-9.7713,-9.5614,-9.3808,-9.1758,-9.1005,-9.0538,-9.0197,-9.005,-9.005,-9.005,-9.005,-9.005,-9.005,-9.005,-9.005,-8.9532,-8.8778,-8.7497,-8.6136,-8.22,-7.9843,-7.8043,-7.5705,-7.4457,-7.4238,-7.4238,-7.4238,-7.4238,-7.4238,-7.4238,-7.4158,-7.3795,-7.3393,-7.2749,-7.1301,-7.0094,-6.9369,-6.8806,-6.8524,-6.8316,-6.8098,-6.7948,-6.8097,-6.8777,-6.7996,-6.7693,-6.6782,-6.5946,-6.4959,-6.3896,-6.3023,-6.2074,-6.1846,-6.196,-6.2142,-6.1717,-5.9745,-5.7535,-5.5056,-5.2662,-4.8912,-4.4984,-4.3523,-4.3207,-4.2723,-4.2354,-4.2894,-4.3119,-4.28,-4.2595,-4.2612,-4.218,-11.9649,-12.0347,-12.0638,-12.1278,-12.1976,-12.1452,-12.0987,-12.0463,-11.8195,-11.709,-11.6624,-11.5752,-11.5403,-11.5345,-11.5519,-11.581,-11.6517,-11.4513,-11.1821,-10.737,-10.2649,-10.0538,-10.0346,-10.0346,-10.0295,-10.0295,-10.0295,-10.0052,-9.9564,-9.9247,-9.8509,-9.7643,-9.727,-9.6945,-9.659,-9.7371,-9.8494,-9.9275,-10.0153,-10.0641,-10.0837,-10.0885,-10.03,-9.8396,-9.5809,-9.3418,-9.1563,-9.0489,-9.005,-9.005,-9.005,-9.005,-9.005,-9.005,-9.005,-9.005,-9.005,-9.005,-8.965,-8.8423,-8.6735,-8.5896,-8.22,-7.8757,-7.8253,-7.5705,-7.4497,-7.4238,-7.4238,-7.4238,-7.4238,-7.4238,-7.4077,-7.3795,-7.3313,-7.287,-7.2347,-7.0979,-6.9852,-6.9329,-6.8967,-6.8846,-6.8755,-6.8417,-6.8657,-6.8918,-6.8484,-6.763,-6.6744,-6.5794,-6.4845,-6.382,-6.3061,-6.2719,-6.2188,-6.2415,-6.2605,-6.2828,-6.0737,-5.8462,-5.5186,-5.2454,-4.8881,-4.5749,-4.321,-4.2923,-4.2837,-4.2439,-4.2695,-4.3179,-4.3605,-4.3365,-4.315,-4.3226,-4.2942,-11.994,-11.9125,-12.0231,-12.0812,-12.1045,-12.1917,-12.1627,-12.058,-11.9184,-11.802,-11.7148,-11.6741,-11.6566,-11.6624,-11.6333,-11.6566,-11.641,-11.3308,-11.0232,-10.6745,-10.319,-10.0416,-10.0416,-10.0295,-10.0295,-10.0295,-10.0295,-10.0173,-9.9686,-9.8951,-9.8336,-9.7891,-9.702,-9.652,-9.659,-9.7371,-9.8006,-9.8689,-10.0397,-10.0788,-10.0105,-10.0251,-9.947,-9.7176,-9.4687,-9.2539,-9.1075,-9.0148,-9.005,-9.005,-9.005,-9.005,-9.005,-9.005,-9.005,-9.005,-9.005,-9.005,-8.9884,-8.9415,-8.8375,-8.6016,-8.3182,-8.084,-7.8127,-7.5833,-7.4238,-7.4238,-7.4238,-7.4238,-7.4238,-7.4238,-7.3916,-7.3272,-7.2991,-7.2468,-7.1582,-7.0094,-6.9289,-6.9852,-6.9289,-6.8605,-6.8398,-6.8575,-6.8891,-6.8879,-6.8012,-6.7022,-6.5908,-6.4959,-6.3896,-6.2985,-6.2681,-6.2378,-6.2681,-6.2985,-6.3093,-6.3194,-6.0702,-5.7541,-5.4312,-4.9493,-4.5632,-4.344,-4.3038,-4.2695,-4.261,-4.2951,-4.3292,-4.3634,-4.3776,-4.376,-4.3681,-4.3514,-4.2932,-12.0405,-11.9882,-11.9707,-11.9998,-12.0754,-12.1278,-12.1161,-12.0638,-12.0114,-11.9533,-11.9009,-11.8311,-11.7555,-11.6799,-11.6799,-11.5692,-11.3594,-11.1882,-10.9065,-10.5826,-10.3308,-10.1573,-10.0538,-10.0295,-10.0295,-10.0295,-10.0295,-9.993,-9.9196,-9.8705,-9.7965,-9.722,-9.6646,-9.6395,-9.6346,-9.6932,-9.7371,-9.8006,-9.8494,-9.9128,-9.8689,-9.8591,-9.7518,-9.6444,-9.4296,-9.2832,-9.1807,-9.0636,-9.005,-9.005,-9.005,-9.005,-9.005,-9.005,-9.005,-9.005,-9.005,-9.0001,-8.9767,-8.8494,-8.7259,-8.5655,-8.1954,-7.9593,-7.8,-7.5833,-7.4238,-7.4238,-7.4238,-7.4238,-7.4238,-7.4238,-7.3795,-7.295,-7.2387,-7.1502,-7.0094,-6.9772,-6.9651,-6.9329,-6.9047,-6.8926,-6.9513,-6.8889,-6.8774,-6.8454,-6.7503,-6.6185,-6.5073,-6.4086,-6.3175,-6.2833,-6.2529,-6.2833,-6.3213,-6.3201,-6.3307,-6.3592,-6.1469,-5.7712,-5.3235,-4.7478,-4.4457,-4.2839,-4.2638,-4.2581,-4.2752,-4.3008,-4.3378,-4.3662,-4.3861,-4.3913,-4.3619,-4.3387,-4.2398,-12.0521,-12.0114,-11.9184,-11.9125,-11.9649,-12.0114,-12.0172,-12.0231,-12.0172,-11.9998,-12.0056,-11.9533,-11.8602,-11.7439,-11.7322,-11.565,-11.332,-11.1825,-10.8729,-10.5247,-10.3898,-10.1932,-10.0659,-10.0295,-10.0295,-10.0295,-10.0295,-9.9686,-9.8705,-9.8459,-9.7692,-9.6254,-9.6032,-9.5809,-9.5663,-9.5809,-9.6298,-9.6542,-9.6346,-9.6834,-9.703,-9.6395,-9.5858,-9.5468,-9.3662,-9.2588,-9.21,-9.0782,-9.005,-9.005,-9.005,-9.005,-9.005,-9.005,-9.005,-9.005,-9.0001,-8.9767,-8.8778,-8.7259,-8.5896,-8.4764,-8.084,-7.8127,-7.8,-7.5705,-7.4457,-7.4238,-7.4238,-7.4158,-7.3916,-7.3836,-7.3393,-7.2629,-7.1703,-7.0737,-6.9731,-6.9611,-6.9731,-6.9168,-6.8806,-6.8924,-6.8989,-6.8647,-6.7979,-6.7759,-6.6521,-6.4883,-6.4124,-6.3289,-6.3137,-6.2757,-6.2947,-6.3365,-6.3465,-6.3292,-6.303,-6.327,-6.0066,-5.5726,-5.0717,-4.5868,-4.3761,-4.2211,-4.2155,-4.2325,-4.261,-4.3008,-4.3264,-4.3548,-4.3544,-4.337,-4.3167,-4.2819,-4.1955,-11.9998,-11.8951,-11.8776,-11.8137,-11.7439,-11.8427,-11.8893,-11.8893,-11.9009,-11.9009,-11.93,-11.9998,-11.9707,-11.8668,-11.7993,-11.669,-11.5758,-11.2056,-10.8953,-10.6125,-10.2953,-10.078,-10.0295,-10.0295,-10.0295,-10.0295,-10.0244,-9.9757,-9.8923,-9.8332,-9.7469,-9.5841,-9.508,-9.4394,-9.3955,-9.4443,-9.454,-9.4248,-9.5419,-9.5712,-9.5077,-9.4833,-9.4394,-9.3369,-9.2295,-9.1319,-9.0636,-9.0197,-9.005,-9.005,-9.005,-9.005,-9.005,-9.005,-9.005,-9.005,-9.0001,-8.866,-8.7021,-8.6016,-8.4764,-8.2401,-7.9718,-7.8127,-7.7536,-7.5576,-7.4238,-7.4238,-7.4158,-7.3836,-7.3232,-7.2991,-7.2468,-7.1703,-7.0778,-7.0335,-7.0053,-6.945,-6.9288,-6.957,-6.8763,-6.8001,-6.7917,-6.7572,-6.6531,-6.5739,-6.5098,-6.401,-6.3327,-6.3137,-6.3023,-6.3289,-6.3592,-6.3609,-6.2935,-6.2519,-6.1172,-5.9765,-5.5333,-5.156,-4.7396,-4.4721,-4.2553,-4.2012,-4.1756,-4.2012,-4.2354,-4.2837,-4.3207,-4.3207,-4.3034,-4.28,-4.2455,-4.2082,-4.1253,-12.0405,-11.9823,-11.8253,-11.7206,-11.6915,-11.7264,-11.7555,-11.7671,-11.8369,-11.8776,-11.9067,-12.0172,-11.8705,-11.5939,-11.606,-11.3591,-10.8936,-10.742,-10.5741,-10.3994,-10.128,-10.0416,-10.0295,-10.0295,-10.0295,-10.0193,-9.9634,-9.8797,-9.7655,-9.6763,-9.549,-9.4344,-9.3881,-9.3467,-9.3271,-9.3515,-9.3613,-9.332,-9.3906,-9.415,-9.3711,-9.3125,-9.2588,-9.21,-9.1173,-9.0441,-9.0099,-9.005,-9.005,-9.005,-9.005,-9.005,-9.005,-9.005,-9.005,-8.965,-8.8542,-8.7259,-8.6136,-8.4643,-8.2446,-8.0093,-7.8757,-7.7536,-7.592,-7.5102,-7.4238,-7.4117,-7.3715,-7.3272,-7.283,-7.2427,-7.1381,-7.0013,-6.9571,-6.9651,-7.0094,-6.9892,-6.957,-6.8645,-6.8085,-6.7485,-6.6685,-6.5956,-6.5026,-6.4302,-6.3713,-6.3023,-6.2909,-6.2985,-6.3289,-6.363,-6.3685,-6.3207,-6.2554,-6.1078,-5.9379,-5.5089,-5.0717,-4.7518,-4.532,-4.3241,-4.2155,-4.1643,-4.1614,-4.1899,-4.187,-4.2439,-4.278,-4.2667,-4.2524,-4.2266,-4.198,-4.1496,-3.9842,-12.0231,-11.93,-11.7497,-11.6566,-11.6217,-11.6217,-11.6217,-11.6333,-11.7613,-11.8137,-11.8427,-11.9533,-11.7729,-11.4685,-11.4527,-11.1517,-10.5202,-10.2675,-10.1374,-10.0568,-9.9657,-9.9177,-9.9177,-9.9228,-9.9279,-9.9126,-9.8517,-9.7565,-9.6335,-9.5496,-9.4182,-9.2927,-9.2637,-9.2491,-9.21,-9.2149,-9.2149,-9.2149,-9.2149,-9.2149,-9.21,-9.1466,-9.1005,-9.1026,-9.0441,-9.005,-9.005,-9.005,-9.005,-9.005,-9.005,-9.005,-9.005,-9.005,-9.005,-8.9767,-8.8257,-8.714,-8.6136,-8.44,-8.2312,-7.9577,-7.8161,-7.6736,-7.501,-7.3951,-7.3313,-7.3272,-7.287,-7.2307,-7.2025,-7.1462,-7.0536,-6.9007,-6.8846,-6.9168,-6.9611,-6.9731,-6.9127,-6.7965,-6.7325,-6.673,-6.5978,-6.5103,-6.4522,-6.4085,-6.3533,-6.3061,-6.3023,-6.3403,-6.3744,-6.3844,-6.3169,-6.2678,-6.0316,-5.8269,-5.4911,-4.9961,-4.6757,-4.3847,-4.3124,-4.1899,-4.1557,-4.133,-4.1586,-4.1699,-4.1557,-4.1699,-4.1955,-4.1984,-4.1955,-4.1672,-4.1361,-3.9978,-3.8143,-11.9242,-11.7148,-11.6799,-11.6043,-11.517,-11.5054,-11.4996,-11.5228,-11.6333,-11.6799,-11.6973,-11.8137,-11.6776,-11.4757,-11.383,-11.1698,-10.6017,-10.0465,-9.7746,-9.7512,-9.7313,-9.7246,-9.7297,-9.7348,-9.7348,-9.7297,-9.7094,-9.6454,-9.5098,-9.4729,-9.3638,-9.1878,-9.1612,-9.1103,-9.0148,-9.0343,-9.0245,-9.0294,-9.0392,-9.0245,-9.005,-9.0197,-9.0197,-9.0148,-9.0099,-9.005,-9.005,-9.005,-9.005,-9.005,-9.005,-9.005,-9.005,-8.9904,-8.9953,-8.9904,-8.9553,-8.8279,-8.6116,-8.5136,-8.2943,-7.9931,-7.8085,-7.6305,-7.481,-7.3032,-7.1824,-7.1864,-7.1623,-7.126,-7.0576,-7.0295,-6.9812,-6.9007,-6.8846,-6.8806,-6.8886,-6.8846,-6.8524,-6.7561,-6.6564,-6.5732,-6.5851,-6.5272,-6.4444,-6.4094,-6.3771,-6.3592,-6.3592,-6.3782,-6.4162,-6.4006,-6.3221,-6.1201,-5.8304,-5.5022,-4.9964,-4.5656,-4.3616,-4.2126,-4.1728,-4.1586,-4.1273,-4.1244,-4.1472,-4.1472,-4.133,-4.1358,-4.1529,-4.1557,-4.1303,-4.1135,-4.0042,-3.8439,-3.6538,-11.9184,-11.6857,-11.5868,-11.5228,-11.4937,-11.4879,-11.4879,-11.4937,-11.5345,-11.5519,-11.5577,-11.5926,-11.3409,-10.9387,-10.8891,-10.5804,-10.0462,-9.9005,-9.7323,-9.6092,-9.6637,-9.6992,-9.6992,-9.6992,-9.6992,-9.6942,-9.6992,-9.5949,-9.412,-9.2835,-9.1704,-9.0587,-9.0538,-9.0343,-9.0099,-9.005,-9.005,-9.005,-9.005,-9.005,-9.005,-9.005,-9.005,-9.005,-9.005,-9.005,-9.005,-9.005,-9.005,-9.005,-9.005,-9.005,-8.9953,-8.9318,-8.8928,-8.8483,-8.5132,-8.2144,-8.1385,-7.9828,-7.7681,-7.485,-7.5177,-7.4847,-7.3035,-7.2001,-7.1667,-7.1381,-7.1059,-7.0576,-7.0174,-6.9651,-6.9168,-6.8967,-6.8846,-6.8645,-6.8082,-6.7961,-6.7559,-6.6834,-6.6236,-6.542,-6.4604,-6.4488,-6.4057,-6.3157,-6.3609,-6.3706,-6.3858,-6.4041,-6.4204,-6.2554,-6.2224,-6.0118,-5.5148,-5.0857,-4.6193,-4.4455,-4.2753,-4.1842,-4.133,-4.1301,-4.1216,-4.1216,-4.1244,-4.1244,-4.1216,-4.1216,-4.1244,-4.1273,-4.0993,-4.0073,-3.8339,-3.6877,-3.3996,-11.8311,-11.6682,-11.5403,-11.4879,-11.4879,-11.4879,-11.4879,-11.4879,-11.4879,-11.4879,-11.4821,-11.4414,-11.1371,-10.6464,-10.394,-10.0224,-9.616,-9.6562,-9.6136,-9.5088,-9.5468,-9.5773,-9.5824,-9.5824,-9.5773,-9.5773,-9.5773,-9.4838,-9.2922,-9.1628,-9.0634,-9.0118,-9.005,-9.005,-9.005,-9.005,-9.005,-9.005,-9.005,-9.005,-9.005,-9.005,-9.005,-9.005,-9.005,-9.005,-9.005,-9.005,-9.005,-9.005,-8.9611,-8.9416,-8.9318,-8.8439,-8.7805,-8.725,-8.2371,-7.9651,-8.0197,-7.8297,-7.5683,-7.3033,-7.4129,-7.376,-7.1232,-7.0576,-7.0576,-7.0456,-6.9973,-6.9731,-6.953,-6.8927,-6.8404,-6.8363,-6.8082,-6.7639,-6.7237,-6.7193,-6.683,-6.6105,-6.5748,-6.5288,-6.4173,-6.4098,-6.4094,-6.3499,-6.3789,-6.4124,-6.4276,-6.4314,-6.3536,-6.1463,-6.0343,-5.8027,-5.0642,-4.678,-4.4778,-4.3673,-4.2524,-4.1842,-4.1472,-4.1472,-4.1244,-4.1216,-4.1216,-4.1216,-4.1216,-4.1216,-4.1216,-4.1105,-4.0101,-3.9039,-3.6964,-3.4223,-3.137,-11.6741,-11.6508,-11.5403,-11.4879,-11.4879,-11.4879,-11.4879,-11.4879,-11.4879,-11.4716,-11.4215,-11.3113,-11.0638,-10.6479,-10.0354,-9.5944,-9.3979,-9.3917,-9.3854,-9.3791,-9.3791,-9.3741,-9.3639,-9.3639,-9.3741,-9.383,-9.3881,-9.3158,-9.1909,-9.1166,-9.0634,-9.0001,-9.005,-9.005,-9.005,-9.005,-9.005,-9.005,-9.005,-9.005,-9.005,-9.005,-9.005,-9.005,-9.005,-9.005,-9.0001,-9.0001,-8.9787,-8.967,-8.8763,-8.8112,-8.7785,-8.6976,-8.6279,-8.5568,-8.1584,-8.0016,-8.1421,-7.9572,-7.6966,-7.4409,-7.3522,-7.2509,-6.945,-6.9128,-6.9128,-6.8927,-6.8846,-6.8645,-6.8565,-6.7921,-6.7636,-6.7556,-6.6754,-6.6352,-6.6191,-6.6266,-6.5863,-6.5024,-6.4823,-6.4489,-6.4078,-6.4371,-6.4671,-6.4542,-6.4716,-6.4571,-6.41,-6.3647,-6.2014,-5.9409,-5.6562,-5.2648,-4.7457,-4.5708,-4.5602,-4.4428,-4.2866,-4.2126,-4.1955,-4.1728,-4.1415,-4.1216,-4.1216,-4.1216,-4.1216,-4.1216,-4.1216,-4.0324,-3.929,-3.7241,-3.4791,-3.1828,-2.9091,-11.6275,-11.5403,-11.5054,-11.4879,-11.4879,-11.4879,-11.4879,-11.4879,-11.4879,-11.3456,-11.1101,-10.9741,-10.6265,-10.1435,-9.8346,-9.5781,-9.3866,-9.3639,-9.3639,-9.3639,-9.3639,-9.3639,-9.3639,-9.3639,-9.3412,-9.3184,-9.3412,-9.2893,-9.1282,-9.0585,-9.0118,-9.005,-9.005,-9.005,-9.005,-9.005,-9.005,-9.005,-9.005,-9.005,-9.005,-9.005,-9.005,-9.005,-9.005,-9.005,-9.0001,-8.9269,-8.8019,-8.6287,-8.684,-8.5641,-8.23,-8.3397,-8.2996,-8.0246,-7.6575,-7.482,-7.5362,-7.3168,-7.1338,-7.0412,-7.0252,-6.981,-6.9007,-6.8846,-6.8846,-6.8726,-6.7679,-6.6995,-6.6955,-6.6754,-6.6709,-6.6709,-6.6432,-6.6024,-6.5346,-6.5265,-6.479,-6.365,-6.3458,-6.3552,-6.4249,-6.4796,-6.4729,-6.3985,-6.3858,-6.3413,-6.1014,-6.0156,-5.8492,-5.4184,-5.3991,-5.1334,-4.6445,-4.5355,-4.4802,-4.3719,-4.3036,-4.224,-4.2126,-4.1643,-4.1244,-4.1216,-4.1216,-4.1105,-4.0882,-4.0882,-4.0882,-3.929,-3.7015,-3.4474,-3.2286,-2.9877,-2.724,-11.6043,-11.4937,-11.4879,-11.4879,-11.4879,-11.4879,-11.4879,-11.4774,-11.3812,-11.2,-10.9408,-10.5737,-10.1435,-9.683,-9.5982,-9.4941,-9.3752,-9.3639,-9.3639,-9.3639,-9.3639,-9.3526,-9.3298,-9.3526,-9.3184,-9.2449,-9.3298,-9.2778,-9.1215,-9.0818,-9.0419,-9.0001,-9.005,-9.005,-9.005,-9.005,-9.005,-9.005,-9.005,-9.005,-9.005,-9.005,-9.005,-8.9884,-8.8627,-8.7917,-8.7656,-8.5765,-8.4147,-8.2762,-8.2884,-8.1701,-7.8904,-7.9712,-7.891,-7.5844,-7.4576,-7.3574,-7.2597,-7.02,-6.8846,-6.8846,-6.8846,-6.8846,-6.8846,-6.8524,-6.8162,-6.776,-6.6951,-6.6231,-6.6346,-6.5909,-6.5667,-6.5627,-6.5346,-6.483,-6.4195,-6.4002,-6.3618,-6.258,-6.2389,-6.2598,-6.2968,-6.3514,-6.2994,-6.1605,-6.1218,-6.0142,-5.7796,-5.6809,-5.4862,-5.1567,-5.012,-4.8595,-4.5848,-4.4572,-4.4288,-4.3918,-4.315,-4.2411,-4.2211,-4.1643,-4.1244,-4.1216,-4.1216,-4.0993,-4.0436,-3.9989,-3.9541,-3.7691,-3.5155,-3.2743,-2.9301,-2.7356,-2.5632,-11.5926,-11.4937,-11.4879,-11.4879,-11.4879,-11.4879,-11.4669,-11.4188,-11.2083,-11.0265,-10.7942,-10.1588,-9.6874,-9.3968,-9.3803,-9.3752,-9.3639,-9.3639,-9.3639,-9.3526,-9.3639,-9.3298,-9.2842,-9.3412,-9.307,-9.199,-9.2956,-9.2614,-9.0983,-9.1348,-9.1117,-9.0118,-9.005,-9.005,-9.005,-9.005,-9.005,-9.005,-9.005,-8.9953,-8.9904,-8.9621,-8.9455,-8.9358,-8.6074,-8.4262,-8.4262,-8.1123,-7.9234,-7.8908,-7.8222,-7.7453,-7.678,-7.6171,-7.4603,-7.2395,-7.3895,-7.4357,-7.1991,-6.9876,-6.8524,-6.8605,-6.8524,-6.8524,-6.8484,-6.78,-6.7072,-6.6427,-6.603,-6.5828,-6.5949,-6.5104,-6.4428,-6.4348,-6.3745,-6.3042,-6.2518,-6.2558,-6.2224,-6.1555,-6.136,-6.1336,-6.1006,-6.0631,-5.9715,-5.8577,-5.8057,-5.668,-5.4607,-5.355,-5.2051,-4.9659,-4.7022,-4.522,-4.4892,-4.48,-4.4345,-4.389,-4.3378,-4.278,-4.2211,-4.1671,-4.1216,-4.1216,-4.0993,-4.0212,-3.9205,-3.8055,-3.7353,-3.5406,-3.3792,-3.1943,-2.8263,-2.5748,-2.4382,-11.5112,-11.4879,-11.4879,-11.4879,-11.4879,-11.4879,-11.3763,-11.1924,-11.0528,-10.7235,-10.2492,-9.8175,-9.5278,-9.369,-9.3639,-9.3639,-9.3639,-9.3639,-9.3412,-9.307,-9.3412,-9.3412,-9.2842,-9.3412,-9.2956,-9.199,-9.2563,-9.204,-9.0518,-9.0818,-9.0701,-9.0118,-9.005,-9.005,-9.005,-9.005,-9.005,-9.005,-9.005,-8.9611,-8.883,-8.6942,-8.5578,-8.4636,-8.2112,-8.0677,-8.0632,-7.9022,-7.7311,-7.5611,-7.6149,-7.4809,-7.1204,-7.1779,-7.1272,-6.9056,-6.8674,-6.8262,-6.7684,-6.7144,-6.6911,-6.6794,-6.6834,-6.6834,-6.6754,-6.5989,-6.5386,-6.5144,-6.4581,-6.4219,-6.3986,-6.3082,-6.2191,-6.2112,-6.1395,-6.0781,-6.0268,-6.0445,-6.0337,-5.9252,-5.9072,-5.9503,-5.9644,-5.8469,-5.7608,-5.7678,-5.6084,-5.3391,-5.0792,-5.0035,-4.8831,-4.6695,-4.5053,-4.4231,-4.4174,-4.3861,-4.3548,-4.3378,-4.2809,-4.2296,-4.2012,-4.153,-4.1161,-4.077,-3.9877,-3.8729,-3.828,-3.6563,-3.4384,-3.2559,-3.1162,-2.9322,-2.6097,-2.4382,-2.3227,-11.3658,-11.3134,-11.3134,-11.3076,-11.3076,-11.3076,-11.2055,-11.0039,-10.5962,-10.1214,-9.6649,-9.4665,-9.3487,-9.2979,-9.3436,-9.3639,-9.3639,-9.3639,-9.3298,-9.2842,-9.3412,-9.307,-9.204,-9.2893,-9.2384,-9.1117,-9.176,-9.1464,-9.0235,-9.0634,-9.0634,-9.0001,-9.005,-9.005,-9.005,-9.005,-9.005,-9.0001,-8.713,-8.4866,-8.3152,-8.184,-8.0869,-8.0247,-7.8166,-7.6866,-7.6502,-7.4295,-7.2362,-7.0692,-7.1314,-7.0482,-6.7875,-6.8441,-6.8311,-6.7148,-6.6588,-6.6231,-6.6231,-6.6231,-6.6231,-6.6231,-6.6231,-6.5701,-6.4089,-6.3374,-6.3092,-6.3092,-6.3092,-6.2741,-6.1972,-6.1634,-6.1108,-6.0495,-6.0061,-5.9463,-5.8994,-5.9101,-5.8886,-5.813,-5.7952,-5.8187,-5.8882,-5.6649,-5.5425,-5.5834,-5.3045,-4.9902,-4.7448,-4.6849,-4.6014,-4.479,-4.3975,-4.3634,-4.3577,-4.3292,-4.3008,-4.2723,-4.2382,-4.1756,-4.0599,-4.0265,-3.9317,-3.8141,-3.7102,-3.5973,-3.4271,-3.2879,-3.1299,-2.9478,-2.807,-2.6911,-2.5183,-2.3814,-2.2641,-11.1913,-11.0982,-11.0982,-11.0779,-11.0575,-11.0575,-10.9751,-10.8042,-10.0355,-9.5007,-9.1902,-9.1749,-9.1537,-9.1587,-9.2663,-9.3069,-9.2956,-9.3108,-9.2868,-9.2248,-9.2969,-9.2549,-9.1099,-9.204,-9.1694,-9.0235,-9.1117,-9.1117,-9.0118,-9.0468,-9.0518,-9.0001,-9.005,-9.005,-9.0001,-8.9855,-8.9475,-8.8882,-8.3325,-7.9208,-7.6912,-7.6568,-7.623,-7.5626,-7.4165,-7.2795,-7.161,-6.9009,-6.6991,-6.5748,-6.5667,-6.5627,-6.5621,-6.5419,-6.5426,-6.5627,-6.5547,-6.5466,-6.5466,-6.5581,-6.5621,-6.5621,-6.5621,-6.4371,-6.1322,-6.1,-6.0893,-6.0467,-6.1521,-6.1384,-5.9953,-6.0387,-6.0426,-5.9365,-5.9013,-5.8643,-5.7815,-5.7708,-5.724,-5.6447,-5.6564,-5.6167,-5.6027,-5.4113,-5.2648,-5.2379,-4.9888,-4.6729,-4.5409,-4.4316,-4.389,-4.3776,-4.3378,-4.3036,-4.2951,-4.2807,-4.1835,-4.1529,-4.0848,-3.9719,-3.7708,-3.7266,-3.6538,-3.4133,-3.3564,-3.2422,-3.0243,-2.9091,-2.807,-2.6929,-2.555,-2.4616,-2.4382,-2.286,-2.145,-11.0342,-11.0982,-11.0982,-10.996,-10.824,-10.824,-10.719,-10.4762,0.0,0.0,0.0,-9.0444,-8.982,-8.982,-9.0132,-8.99,-8.9555,-9.0405,-9.0465,-8.9945,-9.1361,-9.1694,-9.0983,-9.1579,-9.1579,-9.0867,-9.0934,-9.0701,-9.0001,-9.0167,-9.0118,-9.0001,-9.005,-9.005,-8.9953,-8.9172,-8.7275,-8.44,-8.128,-7.8942,-7.7596,-7.5681,-7.32,-7.0103,-6.9212,-6.7731,-6.5337,-6.6092,-6.5386,-6.3133,-6.2862,-6.265,-6.1966,-6.1201,-6.1443,-6.2811,-6.2288,-6.2033,-6.1925,-6.1925,-6.1925,-6.1925,-6.1925,-6.1751,-6.108,-6.1,-6.0106,-5.7729,-5.9952,-6.0531,-5.8025,-5.834,-5.8756,-5.8493,-5.7641,-5.6578,-5.5639,-5.4763,-5.3746,-5.2685,-5.1537,-5.0813,-5.1615,-4.9932,-4.8734,-4.9153,-4.7235,-4.5162,-4.4892,-4.3975,-4.3321,-4.3235,-4.2752,-4.2354,-4.204,-4.0848,-3.891,-3.79,-3.6463,-3.4821,-3.3564,-3.3199,-3.3062,-3.2171,-3.1141,-3.0013,-2.9322,-2.7259,-2.5416,-2.5083,-2.4031,-2.3227,-2.2993,-2.0626,-1.8252,-10.6072,0.0,-10.5543,-10.4336,0.0,-10.1767,-9.9413,-9.5728,-9.0831,-8.837,-8.7747,-8.7372,-8.7614,-8.8164,-8.8765,-8.8905,-8.8733,-8.912,-8.9032,-8.8518,-9.0124,-9.0555,-8.9684,-9.0919,-9.105,-9.0518,-9.0468,-9.0352,-9.0001,-8.9464,-8.922,-8.922,-8.8635,-8.7805,-8.678,-8.7268,-8.4646,-7.8697,-7.5532,-7.3086,-7.1351,-6.9664,-6.7895,-6.6127,-6.6638,0.0,0.0,0.0,0.0,0.0,0.0,0.0,0.0,0.0,0.0,-5.7399,-5.4564,-5.3193,-5.4105,-5.428,-5.5206,-5.7419,-5.8022,-5.6897,-5.346,-5.5097,-5.501,-5.2266,-5.4507,-5.5293,-5.3293,-5.373,-5.3985,-5.3119,-5.2613,-5.2038,-5.1511,-5.0982,-5.0345,-4.974,-4.9046,-4.8897,-4.9774,-4.7956,-4.6944,-4.7561,-4.5632,-4.3975,-4.3947,-4.3491,-4.2979,-4.2667,-4.2098,-4.1361,-4.0403,-3.9142,-3.783,-3.5608,-3.4474,-3.3108,-3.1026,-3.0682,-3.0107,-2.8609,-2.7588,-2.6795,-2.6115,-2.4967,-2.3446,-2.2492,-2.1803,-2.1215,-2.0037,-1.8489,-1.6821,-10.0681,-9.9511,-9.9412,-9.8314,-9.627,-9.3431,-9.0097,-8.6282,-8.3904,-8.2992,-8.3181,-8.4132,-8.5028,-8.5873,-8.6819,-8.7256,-8.7455,-8.7654,-8.752,-8.7272,-8.8807,-8.8961,-8.8261,-8.9487,-8.988,-8.9416,-8.9416,-8.9416,-8.9367,-8.8537,-8.8098,-8.8098,-8.717,-8.5629,-8.3632,0.0,0.0,0.0,-6.979,-6.6984,-6.4763,-6.3897,-6.3107,-6.2138,-6.3875,0.0,-6.0402,-5.9869,-5.8365,-5.5587,-5.4784,0.0,0.0,0.0,0.0,0.0,0.0,0.0,0.0,0.0,0.0,0.0,-5.1946,-5.0201,-4.5517,-4.8163,-4.8794,-4.5442,-4.8428,-4.9732,-4.7717,-4.8945,-4.9492,-4.8273,-4.8173,-4.8173,-4.8065,-4.7742,-4.7527,-4.7419,-4.7117,-4.7115,-4.7651,-4.6505,-4.5461,-4.5894,-4.4456,-4.3152,-4.2837,-4.2723,-4.2553,-4.1984,-4.0771,-3.9541,-3.7579,-3.6789,-3.518,-3.3336,-3.2422,-3.0933,-2.8649,-2.807,-2.7027,-2.5066,-2.4382,-2.4031,-2.3243,-2.2523,-2.1935,-2.039,-1.9787,-1.8804,-1.6458,-1.5966,-1.5507,-9.513,-9.6685,-9.6276,-9.5299,-9.3517,-8.4591,-8.1055,-8.1303,-8.0004,-8.0149,-8.152,-8.1773,-8.1767,-8.1965,-8.2064,-8.2445,-8.2953,-8.3835,-8.4657,-8.5524,-8.6551,-8.7088,-8.6975,-8.7122,-8.717,-8.717,-8.717,-8.717,-8.717,-8.7024,-8.6862,-8.6975,-8.6829,-8.5568,-8.3085,-7.7949,-7.2821,-6.7716,-6.6945,-6.5683,-6.3787,-6.3592,-6.1318,-5.6985,-5.8366,-5.7358,-5.3189,-5.4347,-5.3368,-4.9751,-4.9403,-4.9576,-4.9968,-4.9366,-4.8188,0.0,-4.5904,0.0,0.0,0.0,0.0,0.0,0.0,0.0,0.0,-4.4228,-4.3312,-3.7975,-4.4286,-4.6849,-4.2603,-4.6073,-4.8555,-4.8347,-4.8636,-4.8602,-4.7958,-4.663,-4.5686,-4.5205,-4.3881,-4.2947,-4.3261,-4.3328,-4.3443,-4.3559,-4.3124,-4.2292,-4.1615,-4.1304,-4.108,-4.1387,-3.8954,-3.6262,-3.3768,-3.1828,-3.0222,-2.8609,-2.7124,-2.5416,-2.4048,-2.3814,-2.3579,-2.3227,-2.2961,-2.2977,-2.3009,-2.1435,-2.0376,-1.9746,-1.8202,-1.5826,-1.2743,-1.1638,-1.1605,-9.0255,-9.002,-8.9818,-8.8387,-8.5874,-7.9655,-7.7422,-7.8015,-7.6681,-7.6437,-7.7222,-7.7811,-7.8792,-7.9871,-7.9817,-8.0253,-8.107,-8.1558,-8.2046,-8.2534,-8.3608,-8.4388,-8.4974,-8.556,-8.6146,-8.6731,-8.6731,-8.6438,-8.5741,-8.3945,-8.27,-8.2127,-8.0402,-7.7021,-7.2359,-7.1784,-6.994,-6.6452,-6.6361,-6.4943,-6.2237,-6.002,-5.7651,-5.4964,-5.4988,-5.3663,-5.054,-5.0855,-4.9856,-4.7182,-4.6544,-4.6795,-4.7734,-4.2886,-4.0779,0.0,0.0,0.0,0.0,0.0,0.0,0.0,0.0,0.0,0.0,0.0,-3.5589,-3.5357,-3.9884,-4.0948,-3.6513,-3.9232,-4.1446,-4.1817,-4.0687,-4.0998,-4.3471,-4.2131,-4.1511,-4.2562,-4.2143,-4.1643,-4.1643,-4.1899,-4.2069,-4.2069,-4.0305,-3.8729,-3.7878,-3.7371,-3.7102,-3.7102,-3.5382,-3.3517,-3.2378,-3.0567,-2.8282,-2.5131,-2.3748,-2.2359,-2.0141,-1.9664,-1.9541,-1.9527,-1.952,-1.9423,-1.9423,-1.872,-1.7798,-1.6402,-1.3261,-0.9958,-0.7897,-0.6848,-0.616,-8.551,-8.4129,-8.2646,-8.0541,-7.7965,-7.575,-7.5065,-7.5353,-7.4038,-7.3651,-7.3944,-7.4773,-7.5457,-7.6042,-7.5554,-7.6335,-7.8043,-7.8186,-7.8868,-7.9892,-8.0826,-8.1753,-8.2827,-8.3608,-8.4108,-8.4344,-8.415,-8.3494,-8.2364,-7.9616,-7.7446,-7.5573,-7.1445,-6.667,-6.1876,-6.4859,-6.6058,-6.5097,-6.4603,-6.3021,-6.005,-5.5977,-5.3356,-5.2255,-5.1333,-4.9718,-4.7239,-4.662,-4.5484,-4.3405,-4.2219,-4.2358,-4.3789,-3.6261,0.0,0.0,0.0,0.0,0.0,0.0,0.0,0.0,0.0,-2.6692,-2.2345,0.0,-2.842,0.0,-3.4381,-3.4593,-3.155,-3.291,0.0,0.0,-3.2789,-3.3132,-3.6836,-3.6484,-3.6771,-3.8966,-3.9602,-3.9823,-3.9961,-3.9961,-3.9989,-3.985,-3.6989,-3.4921,-3.4756,-3.401,-3.3427,-3.3313,-3.2057,-3.1005,-3.0775,-2.9105,-2.6129,-2.1996,-2.1284,-2.0369,-1.7583,-1.6704,-1.6459,-1.6447,-1.6181,-1.585,-1.5963,-1.5499,-1.4305,-1.1407,-0.7379,-0.4151,-0.4151,-0.3252,-0.2357,-8.0744,-8.1084,-7.5599,-7.2659,-7.1591,-7.228,-7.2622,-7.2622,-7.2431,-7.2967,-7.3846,-7.3992,-7.1894,-6.8282,-6.633,0.0,-7.1596,-7.2479,-7.5066,-7.8873,-7.8971,-7.9605,-8.0477,-8.0574,-7.9674,-7.7705,-7.6977,-7.5866,-7.4588,-7.3466,-7.1136,-6.7631,-6.0564,-5.6783,-5.6263,-5.6587,-5.8306,-6.1322,-5.9963,-5.8437,-5.7049,-5.2491,-4.8907,-4.6585,-4.6473,-4.4518,-4.0448,-4.0225,-3.8887,-3.5976,-3.3869,-3.3318,-3.4356,0.0,0.0,0.0,0.0,0.0,0.0,0.0,0.0,0.0,0.0,0.0,0.0,0.0,0.0,0.0,-2.7171,0.0,-2.8699,-2.9391,0.0,0.0,0.0,-2.82,-2.9093,-3.0501,-3.2001,-3.3509,0.0,0.0,-3.6149,-3.6199,-3.6199,-3.6199,-3.3996,-3.272,-3.3722,-3.2766,-3.2263,-3.199,-2.9606,-2.7781,-2.7473,-2.4995,-2.2083,-1.9941,-1.9517,-1.8528,-1.6726,-1.5533,-1.5047,-1.4686,-1.412,-1.3412,-1.3431,-1.168,-0.9177,-0.4114,-0.2536,-0.2028,-0.1709,-0.1497,-0.1181,-7.3592,-7.0746,-6.7002,-6.5988,-6.6758,-6.5207,-6.6037,-6.8339,-6.7127,-6.6379,-6.5833,-6.5343,-6.3097,-5.9509,-6.0158,0.0,0.0,0.0,-6.8771,-7.1151,-7.1673,-7.2599,-7.3645,-7.3738,-7.3496,-7.3312,-7.2946,-7.2205,-7.1075,-6.9297,-6.2942,-5.2437,0.0,0.0,-4.8562,-5.2169,-5.5046,-5.6926,-5.6323,-5.5075,-5.3496,-5.0497,-4.7414,-4.4266,-4.2341,-4.0435,-3.8477,-3.7355,-3.5352,-3.2405,-3.1641,-3.0577,0.0,0.0,0.0,0.0,0.0,0.0,0.0,0.0,0.0,0.0,0.0,-1.6566,-1.4312,0.0,0.0,0.0,-1.9404,-1.9362,-2.0758,-2.4017,0.0,0.0,0.0,0.0,0.0,0.0,0.0,-3.0262,-3.1712,-3.2869,-3.3858,-2.9871,-2.6587,-2.6144,-2.6293,-2.6534,-2.6867,0.0,-2.7049,-2.7049,-2.4452,-2.2522,-2.2392,-2.022,-1.8296,-1.7806,-1.5353,-1.2856,-1.0937,-0.8737,-0.7297,-0.7176,-0.6799,-0.6412,-0.6558,-0.4729,-0.2129,0.1142,0.2802,0.3958,0.5303,0.5307,0.5095,-6.4404,0.0,0.0,0.0,0.0,-5.8866,-5.9534,-6.2049,-6.051,-5.8981,-5.7553,-5.7271,0.0,0.0,0.0,0.0,0.0,0.0,-6.2983,-6.4666,-6.6424,-6.7768,-6.8875,-6.8875,-6.8925,-6.9073,-6.8807,-6.7566,-6.5314,-6.1738,-5.3748,-4.1887,0.0,0.0,0.0,0.0,-5.1028,-5.272,-5.2716,-5.1872,-5.0217,-4.8029,-4.5484,-4.2548,-3.985,-3.7576,-3.5477,-3.3727,-3.1277,-2.7984,-2.69,0.0,0.0,0.0,0.0,0.0,0.0,0.0,0.0,0.0,0.0,0.0,0.0,0.0,0.0,0.0,0.0,0.0,0.0,0.0,-1.478,-1.8618,-2.0481,0.0,0.0,0.0,0.0,0.0,0.0,0.0,0.0,0.0,-2.809,-2.3274,-1.9831,0.0,0.0,-2.0969,-2.1266,-2.1439,-2.1628,-2.1518,-1.9684,0.0,0.0,-1.6745,-1.5611,-1.5413,-1.1915,-0.8265,-0.5443,-0.2584,-0.0851,-0.1257,-0.063,0.0312,0.1412,0.3088,0.4559,0.6013,0.7317,0.884,1.0284,1.0639,1.0523,0.0,0.0,0.0,0.0,0.0,0.0,0.0,0.0,-5.2944,-5.1832,0.0,-5.1035,0.0,0.0,0.0,0.0,0.0,-5.402,0.0,0.0,-6.4295,-6.6655,-6.7416,-6.7461,-6.6479,-6.4511,-6.3444,-6.0659,-5.5793,-4.9225,0.0,0.0,0.0,0.0,0.0,0.0,-4.4843,-4.8731,-4.9088,-4.8595,-4.7301,-4.461,-4.2577,-4.1216,-3.9429,-3.5921,-3.0527,-2.8619,-2.5706,-2.162,-1.7859,0.0,0.0,0.0,0.0,0.0,0.0,0.0,0.0,0.0,0.0,0.0,0.0,0.0,0.0,0.0,0.0,0.0,0.0,0.0,0.0,-1.3477,0.0,0.0,0.0,0.0,0.0,0.0,0.0,0.0,0.0,0.0,-1.7092,-1.6985,-1.7877,-1.9795,0.0,0.0,0.0,0.0,-1.6477,-1.6435,-1.5949,-1.5526,-1.539,-1.5202,-1.4356,-1.2472,0.0,0.0,-0.1638,0.1096,0.2328,0.1251,0.2889,0.5751,0.9917,1.0341,1.0526,1.0506,1.0635,1.1112,1.1529,1.2058,1.2468,0.0,0.0,0.0,0.0,0.0,0.0,0.0,0.0,0.0,-4.3402,0.0,-4.1876,0.0,0.0,0.0,0.0,0.0,0.0,0.0,0.0,-5.4054,-5.5261,-5.4619,-5.6385,-5.5839,0.0,-5.2633,-4.9736,0.0,0.0,0.0,0.0,0.0,0.0,0.0,0.0,-4.1773,-4.3401,-4.5285,-4.5096,-4.2731,-4.0937,-3.929,-3.7691,-3.7015,-3.3913,-2.8082,-2.5714,-2.2592,0.0,0.0,0.0,0.0,0.0,0.0,0.0,0.0,0.0,0.0,0.0,0.0,0.0,0.0,0.0,0.0,0.0,0.0,0.0,0.0,0.0,0.0,0.0,-0.9955,0.0,0.0,0.0,0.0,0.0,0.0,0.0,0.0,0.0,-1.0172,-1.0394,-1.1366,-1.2843,-1.3312,-1.3755,-1.4467,0.0,0.0,0.0,0.0,0.0,0.0,0.0,-0.6297,-0.5862,-0.4288,-0.2089,0.1052,0.4872,0.7431,0.7091,0.0,0.0,0.9253,0.9152,0.9533,1.0749,1.1663,1.25,1.3515,1.3209,1.2657,0.0,0.0,0.0,0.0,0.0,0.0,0.0,0.0,0.0,-3.5127,-3.3765,0.0,0.0,0.0,0.0,0.0,0.0,0.0,0.0,0.0,0.0,0.0,-4.5686,-4.7926,0.0,0.0,0.0,0.0,0.0,0.0,0.0,0.0,0.0,0.0,0.0,0.0,-3.867,-3.9702,-4.2023,-4.2239,-4.0324,-3.8452,-3.6789,-3.5155,-3.4444,-3.1673,-2.6618,0.0,0.0,0.0,0.0,0.0,0.0,0.0,0.0,0.0,0.0,0.0,0.0,0.0,0.0,0.0,0.0,0.0,0.0,0.0,0.0,0.0,0.0,0.0,0.0,0.0,-0.6344,0.0,0.0,0.0,0.0,0.0,0.0,0.0,0.0,0.0,0.0,0.0,-0.649,-0.7306,-0.8507,-0.9276,-0.9433,-0.9127,-0.8727,0.0,0.0,0.0,0.0,0.0,0.0,0.0,0.0,0.0,0.0,0.0,0.0,0.0,0.0,1.2052,1.0062,0.9652,1.0171,1.1758,0.0,0.0,0.0,0.0,0.0,0.0,0.0,0.0,0.0,0.0,0.0,0.0,0.0,0.0,0.0,0.0,0.0,0.0,-2.55,0.0,0.0,0.0,0.0,0.0,0.0,0.0,0.0,0.0,0.0,0.0,0.0,0.0,0.0,0.0,0.0,0.0,0.0,0.0,0.0,0.0,0.0,-3.5456,-3.7581,-3.9402,-4.0213,-3.9851,-3.7189,-3.4928,-3.3517,-3.1726,-2.9006,-2.5644,0.0,0.0,0.0,0.0,0.0,0.0,0.0,0.0,0.0,0.0,0.0,0.0,0.0,0.0,0.0,0.0,0.0,0.0,0.0,0.0,0.0,0.0,0.0,0.0,0.0,0.0,-0.3491,-0.297,-0.2897,0.0,0.0,0.0,0.0,0.0,0.0,0.0,0.0,0.0,0.0,-0.369,-0.3704,-0.3667,-0.2942,-0.2472,-0.2393,-0.0092,0.1766,0.1786,0.3159,0.456,0.0,0.0,0.0,0.0,0.0,0.0,0.0,0.0,0.0,0.0,0.0,0.0,0.0,0.0,0.0,0.0,0.0,0.0,0.0,0.0,0.0,0.0,0.0,0.0,0.0,0.0,0.0,0.0,0.0,0.0,0.0,0.0,0.0,0.0,0.0,0.0,0.0,0.0,0.0,0.0,0.0,0.0,0.0,0.0,0.0,0.0,0.0,0.0,0.0,0.0,0.0,0.0,0.0,0.0,-3.3366,-3.374,-3.8049,-3.8174,-3.3906,-3.3016,-3.1147,-2.8534,-2.7553,-2.5769,0.0,0.0,0.0,0.0,0.0,0.0,0.0,0.0,0.0,0.0,0.0,0.0,0.0,0.0,0.0,0.0,0.0,0.0,0.0,0.0,0.0,0.0,0.0,0.0,0.0,0.0,0.0,0.0,-0.2203,-0.2902,-0.2837,0.0,0.0,0.0,0.0,0.0,0.0,0.0,0.0,0.0,0.0,-0.1152,-0.0662,0.0751,0.1946,0.2604,0.5458,0.7778,0.8417,0.868,0.8918,0.9254,0.0,0.0,0.0,0.0,0.0,0.0,0.0,0.0,0.0,0.0,0.0,0.0,0.0,0.0,0.0,0.0,0.0,0.0,0.0,0.0,0.0,0.0,0.0,0.0,0.0,0.0,0.0,0.0,0.0,0.0,0.0,0.0,0.0,0.0,0.0,0.0,0.0,0.0,0.0,0.0,0.0,0.0,0.0,0.0,0.0,0.0,0.0,0.0,0.0,0.0,0.0,0.0,0.0,-3.0768,-3.1864,-3.4774,-3.4411,-3.0758,-2.9535,-2.7695,-2.519,-2.4525,-2.2507,0.0,0.0,0.0,0.0,0.0,0.0,0.0,0.0,0.0,0.0,0.0,0.0,0.0,0.0,0.0,0.0,0.0,0.0,0.0,0.0,0.0,0.0,0.0,0.0,0.0,0.0,0.0,0.0,-0.0209,-0.0707,-0.027,0.0,0.0,0.0,0.0,0.0,0.0,0.0,0.0,0.0,0.0,0.307,0.3827,0.5072,0.0,0.0,0.9233,1.1193,1.1854,1.2596,1.2885,1.1996,1.253,0.0,0.0,0.0,0.0,0.0,0.0,0.0,0.0,0.0,0.0,0.0,0.0,0.0,0.0,0.0,0.0,0.0,0.0,0.0,0.0,0.0,0.0,0.0,0.0,0.0,0.0,0.0,0.0,0.0,0.0,0.0,0.0,0.0,0.0,0.0,0.0,0.0,0.0,0.0,0.0,0.0,0.0,0.0,0.0,0.0,0.0,0.0,0.0,0.0,0.0,0.0,0.0,-2.7897,-3.0829,-3.0298,-2.9913,-2.9563,-2.6828,-2.472,-2.3554,-2.2495,-1.9461,0.0,0.0,0.0,0.0,0.0,0.0,0.0,0.0,0.0,0.0,0.0,0.0,0.0,0.0,0.0,0.0,0.0,0.0,0.0,0.0,0.0,0.0,0.0,0.0,0.0,0.0,0.0,0.0,0.0,0.0,0.0,0.0,0.0,0.0,0.0,0.0,0.0,0.0,0.0,0.0,0.0,0.8347,0.9006,0.952,0.9852,0.0,0.0,1.2669,1.3041,1.5012,1.583,1.3868,0.0,0.0,0.0,0.0,0.0,0.0,0.0,0.0,0.0,0.0,0.0,0.0,0.0,0.0,0.0,0.0,0.0,0.0,0.0,0.0,0.0,0.0,0.0,0.0,0.0,0.0,0.0,0.0,0.0,0.0,0.0,0.0,0.0,0.0,0.0,0.0,0.0,0.0,0.0,0.0,0.0,0.0,0.0,0.0,0.0,0.0,0.0,0.0,0.0,0.0,0.0,0.0,0.0,0.0,-2.6315,-2.8651,-2.8794,-2.6606,-2.4942,-2.3486,-2.1989,-2.0044,0.0,0.0,0.0,0.0,0.0,0.0,0.0,0.0,0.0,0.0,0.0,0.0,0.0,0.0,0.0,0.0,0.0,0.0,0.0,0.0,0.0,0.0,0.0,0.0,0.0,0.0,0.0,0.3282,0.0,0.0,0.0,0.0,0.0,0.0,0.0,0.0,0.0,0.0,0.0,0.0,0.0,0.0,1.0062,1.0981,1.09,1.0943,0.0,0.0,1.4214,1.5154,1.5143,1.4859,0.0,0.0,0.0,0.0,0.0,0.0,0.0,0.0,0.0,0.0,0.0,0.0,0.0,0.0,0.0,0.0,0.0,0.0,0.0,0.0,0.0,0.0,0.0,0.0,0.0,0.0,0.0,0.0,0.0,0.0,0.0,0.0,0.0,0.0,0.0,0.0,0.0,0.0,0.0,0.0,0.0,0.0,0.0,0.0,0.0,0.0,0.0,0.0,0.0,0.0,0.0,0.0,0.0,0.0,-2.2013,-2.3437,-2.5132,-2.5438,-2.4183,-2.3001,-2.1979,-2.0886,-1.8592,-1.6021,0.0,0.0,0.0,0.0,0.0,0.0,0.0,0.0,0.0,0.0,0.0,0.0,0.0,0.0,0.0,0.0,0.0,0.0,0.0,0.0,0.0,0.0,0.0,0.0,0.0,0.0,0.0,0.0,0.0,0.0,0.0,0.0,0.0,0.0,0.0,0.0,0.0,0.0,0.0,0.0,0.0,0.0,1.2663,1.2224,0.0,0.0,0.0,1.3791,1.4804,0.0,0.0,0.0,0.0,0.0,0.0,0.0,0.0,0.0,0.0,0.0,0.0,0.0,0.0,0.0,0.0,0.0,0.0,0.0,0.0,0.0,0.0,0.0,0.0,0.0,0.0,0.0,0.0,0.0,0.0,0.0,0.0,0.0,0.0,0.0,0.0,0.0,0.0,0.0,0.0,0.0,0.0,0.0,0.0,0.0,0.0,0.0,0.0,0.0,0.0,0.0,0.0,0.0,0.0,0.0,0.0,0.0,-2.1538,-2.1151,-2.1404,-2.2361,-2.1334,-2.0555,-2.0119,-1.776,-1.5206,0.0,0.0,0.0,0.0,0.0,0.0,0.0,0.0,0.0,0.0,0.0,0.0,0.0,0.0,0.0,0.0,0.0,0.0,0.0,0.0,0.0,0.0,0.0,0.0,0.0,0.0,0.0,0.0,0.0,0.0,0.0,0.0,0.0,0.0,0.0,0.0,0.0,0.0,0.0,0.0,0.0,1.3344,1.3722,1.3079,1.2585,0.0,0.0,1.2401,1.3255,1.3498,0.0,0.0,0.0,0.0,0.0,0.0,0.0,0.0,0.0,0.0,0.0,0.0,0.0,0.0,0.0,0.0,0.0,0.0,0.0,0.0,0.0,0.0,0.0,0.0,0.0,0.0,0.0,0.0,0.0,0.0,0.0,0.0,0.0,0.0,0.0,0.0,0.0,0.0,0.0,0.0,0.0,0.0,0.0,0.0,0.0,0.0,0.0,0.0,0.0,0.0,0.0,0.0,0.0,0.0,0.0,0.0,-1.8613,-2.068,-2.1708,-2.159,-2.0758,-2.0207,-1.986,-1.6631,-1.4105,0.0,0.0,0.0,0.0,0.0,0.0,0.0,0.0,0.0,0.0,0.0,0.0,0.0,0.0,0.0,0.0,0.0,0.0,0.0,0.0,0.0,0.0,0.0,0.0,0.0,0.0,0.0,0.0,0.0,0.0,0.0,0.0,0.0,0.0,0.0,0.0,0.0,0.0,0.0,0.0,0.0,1.2191,1.2537,1.2173,0.0,0.0,0.0,0.0,1.3044,1.2019,0.0,0.0,0.0,0.0,0.0,0.0,0.0,0.0,0.0,0.0,0.0,0.0,0.0,0.0,0.0,0.0,0.0,0.0,0.0,0.0,0.0,0.0,0.0,0.0,0.0,0.0,0.0,0.0,0.0,0.0,0.0,0.0,0.0,0.0,0.0,0.0,0.0,0.0,0.0,0.0,0.0,0.0,0.0,0.0,0.0,0.0,0.0,0.0,0.0,0.0,0.0,0.0,0.0,0.0,0.0,0.0,-1.8475,-1.9255,-1.9641,-1.9516,-1.9104,-1.8416,-1.7276,-1.5315,-1.3275,0.0,0.0,0.0,0.0,0.0,0.0,0.0,0.0,0.0,0.0,0.0,0.0,0.0,0.0,0.0,0.0,0.0,0.0,0.0,0.0,0.0,0.0,0.0,0.0,0.0,0.0,0.0,0.0,0.0,0.0,0.0,0.0,0.0,0.0,0.0,0.0,0.0,0.0,0.0,0.0,1.1277,1.1887,1.2344,0.0,0.0,0.0,0.0,0.0,0.0,1.1036,1.028,0.0,0.0,0.0,0.0,0.0,0.0,0.0,0.0,0.0,0.0,0.0,0.0,0.0,0.0,0.0,0.0,0.0,0.0,0.0,0.0,0.0,0.0,0.0,0.0,0.0,0.0,0.0,0.0,0.0,0.0,0.0,0.0,0.0,0.0,0.0,0.0,0.0,0.0,0.0,0.0,0.0,0.0,0.0,0.0,0.0,0.0,0.0,0.0,0.0,0.0,0.0,0.0,0.0,0.0,0.0,-1.859,-1.7444,-1.6891,-1.7304,-1.7099,-1.6157,-1.4583,-1.3838,-1.2161,-0.9304,0.0,0.0,0.0,0.0,0.0,0.0,0.0,0.0,0.0,0.0,0.0,0.0,0.0,0.0,0.0,0.0,0.0,0.0,0.0,0.0,0.0,0.0,0.0,0.0,0.0,0.0,0.0,0.0,0.0,0.0,0.0,0.0,0.0,0.0,0.0,0.0,0.0,0.0,0.0,1.1009,1.1644,0.0,0.0,0.0,0.0,0.0,0.0,0.0,0.0,1.0069,0.0,0.0,0.0,0.0,0.0,0.0,0.0,0.0,0.0,0.0,0.0,0.0,0.0,0.0,0.0,0.0,0.0,0.0,0.0,0.0,0.0,0.0,0.0,0.0,0.0,0.0,0.0,0.0,0.0,0.0,0.0,0.0,0.0,0.0,0.0,0.0,0.0,0.0,0.0,0.0,0.0,0.0,0.0,0.0,0.0,0.0,0.0,0.0,0.0,0.0,0.0,0.0,0.0,0.0,0.0,0.0,-1.5245,-1.5603,-1.6397,-1.5486,-1.4781,-1.4123,-1.229,-1.0055,-0.736,0.0,0.0,0.0,0.0,0.0,0.0,0.0,0.0,0.0,0.0,0.0,0.0,0.0,0.0,0.0,0.0,0.0,0.0,0.0,0.0,0.0,0.0,0.0,0.0,0.0,0.0,0.0,0.0,0.0,0.0,0.0,0.0,0.0,0.0,0.0,0.0,0.0,0.0,0.8157,0.9565,0.0,0.0,0.0,0.0,0.0,0.0,0.0,0.0,1.0304,0.0,0.0,0.0,0.0,0.0,0.0,0.0,0.0,0.0,0.0,0.0,0.0,0.0,0.0,0.0,0.0,0.0,0.0,0.0,0.0,0.0,0.0,0.0,0.0,0.0,0.0,0.0,0.0,0.0,0.0,0.0,0.0,0.0,0.0,0.0,0.0,0.0,0.0,0.0,0.0,0.0,0.0,0.0,0.0,0.0,0.0,0.0,0.0,0.0,0.0,0.0,0.0,0.0,0.0,0.0,0.0,0.0,0.0,-1.4155,-1.4778,-1.3584,-1.2449,-1.1441,-0.9892,-0.878,0.0,0.0,0.0,0.0,0.0,0.0,0.0,0.0,0.0,0.0,0.0,0.0,0.0,0.0,0.0,0.0,0.0,0.0,0.0,0.0,0.0,0.0,0.0,0.0,0.0,0.0,0.0,0.0,0.0,0.0,0.0,0.0,0.0,0.0,0.0,0.0,0.0,0.0,0.0,0.0,0.0,0.0,0.0,0.0,0.0,0.0,0.0,0.0,0.0,0.0,0.0,0.0,0.0,0.0,0.0,0.0,0.0,0.0,0.0,0.0,0.0,0.0,0.0,0.0,0.0,0.0,0.0,0.0,0.0,0.0,0.0,0.0,0.0,0.0,0.0,0.0,0.0,0.0,0.0,0.0,0.0,0.0,0.0,0.0,0.0,0.0,0.0,0.0,0.0,0.0,0.0,0.0,0.0,0.0,0.0,0.0,0.0,0.0,0.0,0.0,0.0,0.0,0.0,0.0,0.0,0.0,0.0,0.0,-1.2718,-1.3075,-1.1714,-1.0501,-0.9559,-0.8239,-0.7781,0.0,0.0,0.0,0.0,0.0,0.0,0.0,0.0,0.0,0.0,0.0,0.0,0.0,0.0,0.0,0.0,0.0,0.0,0.0,0.0,0.0,0.0,0.0,0.0,0.0,0.0,0.0,0.0,0.0,0.0,0.0,0.0,0.0,0.0,0.0,0.0,0.0,0.0,0.0,0.0,0.0,0.0,0.0,0.0,0.0,0.0,0.0,0.0,0.9886,0.0,0.0,0.0,0.0,0.0,0.0,0.0,0.0,0.0,0.0,0.0,0.0,0.0,0.0,0.0,0.0,0.0,0.0,0.0,0.0,0.0,0.0,0.0,0.0,0.0,0.0,0.0,0.0,0.0,0.0,0.0,0.0,0.0,0.0,0.0,0.0,0.0,0.0,0.0,0.0,0.0,0.0,0.0,0.0,0.0,0.0,0.0,0.0,0.0,0.0,0.0,0.0,0.0,0.0,0.0,0.0,0.0,0.0,0.0,-1.1109,-1.1458,-1.0014,-0.9653,-1.0621,-0.8544,-0.7097,0.0,0.0,0.0,0.0,0.0,0.0,0.0,0.0,0.0,0.0,0.0,0.0,0.0,0.0,0.0,0.0,0.0,0.0,0.0,0.0,0.0,0.0,0.0,0.0,0.0,0.0,0.0,0.0,0.0,0.0,0.0,0.0,0.0,0.0,0.0,0.0,0.0,0.0,0.0,0.0,0.0,0.0,0.0,0.0,0.0,0.0,0.0,0.0,0.0,0.0,0.0,0.0,0.0,0.0,0.0,0.0,0.0,0.0,0.0,0.0,0.0,0.0,0.0,0.0,0.0,0.0,0.0,0.0,0.0,0.0,0.0,0.0,0.0,0.0,0.0,0.0,0.0,0.0,0.0,0.0,0.0,0.0,0.0,0.0,0.0,0.0,0.0,0.0,0.0,0.0,0.0,0.0,0.0,0.0,0.0,0.0,0.0,0.0,0.0,0.0,0.0,0.0,0.0,0.0,0.0,0.0,0.0,0.0,-0.9762,-1.0478,-0.9372,-0.9211,-1.0327,-0.7932,-0.6813,0.0,0.0,0.0,0.0,0.0,0.0,0.0,0.0,0.0,0.0,0.0,0.0,0.0,0.0,0.0,0.0,0.0,0.0,0.0,0.0,0.0,0.0,0.0,0.0,0.0,0.0,0.0,0.0,0.0,0.0,0.0,0.0,0.0,0.0,0.0,0.0,0.0,0.0,0.0,0.0,0.0,0.0,0.0,0.0,0.0,0.0,0.0,0.0,0.0,0.0,0.0,0.0,0.0,0.0,0.0,0.0,0.0,0.0,0.0,0.0,0.0,0.0,0.0,0.0,0.0,0.0,0.0,0.0,0.0,0.0,0.0,0.0,0.0,0.0,0.0,0.0,0.0,0.0,0.0,0.0,0.0,0.0,0.0,0.0,0.0,0.0,0.0,0.0,0.0,0.0,0.0,0.0,0.0,0.0,0.0,0.0,0.0,0.0,0.0,0.0,0.0,0.0,0.0,0.0,0.0,0.0,0.0,0.0,0.0,-0.9111,-0.865,-0.8566,-0.9054,-0.7324,-0.6544,0.0,0.0,0.0,0.0,0.0,0.0,0.0,0.0,0.0,0.0,0.0,0.0,0.0,0.0,0.0,0.0,0.0,0.0,0.0,0.0,0.0,0.0,0.0,0.0,0.0,0.0,0.0,0.0,0.0,0.0,0.0,0.0,0.0,0.0,0.0,0.0,0.0,0.0,0.0,0.0,0.0,0.0,0.0,0.0,0.0,0.0,0.0,0.0,0.0,0.0,0.0,0.0,0.0,0.0,0.0,0.0,0.0,0.0,0.0,0.0,0.0,0.0,0.0,0.0,0.0,0.0,0.0,0.0,0.0,0.0,0.0,0.0,0.0,0.0,0.0,0.0,0.0,0.0,0.0,0.0,0.0,0.0,0.0,0.0,0.0,0.0,0.0,0.0,0.0,0.0,0.0,0.0,0.0,0.0,0.0,0.0,0.0,0.0,0.0,0.0,0.0,0.0,0.0,0.0,0.0,0.0,0.0,0.0,0.0,-0.7161,-0.7612,-0.7556,-0.7024,-0.6725,-0.6027,0.0,0.0,0.0,0.0,0.0,0.0,0.0,0.0,0.0,0.0,0.0,0.0,0.0,0.0,0.0,0.0,0.0,0.0,0.0,0.0,0.0,0.0,0.0,0.0,0.0,0.0,0.0,0.0,0.0,0.0,0.0,0.0,0.0,0.0,0.0,0.0,0.0,0.0,0.0,0.0,0.0,0.0,0.0,0.0,0.0,0.0,0.0,0.0,0.0,0.0,0.0,0.0,0.0,0.0,0.0,0.0,0.0,0.0,0.0,0.0,0.0,0.0,0.0,0.0,0.0,0.0,0.0,0.0,0.0,0.0,0.0,0.0,0.0,0.0,0.0,0.0,0.0,0.0,0.0,0.0,0.0,0.0,0.0,0.0,0.0,0.0,0.0,0.0,0.0,0.0,0.0,0.0,0.0,0.0,0.0,0.0,0.0,0.0,0.0,0.0,0.0,0.0,0.0,0.0,0.0,0.0,0.0,0.0,0.0,-0.5517,-0.6135,-0.6508,-0.6469,-0.5979,-0.5527,-0.5052,0.0,0.0,0.0,0.0,0.0,0.0,0.0,0.0,0.0,0.0,0.0,0.0,0.0,0.0,0.0,0.0,0.0,0.0,0.0,0.0,0.0,0.0,0.0,0.0,0.0,0.0,0.0,0.0,0.0,0.0,0.0,0.0,0.0,0.0,0.0,0.0,0.0,0.0,0.0,0.0,0.0,0.0,0.0,0.0,0.0,0.0,0.0,0.0,0.0,0.0,0.0,0.0,0.0,0.0,0.0,0.0,0.0,0.0,0.0,0.0,0.0,0.0,0.0,0.0,0.0,0.0,0.0,0.0,0.0,0.0,0.0,0.0,0.0,0.0,0.0,0.0,0.0,0.0,0.0,0.0,0.0,0.0,0.0,0.0,0.0,0.0,0.0,0.0,0.0,0.0,0.0,0.0,0.0,0.0,0.0,0.0,0.0,0.0,0.0,0.0,0.0,0.0,0.0,0.0,0.0,0.0,0.0,0.0,-0.4699,-0.5541,-0.5982,-0.6158,-0.6018,-0.5548,0.0,0.0,0.0,0.0,0.0,0.0,0.0,0.0,0.0,0.0,0.0,0.0,0.0,0.0,0.0,0.0,0.0,0.0,0.0,0.0,0.0,0.0,0.0,0.0,0.0,0.0,0.0,0.0,0.0,0.0,0.0,0.0,0.0,0.0,0.0,0.0,0.0,0.0,0.0,0.0,0.0,0.0,0.0,0.0,0.0,0.0,0.0,0.0,0.0,0.0,0.0,0.0,0.0,0.0,0.0,0.0,0.0,0.0,0.0,0.0,0.0,0.0,0.0,0.0,0.0,0.0,0.0,0.0,0.0,0.0,0.0,0.0,0.0,0.0,0.0,0.0,0.0,0.0,0.0,0.0,0.0,0.0,0.0,0.0,0.0,0.0,0.0,0.0,0.0,0.0,0.0,0.0,0.0,0.0,0.0,0.0,0.0,0.0,0.0,0.0,0.0,0.0,0.0,0.0,0.0,0.0,0.0,0.0,-0.3482,-0.5151,-0.5789,-0.6064,-0.6026,-0.6815,-0.6207,0.0,0.0,0.0,0.0,0.0,0.0,0.0,0.0,0.0,0.0,0.0,0.0,0.0,0.0,0.0,0.0,0.0,0.0,0.0,0.0,0.0,0.0,0.0,0.0,0.0,0.0,0.0,0.0,0.0,0.0,0.0,0.0,0.0,0.0,0.0,0.0,0.0,0.0,0.0,0.0,0.0,0.0,0.0,0.0,0.0,0.0,0.0,0.0,0.0,0.0,0.0,0.0,0.0,0.0,0.0,0.0,0.0,0.0,0.0,0.0,0.0,0.0,0.0,0.0,0.0,0.0,0.0,0.0,0.0,0.0,0.0,0.0,0.0,0.0,0.0,0.0,0.0,0.0,0.0,0.0,0.0,0.0,0.0,0.0,0.0,0.0,0.0,0.0,0.0,0.0,0.0,0.0,0.0,0.0,0.0,0.0,0.0,0.0,0.0,0.0,0.0,0.0,0.0,0.0,0.0,0.0,0.0,0.0,0.0,-0.3421,0.0,-0.5201,0.0,-0.6076,-0.5728,0.0,0.0,0.0,0.0,0.0,0.0,0.0,0.0,0.0,0.0,0.0,0.0,0.0,0.0,0.0,0.0,0.0,0.0,0.0,0.0,0.0,0.0,0.0,0.0,0.0,0.0,0.0,0.0,0.0,0.0,0.0,0.0,0.0,0.0,0.0,0.0,0.0,0.0,0.0,0.0,0.0,0.0,0.0,0.0,0.0,0.0,0.0,0.0,0.0,0.0,0.0,0.0,0.0,0.0,0.0,0.0,0.0,0.0,0.0,0.0,0.0,0.0,0.0,0.0,0.0,0.0,0.0,0.0,0.0,0.0,0.0,0.0,0.0,0.0,0.0,0.0,0.0,0.0,0.0,0.0,0.0,0.0,0.0,0.0,0.0,0.0,0.0,0.0,0.0,0.0,0.0,0.0,0.0,0.0,0.0,0.0,0.0,0.0,0.0,0.0,0.0,0.0,0.0,0.0,0.0,0.0,0.0,0.0,0.0,-0.3511,-0.4057,-0.487,-0.5927,-0.5985,-0.582,0.0,0.0,0.0,0.0,0.0,0.0,0.0,0.0,0.0,0.0,0.0,0.0,0.0,0.0,0.0,0.0,0.0,0.0,0.0,0.0,0.0,0.0,0.0,0.0,0.0,0.0,0.0,0.0,0.0,0.0,0.0,0.0,0.0,0.0,0.0,0.0,0.0,0.0,0.0,0.0,0.0,0.0,0.0,0.0,0.0,0.0,0.0,0.0,0.0,0.0,0.0,0.0,0.0,0.0,0.0,0.0,0.0,0.0,0.0,0.0,0.0,0.0,0.0,0.0,0.0,0.0,0.0,0.0,0.0,0.0,0.0,0.0,0.0,0.0,0.0,0.0,0.0,0.0,0.0,0.0,0.0,0.0,0.0,0.0,0.0,0.0,0.0,0.0,0.0,0.0,0.0,0.0,0.0,0.0,0.0,0.0,0.0,0.0,0.0,0.0,0.0,0.0,0.0,0.0,0.0,0.0,0.0,0.0,0.0,-0.4943,-0.4659,-0.4993,-0.6078,-0.6456,-0.6471,0.0,0.0,0.0,0.0,0.0,0.0,0.0,0.0,0.0,0.0,0.0,0.0,0.0,0.0,0.0,0.0,0.0,0.0,0.0,0.0,0.0,0.0,0.0,0.0,0.0,0.0,0.0,0.0,0.0,0.0,0.0,0.0,0.0,0.0,0.0,0.0,0.0,0.0,0.0,0.0,0.0,0.0,0.0,0.0,0.0,0.0,0.0,0.0,0.0,0.0,0.0,0.0,0.0,0.0,0.0,0.0,0.0,0.0,0.0,0.0,0.0,0.0,0.0,0.0,0.0,0.0,0.0,0.0,0.0,0.0,0.0,0.0,0.0,0.0,0.0,0.0,0.0,0.0,0.0,0.0,0.0,0.0,0.0,0.0,0.0,0.0,0.0,0.0,0.0,0.0,0.0,0.0,0.0,0.0,0.0,0.0,0.0,0.0,0.0,0.0,0.0,0.0,0.0,0.0,0.0,0.0,0.0,0.0,0.0,0.0,-0.3937,-0.4608,-0.5084,-0.6076,-0.6426,-0.606,0.0,0.0,0.0,0.0,0.0,0.0,0.0,0.0,0.0,0.0,0.0,0.0,0.0,0.0,0.0,0.0,0.0,0.0,0.0,0.0,0.0,0.0,0.0,0.0,0.0,0.0,0.0,0.0,0.0,0.0,0.0,0.0,0.0,0.0,0.0,0.0,0.0,0.0,0.0,0.0,0.0,0.0,0.0,0.0,0.0,0.0,0.0,0.0,0.0,0.0,0.0,0.0,0.0,0.0,0.0,0.0,0.0,0.0,0.0,0.0,0.0,0.0,0.0,0.0,0.0,0.0,0.0,0.0,0.0,0.0,0.0,0.0,0.0,0.0,0.0,0.0,0.0,0.0,0.0,0.0,0.0,0.0,0.0,0.0,0.0,0.0,0.0,0.0,0.0,0.0,0.0,0.0,0.0,0.0,0.0,0.0,0.0,0.0,0.0,0.0,0.0,0.0,0.0,0.0,0.0,0.0,0.0,0.0,0.0,0.0,-0.4176,-0.4844,-0.5807,-0.651,0.0,0.0,0.0,0.0,0.0,0.0,0.0,0.0,0.0,0.0,0.0,0.0,0.0,0.0,0.0,0.0,0.0,0.0,0.0,0.0,0.0,0.0,0.0,0.0,0.0,0.0,0.0,0.0,0.0,0.0,0.0,0.0,0.0,0.0,0.0,0.0,0.0,0.0,0.0,0.0,0.0,0.0,0.0,0.0,0.0,0.0,0.0,0.0,0.0,0.0,0.0,0.0,0.0,0.0,0.0,0.0,0.0,0.0,0.0,0.0,0.0,0.0,0.0,0.0,0.0,0.0,0.0,0.0,0.0,0.0,0.0,0.0,0.0,0.0,0.0,0.0,0.0,0.0,0.0,0.0,0.0,0.0,0.0,0.0,0.0,0.0,0.0,0.0,0.0,0.0,0.0,0.0,0.0,0.0,0.0,0.0,0.0,0.0,0.0,0.0,0.0,0.0,0.0,0.0,0.0,0.0,0.0,0.0,0.0,0.0,0.0,-0.3864,-0.4974,-0.5654,0.0,-0.7595,0.0,0.0,0.0,0.0,0.0,0.0,0.0,0.0,0.0,0.0,0.0,0.0,0.0,0.0,0.0,0.0,0.0,0.0,0.0,0.0,0.0,0.0,0.0,0.0,0.0,0.0,0.0,0.0,0.0,0.0,0.0,0.0,0.0,0.0,0.0,0.0,0.0,0.0,0.0,0.0,0.0,0.0,0.0,0.0,0.0,0.0,0.0,0.0,0.0,0.0,0.0,0.0,0.0,0.0,0.0,0.0,0.0,0.0,0.0,0.0,0.0,0.0,0.0,0.0,0.0,0.0,0.0,0.0,0.0,0.0,0.0,0.0,0.0,0.0,0.0,0.0,0.0,0.0,0.0,0.0,0.0,0.0,0.0,0.0,0.0,0.0,0.0,0.0,0.0,0.0,0.0,0.0,0.0,0.0,0.0,0.0,0.0,0.0,0.0,0.0,0.0,0.0,0.0,0.0,0.0,0.0,0.0,0.0,0.0,0.0,0.0,0.0,-0.5386,-0.5975,-0.6162,0.0,0.0,0.0,0.0,0.0,0.0,0.0,0.0,0.0,0.0,0.0,0.0,0.0,0.0,0.0,0.0,0.0,0.0,0.0,0.0,0.0,0.0,0.0,0.0,0.0,0.0,0.0,0.0,0.0,0.0,0.0,0.0,0.0,0.0,0.0,0.0,0.0,0.0,0.0,0.0,0.0,0.0,0.0,0.0,0.0,0.0,0.0,0.0,0.0,0.0,0.0,0.0,0.0,0.0,0.0,0.0,0.0,0.0,0.0,0.0,0.0,0.0,0.0,0.0,0.0,0.0,0.0,0.0,0.0,0.0,0.0,0.0,0.0,0.0,0.0,0.0,0.0,0.0,0.0,0.0,0.0,0.0,0.0,0.0,0.0,0.0,0.0,0.0,0.0,0.0,0.0,0.0,0.0,0.0,0.0,0.0,0.0,0.0,0.0,0.0,0.0,0.0,0.0,0.0,0.0,0.0,0.0,0.0,0.0,0.0,-0.4029,-0.4294,-0.519,-0.5576,-0.5489,0.0,0.0,0.0,0.0,0.0,0.0,0.0,0.0,0.0,0.0,0.0,0.0,0.0,0.0,0.0,0.0,0.0,0.0,0.0,0.0,0.0,0.0,0.0,0.0,0.0,0.0,0.0,0.0,0.0,0.0,0.0,0.0,0.0,0.0,0.0,0.0,0.0,0.0,0.0,0.0,0.0,0.0,0.0,0.0,0.0,0.0,0.0,0.0,0.0,0.0,0.0,0.0,0.0,0.0,0.0,0.0,0.0,0.0,0.0,0.0,0.0,0.0,0.0,0.0,0.0,0.0,0.0,0.0,0.0,0.0,0.0,0.0,0.0,0.0,0.0,0.0,0.0,0.0,0.0,0.0,0.0,0.0,0.0,0.0,0.0,0.0,0.0,0.0,0.0,0.0,0.0,0.0,0.0,0.0,0.0,0.0,0.0,0.0,0.0,0.0,0.0,0.0,0.0,0.0,0.0,0.0,0.0,0.0,0.0,0.0,0.0,0.0,0.0,0.0,-0.56,0.0,0.0,0.0,0.0,0.0,0.0,0.0,0.0,0.0,0.0,0.0,0.0,0.0,0.0,0.0,0.0,0.0,0.0,0.0,0.0,0.0,0.0,0.0,0.0,0.0,0.0,0.0,0.0,0.0,0.0,0.0,0.0,0.0,0.0,0.0,0.0,0.0,0.0,0.0,0.0,0.0,0.0,0.0,0.0,0.0,0.0,0.0,0.0,0.0,0.0,0.0,0.0,0.0,0.0,0.0,0.0,0.0,0.0,0.0,0.0,0.0,0.0,0.0,0.0,0.0,0.0,0.0,0.0,0.0,0.0,0.0,0.0,0.0,0.0,0.0,0.0,0.0,0.0,0.0,0.0,0.0,0.0,0.0,0.0,0.0,0.0,0.0,0.0,0.0,0.0,0.0,0.0,0.0,0.0,0.0,0.0,0.0,0.0,0.0,0.0,0.0,0.0,0.0,0.0,0.0,0.0,0.0,0.0,0.0,0.0,0.0,0.0,0.0,0.0,0.0,0.0,0.0,0.0,0.0,0.0,0.0,0.0,0.0,0.0,0.0,0.0,0.0,0.0,0.0,0.0,0.0,0.0,0.0,0.0,0.0,0.0,0.0,0.0,0.0,0.0,0.0,0.0,0.0,0.0,0.0,0.0,0.0,0.0,0.0,0.0,0.0,0.0,0.0,0.0,0.0,0.0,0.0,0.0,0.0,0.0,0.0,0.0,0.0,0.0,0.0,0.0,0.0,0.0,0.0,0.0,0.0,0.0,0.0,0.0,0.0,0.0,0.0,0.0,0.0,0.0,0.0,0.0,0.0,0.0,0.0,0.0,0.0,0.0,0.0,0.0,0.0,0.0,0.0,0.0,0.0,0.0,0.0,0.0,0.0,0.0,0.0,0.0,0.0,0.0,0.0,0.0,0.0,0.0,0.0,0.0,0.0,0.0,0.0,0.0,0.0,0.0,0.0,0.0,0.0,0.0,0.0,0.0,0.0,0.0,0.0,0.0,0.0,0.0,0.0,0.0,0.0,0.0,0.0,0.0,0.0,0.0,0.0,0.0,0.0,0.0,0.0,0.0,0.0,0.0,0.0,0.0,0.0,0.0,0.0,0.0,0.0,0.0,0.0,0.0,0.0,0.0,0.0,0.0,0.0,0.0,0.0,0.0,0.0,0.0,0.0,0.0,0.0,0.0,0.0,0.0,0.0,0.0,0.0,0.0,0.0,0.0,0.0,0.0,0.0,0.0,0.0,0.0,0.0,0.0,0.0,0.0,0.0,0.0,0.0,0.0,0.0,0.0,0.0,0.0,0.0,0.0,0.0,0.0,0.0,0.0,0.0,0.0,0.0,0.0,0.0,0.0,0.0,0.0,0.0,0.0,0.0,0.0,0.0,0.0,0.0,0.0,0.0,0.0,0.0,0.0,0.0,0.0,0.0,0.0,0.0,0.0,0.0,0.0,0.0,0.0,0.0,0.0,0.0,0.0,0.0,0.0,0.0,0.0,0.0,0.0,0.0,0.0,0.0,0.0,0.0,0.0,0.0,0.0,0.0,0.0,0.0,0.0,0.0,0.0,0.0,0.0,0.0,0.0,0.0,0.0,0.0,0.0,0.0,0.0,0.0,0.0,0.0,0.0,0.0,0.0,0.0,0.0,0.0,0.0,0.0,0.0,0.0,0.0,0.0,0.0,0.0,0.0,0.0,0.0,0.0,0.0,0.0,0.0,0.0,0.0,0.0,0.0,0.0,0.0,0.0,0.0,0.0,0.0,0.0,0.0,0.0,0.0,0.0,0.0,0.0,0.0,0.0,0.0,0.0,0.0,0.0,0.0,0.0,0.0,0.0,0.0,0.0,0.0,0.0,0.0,0.0,0.0,0.0,0.0,0.0,0.0,0.0,0.0,0.0,0.0,0.0,0.0,0.0,0.0,0.0,0.0,0.0,0.0,0.0,0.0,0.0,0.0,0.0,0.0,0.0,0.0,0.0,0.0,0.0,0.0,0.0,0.0,0.0,0.0,0.0,0.0,0.0,0.0,0.0,0.0,0.0,0.0,0.0,0.0,0.0,0.0,0.0,0.0,0.0,0.0,0.0,0.0,0.0,0.0,0.0,0.0,0.0,0.0,0.0,0.0,0.0,0.0,0.0,0.0,0.0,0.0,0.0,0.0,0.0,0.0,0.0,0.0,0.0,0.0,0.0,0.0,0.0,0.0,0.0,0.0,0.0,0.0,0.0,0.0,0.0,0.0,0.0,0.0,0.0,0.0,0.0,0.0,0.0,0.0,0.0,0.0,0.0,0.0,0.0,0.0,0.0,0.0,0.0,0.0,0.0,0.0,0.0,0.0,0.0,0.0,0.0,0.0,0.0,0.0,0.0,0.0,0.0,0.0,0.0,0.0,0.0,0.0,0.0,0.0,0.0,0.0,0.0,0.0,0.0,0.0,0.0,0.0,0.0,0.0,0.0,0.0,0.0,0.0,0.0,0.0,0.0,0.0,0.0,0.0,0.0,0.0,0.0,0.0,0.0,0.0,0.0,0.0,0.0,0.0,0.0,0.0,0.0,0.0,0.0,0.0,0.0,0.0,0.0,0.0,0.0,0.0,0.0,0.0,0.0,0.0,0.0,0.0,0.0,0.0,0.0,0.0,0.0,0.0,0.0,0.0,0.0,0.0,0.0,0.0,0.0,0.0,0.0,0.0,0.0,0.0,0.0,0.0,0.0,0.0,0.0,0.0,0.0,0.0,0.0,0.0,0.0,0.0,0.0,0.0,0.0,0.0,0.0,0.0,0.0,0.0,0.0,0.0,0.0,0.0,0.0,0.0,0.0,0.0,0.0,0.0,0.0,0.0,0.0,0.0,0.0,0.0,0.0,0.0,0.0,0.0,0.0,0.0,0.0,0.0,0.0,0.0,0.0,0.0,0.0,0.0,0.0,0.0,0.0,0.0,0.0,0.0,0.0,0.0,0.0,0.0,0.0,0.0,0.0,0.0,0.0,0.0,0.0,0.0,0.0,0.0,0.0,0.0,0.0,0.0,0.0,0.0,0.0,0.0,0.0,0.0,0.0,0.0,0.0,0.0,0.0,0.0,0.0,0.0,0.0,0.0,0.0,0.0,0.0,0.0,0.0,0.0,0.0,0.0,0.0,0.0,0.0,0.0,0.0,0.0,0.0,0.0,0.0,0.0,0.0,0.0,0.0,0.0,0.0,0.0,0.0,0.0,0.0,0.0,0.0,0.0,0.0,0.0,0.0,0.0,0.0,0.0,0.0,0.0,0.0,0.0,0.0,0.0,0.0,0.0,0.0,0.0,0.0,0.0,0.0,0.0,0.0,0.0,0.0,0.0,0.0,0.0,0.0,0.0,0.0,0.0,0.0,0.0,0.0,0.0,0.0,0.0,0.0,0.0,0.0,0.0,0.0,0.0,0.0,0.0,0.0,0.0,0.0,0.0,0.0,0.0,0.0,0.0,0.0,0.0,0.0,0.0,0.0,0.0,0.0,0.0,0.0,0.0,0.0,0.0,0.0,0.0,0.0,0.0,0.0,0.0,0.0,0.0,0.0,0.0,0.0,0.0,0.0,0.0,0.0,0.0,0.0,0.0,0.0,0.0,0.0,0.0,0.0,0.0,0.0,0.0,0.0,0.0,0.0,0.0,0.0,0.0,0.0,0.0,0.0,0.0,0.0,0.0,0.0,0.0,0.0,0.0,0.0,0.0,0.0,0.0,0.0,0.0,0.0,0.0,0.0,0.0,0.0,0.0,0.0,0.0,0.0,0.0,0.0,0.0,0.0,0.0,0.0,0.0,0.0,0.0,0.0,0.0,0.0,0.0,0.0,0.0,0.0,0.0,0.0,0.0,0.0,0.0,0.0,0.0,0.0,0.0,0.0,0.0,0.0,0.0,0.0,0.0,0.0,0.0,0.0,0.0,0.0,0.0,0.0,0.0,0.0,0.0,0.0,0.0,0.0,0.0,0.0,0.0,0.0,0.0,0.0,0.0,0.0,0.0,0.0,0.0,0.0,0.0,0.0,0.0,0.0,0.0,0.0,0.0,0.0,0.0,0.0,0.0,0.0,0.0,0.0,0.0,0.0,0.0,0.0,0.0,0.0,0.0,0.0,0.0,0.0,0.0,0.0,0.0,0.0,0.0,0.0,0.0,0.0,0.0,0.0,0.0,0.0,0.0,0.0,0.0,0.0,0.0,0.0,0.0,0.0,0.0,0.0,0.0,0.0,0.0,0.0,0.0,0.0,0.0,0.0,0.0,0.0,0.0,0.0,0.0,0.0,0.0,0.0,0.0,0.0,0.0,0.0,0.0,0.0,0.0,0.0,0.0,0.0,0.0,0.0,0.0,0.0,0.0,0.0,0.0,0.0,0.0]}],[{"header":{"parameterUnit":"kt","parameterCategory":2,"dx":1,"dy":1,"la1":29.587661999999998,"la2":31.0,"lo1":-88.76705300000003,"lo2":-86.6583820000003,"nx":115,"ny":88,"refTime":"2022-10-22T12:00:00:Z","depth":0,"parameterNumber":2,"parameterNumberName":"V-component_of_WINDS"},"data":[9.6395,9.6395,9.6395,9.703,9.8152,9.9226,10.03,10.1374,10.2398,10.2753,10.2753,10.2753,10.2753,10.2753,10.2753,10.2887,10.3238,10.5518,10.8137,11.0873,11.3159,11.606,11.8425,11.9476,12.0285,12.0973,12.1486,12.2052,12.2615,12.2728,12.2728,12.2728,12.2728,12.2728,12.2728,12.2728,12.2728,12.2553,12.1685,12.058,11.9474,11.8369,11.7206,11.5984,11.4879,11.4879,11.4879,11.4879,11.4879,11.4879,11.4879,11.4879,11.4879,11.4879,11.4879,11.4879,11.4879,11.5194,11.5778,11.7515,11.8299,11.8872,11.9602,12.0485,12.0251,11.9128,11.8999,11.8806,11.8822,11.9064,11.9304,11.9399,11.9479,11.9874,12.0422,12.0732,12.0963,12.1105,12.1182,12.1324,12.1258,12.1258,12.1127,12.0075,11.8694,11.7247,11.5866,11.442,11.2841,11.2644,11.2513,11.2907,11.3367,11.3039,11.2973,11.3236,11.2513,11.1395,11.0014,10.7646,10.5674,10.4359,10.4095,10.4419,10.4675,10.5366,10.6581,10.826,10.9247,11.0415,11.0968,11.1263,11.1601,11.1885,11.2118,9.6395,9.6395,9.6395,9.6981,9.8103,9.9226,10.0251,10.1325,10.2398,10.2753,10.2753,10.2753,10.2753,10.2753,10.2753,10.2753,10.3638,10.5779,10.8265,11.0873,11.365,11.63,11.8073,11.9067,11.9476,12.017,12.1087,12.1939,12.2557,12.2383,12.2383,12.2669,12.2728,12.2728,12.2728,12.2728,12.2728,12.2611,12.2092,12.0929,11.9707,11.8718,11.7148,11.581,11.4879,11.4879,11.4879,11.4879,11.4879,11.4879,11.4879,11.4879,11.4879,11.4879,11.4879,11.4879,11.4879,11.4821,11.5098,11.6317,11.6991,11.7299,11.7852,11.8553,11.9041,11.887,11.887,11.8806,11.8806,11.8903,11.916,11.932,11.932,11.9558,12.011,12.0655,12.0732,12.0809,12.1105,12.1324,12.1258,12.1258,12.0732,11.9878,11.8562,11.705,11.5603,11.4157,11.3104,11.2907,11.3039,11.3499,11.4222,11.4485,11.442,11.3959,11.2973,11.1658,10.9553,10.7055,10.5082,10.4424,10.403,10.4161,10.4929,10.5917,10.7104,10.8247,10.9567,11.0869,11.1165,11.1312,11.1601,11.1885,11.2165,9.6395,9.6395,9.6395,9.6688,9.7371,9.8982,9.9958,10.0641,10.2154,10.2753,10.2753,10.2753,10.2753,10.2753,10.2753,10.2753,10.3238,10.5649,10.8393,11.0998,11.365,11.6419,11.7955,11.895,11.9127,11.9476,12.0629,12.1655,12.2329,12.215,12.1627,12.151,12.151,12.151,12.1627,12.2378,12.2728,12.2728,12.2728,12.1161,11.9067,11.8544,11.7439,11.5694,11.4879,11.4879,11.4879,11.4879,11.4879,11.4879,11.4879,11.4879,11.4879,11.4879,11.4879,11.4879,11.4763,11.4588,11.4867,11.5742,11.7247,11.7237,11.7595,11.8681,11.8982,11.8806,11.8806,11.8806,11.8806,11.8806,11.9064,11.9144,11.9144,11.916,11.9717,12.0032,12.011,12.0422,12.0809,12.1105,12.1258,12.1061,12.0009,11.9088,11.751,11.5998,11.442,11.2907,11.3104,11.317,11.3631,11.4222,11.5406,11.5866,11.5669,11.4814,11.3433,11.1197,10.9027,10.6989,10.5279,10.4556,10.4095,10.4419,10.4989,10.6341,10.7452,10.8469,10.9777,11.0918,11.1214,11.136,11.1648,11.1932,11.2118,9.6395,9.6395,9.6395,9.6395,9.6688,9.8787,9.9665,9.9909,10.1959,10.2753,10.2753,10.2753,10.2753,10.2753,10.2753,10.2753,10.3771,10.6511,10.8776,11.1176,11.48,11.7545,11.866,11.895,11.895,11.9243,12.0054,12.1201,12.1424,12.1006,12.0533,12.0754,12.0812,12.1278,12.1568,12.215,12.2728,12.2728,12.2553,12.1278,11.9184,11.8486,11.7613,11.5752,11.4879,11.4879,11.4879,11.4879,11.4879,11.4879,11.4879,11.4879,11.4879,11.4879,11.4879,11.4821,11.4472,11.4306,11.4656,11.5805,11.6745,11.6997,11.7872,11.8903,11.9256,11.8935,11.8806,11.8806,11.8806,11.8806,11.8806,11.8806,11.8887,11.8984,11.916,11.9224,11.9304,11.9874,12.0577,12.0886,12.1182,12.0469,11.9286,11.7971,11.6327,11.488,11.3433,11.2644,11.2973,11.4025,11.4551,11.5472,11.659,11.7247,11.6655,11.5735,11.3433,11.1197,10.8633,10.6989,10.5608,10.4819,10.4225,10.4546,10.5366,10.6811,10.8135,10.9016,10.9882,11.0819,11.1214,11.1312,11.1601,11.1885,11.2143,9.6395,9.6395,9.6395,9.6395,9.6737,9.8738,9.9665,9.9958,10.1862,10.2753,10.2753,10.2753,10.2753,10.2753,10.2753,10.2753,10.3987,10.7159,10.9666,11.0998,11.5163,11.7955,11.866,11.895,11.895,11.936,11.9939,12.0457,12.0229,11.9875,11.9905,12.0696,12.058,12.0987,12.1743,12.2383,12.2615,12.2728,12.2325,12.1394,11.9533,11.8486,11.7613,11.5403,11.4879,11.4879,11.4879,11.4879,11.4879,11.4879,11.4879,11.4879,11.4879,11.4879,11.4879,11.4705,11.3949,11.3914,11.4789,11.5427,11.6099,11.7131,11.834,11.8802,11.8999,11.8806,11.8806,11.8806,11.8806,11.8806,11.8806,11.8806,11.8806,11.8822,11.8984,11.9064,11.9144,11.9479,12.0045,12.0292,12.047,11.9868,11.8619,11.7181,11.5603,11.4617,11.3499,11.2644,11.3302,11.4946,11.5801,11.6721,11.8168,11.9351,11.8234,11.6064,11.3696,11.0934,10.8107,10.6331,10.5148,10.4621,10.4353,10.5116,10.5917,10.7452,10.8799,10.9812,11.0769,11.1165,11.1214,11.1312,11.1575,11.1791,11.2096,9.6395,9.6395,9.6395,9.6395,9.6786,9.8738,9.9665,9.9958,10.1276,10.235,10.2704,10.2753,10.2753,10.2753,10.2753,10.2887,10.3238,10.7029,10.9614,11.1248,11.4503,11.7189,11.866,11.895,11.895,11.9127,11.9592,12.0056,11.9657,11.9193,11.8984,11.9539,11.9591,12.0347,12.1394,12.2266,12.2669,12.2728,12.2266,12.0987,11.9765,11.8718,11.7148,11.5461,11.4937,11.4879,11.4879,11.4879,11.4879,11.4879,11.4879,11.4879,11.4879,11.4879,11.4879,11.4647,11.36,11.3678,11.4545,11.4805,11.5536,11.6514,11.785,11.8562,11.8806,11.8806,11.8806,11.8806,11.8806,11.8806,11.8806,11.8806,11.8806,11.8806,11.8887,11.8903,11.9144,11.932,11.9493,11.9758,11.9561,11.9039,11.7822,11.6385,11.5077,11.3959,11.2973,11.2578,11.3696,11.534,11.6458,11.7708,11.9483,12.0732,11.8694,11.6524,11.3894,11.1066,10.8107,10.5937,10.4622,10.4029,10.416,10.5116,10.6462,10.7853,10.9124,11.0345,11.1306,11.1165,11.1214,11.1382,11.1646,11.1862,11.2096,9.6395,9.6395,9.6395,9.6395,9.6639,9.8055,9.9128,9.9812,10.0837,10.191,10.2753,10.2753,10.2753,10.2753,10.2753,10.2753,10.4119,10.6301,10.8904,11.1746,11.5042,11.7071,11.8308,11.895,11.895,11.9127,11.9362,11.9597,11.9029,11.8389,11.8179,11.8842,11.9533,12.0347,12.1336,12.215,12.2553,12.2728,12.2728,12.1045,11.9533,11.8835,11.7148,11.5635,11.4937,11.4879,11.4879,11.4879,11.4879,11.4879,11.4879,11.4879,11.4879,11.4879,11.4879,11.4705,11.3516,11.3015,11.3892,11.4261,11.515,11.6801,11.8007,11.8725,11.8806,11.8806,11.8806,11.8806,11.8806,11.8806,11.8806,11.8806,11.8806,11.8806,11.8806,11.8887,11.8822,11.9144,11.9399,11.9508,11.9406,11.8766,11.7073,11.5647,11.442,11.317,11.2644,11.2907,11.3828,11.5537,11.6984,11.8497,12.0009,12.0535,11.8825,11.659,11.3894,11.1197,10.8238,10.5805,10.4885,10.4359,10.4096,10.4866,10.6462,10.791,10.9354,11.0662,11.189,11.1728,11.1588,11.1642,11.1646,11.1814,11.2096,9.6395,9.6395,9.6395,9.6395,9.6444,9.6639,9.7811,9.9665,10.0739,10.1862,10.2838,10.2753,10.2753,10.2753,10.2753,10.2753,10.3638,10.8137,10.9993,11.2048,11.594,11.7663,11.8833,11.895,11.895,11.9183,11.9076,11.8799,11.8174,11.7703,11.8012,11.8791,11.9714,12.0812,12.1568,12.215,12.2208,12.2092,12.1976,12.0638,11.9184,11.8602,11.709,11.5752,11.4879,11.4879,11.4879,11.4879,11.4879,11.4879,11.4879,11.4879,11.4879,11.4879,11.4879,11.4239,11.2436,11.3105,11.4099,11.353,11.4808,11.7677,11.8579,11.8725,11.8806,11.8806,11.8806,11.8806,11.8806,11.8806,11.8806,11.8806,11.8806,11.8806,11.8806,11.8806,11.8741,11.8903,11.9224,11.9255,11.9155,11.8326,11.6708,11.5122,11.3828,11.2907,11.2578,11.2973,11.4091,11.5866,11.7313,11.8891,11.968,12.0206,11.8694,11.6392,11.3828,11.146,10.8501,10.6397,10.5608,10.5016,10.4424,10.4677,10.6341,10.7921,10.9262,11.0681,11.2072,11.2503,11.2362,11.2277,11.1719,11.1909,11.2096,9.6395,9.6395,9.6395,9.6395,9.6395,9.6395,9.6786,9.7762,9.947,10.1276,10.2594,10.2753,10.2753,10.2753,10.2753,10.2753,10.3372,10.8265,11.0747,11.1622,11.6419,11.8425,11.895,11.895,11.895,11.8668,11.8448,11.8115,11.7947,11.7423,11.7682,11.8463,11.9836,12.0812,12.1103,12.1394,12.1394,12.1336,12.087,11.9882,11.9009,11.7904,11.6741,11.5461,11.4879,11.4879,11.4879,11.4879,11.4879,11.4879,11.4879,11.4879,11.4879,11.4763,11.4472,11.3832,11.2744,11.3264,11.3917,11.3435,11.4944,11.8171,11.8725,11.8806,11.8806,11.8806,11.8806,11.8806,11.8806,11.8806,11.8806,11.8806,11.8806,11.8806,11.8806,11.8806,11.8806,11.8806,11.8984,11.9064,11.8836,11.7846,11.6633,11.5041,11.3433,11.2907,11.2513,11.3433,11.442,11.5932,11.7379,11.8562,11.9417,11.8957,11.7576,11.5866,11.3894,11.1592,10.9422,10.7318,10.6397,10.5148,10.4556,10.429,10.616,10.7921,10.9208,11.0368,11.1431,11.2151,11.2503,11.2326,11.1956,11.1932,11.2189,9.6395,9.6395,9.6395,9.6395,9.6395,9.6395,9.6395,9.6737,9.8347,10.0349,10.2057,10.2789,10.2753,10.2753,10.2753,10.2887,10.3854,10.8137,11.0747,11.1497,11.6419,11.8308,11.895,11.895,11.895,11.8611,11.7824,11.7434,11.7547,11.6625,11.6834,11.8012,11.9255,11.9998,12.0056,12.0056,12.0405,12.0405,11.9882,11.9125,11.8776,11.7962,11.6741,11.5054,11.4879,11.4879,11.4879,11.4879,11.4879,11.4879,11.4879,11.4879,11.4879,11.4181,11.3832,11.3251,11.1782,11.2255,11.2429,11.3558,11.4534,11.6736,11.8253,11.8806,11.8806,11.8806,11.8806,11.8806,11.8806,11.8806,11.8806,11.8806,11.8806,11.8806,11.8806,11.8806,11.8806,11.8806,11.8806,11.8903,11.8209,11.7145,11.6155,11.4582,11.323,11.2578,11.2513,11.3302,11.4354,11.5801,11.705,11.8102,11.8562,11.7708,11.6787,11.5603,11.3828,11.1855,11.0014,10.8107,10.6594,10.5213,10.4687,10.4802,10.6341,10.7921,10.9485,11.089,11.1501,11.1728,11.1869,11.1875,11.1625,11.1695,11.181,9.6395,9.6395,9.6395,9.6395,9.6395,9.6395,9.6395,9.659,9.7664,9.9372,10.1422,10.2496,10.2753,10.2753,10.2753,10.2753,10.3987,10.7881,11.0622,11.1746,11.582,11.8308,11.8833,11.8894,11.8781,11.8611,11.7542,11.6584,11.6625,11.582,11.6593,11.7826,11.8493,11.8835,11.8835,11.8835,11.9416,12.0405,12.0172,11.93,11.8602,11.8078,11.6682,11.5345,11.4879,11.4879,11.4879,11.4879,11.4879,11.4879,11.4879,11.4705,11.4588,11.3658,11.296,11.2494,11.0517,10.957,10.9502,11.1691,11.3716,11.5913,11.8025,11.8725,11.8806,11.8806,11.8806,11.8806,11.8806,11.8806,11.8806,11.8806,11.8806,11.8806,11.8806,11.8806,11.8806,11.8806,11.8822,11.8984,11.7758,11.6495,11.5473,11.4443,11.3218,11.2705,11.2644,11.317,11.4222,11.5472,11.6524,11.7379,11.7708,11.6853,11.5932,11.5011,11.3894,11.225,11.0408,10.8567,10.6923,10.5675,10.5391,10.5677,10.6937,10.859,11.0101,11.1534,11.2152,11.2644,11.2292,11.1805,11.1413,11.1199,11.0861,9.6395,9.6395,9.6395,9.6395,9.6395,9.6395,9.6395,9.659,9.7518,9.9226,10.1325,10.235,10.2753,10.2753,10.2753,10.2753,10.3903,10.6381,10.8904,11.1622,11.4382,11.6952,11.8308,11.8781,11.8386,11.7426,11.6469,11.5508,11.5097,11.5024,11.5736,11.6618,11.7223,11.7962,11.8137,11.8078,11.802,11.8486,11.7962,11.6624,11.738,11.6741,11.5519,11.5228,11.4879,11.4879,11.4879,11.4879,11.4879,11.4879,11.4705,11.4356,11.3774,11.2914,11.2029,11.0749,10.9628,10.8871,10.8705,10.9898,11.24,11.5314,11.7531,11.8498,11.8806,11.8806,11.8806,11.8806,11.8806,11.8806,11.8806,11.8806,11.8806,11.8806,11.8806,11.8806,11.8806,11.8806,11.8903,11.8661,11.8145,11.7177,11.6144,11.4962,11.4011,11.3781,11.3409,11.3367,11.4288,11.5077,11.6064,11.6458,11.6787,11.5998,11.5011,11.4025,11.2973,11.1395,11.0014,10.8436,10.7192,10.625,10.5671,10.6402,10.7667,10.931,11.0559,11.1548,11.2464,11.3348,11.2954,11.2298,11.1696,11.0064,10.9795,9.6786,9.6395,9.6395,9.6395,9.6395,9.6395,9.6395,9.6542,9.7127,9.864,10.0739,10.2154,10.2753,10.2753,10.2753,10.2753,10.3238,10.5649,10.8393,11.0873,11.365,11.63,11.7793,11.8386,11.7821,11.6919,11.5282,11.4263,11.408,11.4114,11.4657,11.5081,11.5723,11.6576,11.6857,11.6508,11.6915,11.7322,11.7148,11.6392,11.6915,11.6275,11.5926,11.5112,11.4879,11.4879,11.4879,11.4879,11.4879,11.4763,11.4356,11.3774,11.3089,11.1855,11.0749,10.9528,10.8714,10.8074,10.7768,10.9174,11.1336,11.4559,11.7134,11.8806,11.8806,11.8806,11.8806,11.8806,11.8806,11.8806,11.8806,11.8806,11.8806,11.8806,11.8806,11.8806,11.8806,11.8806,11.8758,11.7791,11.7405,11.7226,11.625,11.5406,11.5137,11.4859,11.4058,11.3565,11.4157,11.488,11.5209,11.5465,11.5669,11.5077,11.3894,11.2973,11.2052,11.0737,10.9356,10.7975,10.6663,10.6051,10.6409,10.7376,10.8502,11.0409,11.1658,11.2012,11.2403,11.2996,11.2954,11.2396,11.08,10.9097,10.8258,9.7469,9.6639,9.659,9.659,9.659,9.6444,9.6395,9.6444,9.6444,9.7713,9.9714,10.1569,10.2496,10.2838,10.2753,10.2753,10.2887,10.5437,10.8009,11.0747,11.3351,11.5775,11.7456,11.7652,11.6919,11.6129,11.4662,11.3756,11.3685,11.332,11.3409,11.3394,11.4805,11.4948,11.517,11.5635,11.6217,11.6508,11.7148,11.709,11.6915,11.7031,11.6857,11.5286,11.4879,11.4879,11.4879,11.4879,11.4879,11.4879,11.389,11.2914,11.2262,11.0808,10.9644,10.8772,10.8016,10.7608,10.7807,10.9079,11.0875,11.3148,11.5828,11.8253,11.8725,11.8806,11.8806,11.8806,11.8806,11.8806,11.8806,11.8806,11.8806,11.8806,11.8806,11.8806,11.8806,11.8741,11.8162,11.7067,11.6502,11.6324,11.5526,11.5913,11.5842,11.6296,11.5631,11.5077,11.5406,11.4617,11.4676,11.4873,11.4946,11.4222,11.2973,11.1855,11.1,10.9817,10.8436,10.7186,10.6335,10.6764,10.6955,10.8217,11.0137,11.1815,11.3256,11.2866,11.2735,11.2975,11.2249,11.0748,10.9174,10.8226,10.7317,9.8347,9.8787,9.7957,9.7615,9.7518,9.6737,9.6444,9.6395,9.6395,9.7176,9.8543,9.986,10.1471,10.2545,10.2887,10.2753,10.2887,10.3505,10.6641,10.9614,11.1941,11.42,11.6434,11.7031,11.5959,11.421,11.3477,11.291,11.2671,11.2812,11.3394,11.3927,11.4458,11.4879,11.5112,11.5577,11.5694,11.5635,11.5984,11.5926,11.5635,11.5868,11.5577,11.517,11.4879,11.4879,11.4879,11.4879,11.4821,11.4588,11.3541,11.232,11.1447,10.9935,10.883,10.7957,10.7667,10.7318,10.7846,10.8888,11.0002,11.1794,11.4034,11.7301,11.8253,11.8806,11.8806,11.8806,11.8806,11.8806,11.8806,11.8806,11.8806,11.8806,11.8806,11.8806,11.8741,11.8484,11.7969,11.681,11.5972,11.5679,11.5461,11.6173,11.6752,11.7406,11.7391,11.691,11.5998,11.4814,11.488,11.5077,11.4814,11.3894,11.2644,11.1395,11.0145,10.8896,10.7515,10.6466,10.6314,10.6625,10.7823,10.9861,11.192,11.3224,11.3849,11.3529,11.3136,11.1918,11.0629,10.9197,10.8022,10.7639,10.6846,9.9812,10.0251,9.9177,9.8494,9.7957,9.7371,9.6834,9.6493,9.6444,9.703,9.8006,9.8738,10.0153,10.1959,10.274,10.2753,10.3154,10.4251,10.7029,11.0245,11.1778,11.372,11.6055,11.5847,11.5,11.3477,11.2743,11.2009,11.2056,11.2533,11.3229,11.3714,11.4458,11.4879,11.4996,11.5635,11.5403,11.517,11.4879,11.4879,11.5054,11.5403,11.5461,11.4937,11.4879,11.4879,11.4879,11.4879,11.4705,11.3832,11.2785,11.1506,11.0284,10.9063,10.8132,10.7318,10.7318,10.7318,10.7553,10.902,10.9873,11.1027,11.3504,11.6231,11.7301,11.8171,11.8806,11.8806,11.8806,11.8806,11.8806,11.8806,11.8806,11.8806,11.8806,11.8806,11.8677,11.8355,11.7582,11.6552,11.5522,11.4725,11.4246,11.4887,11.5538,11.6502,11.7073,11.7108,11.659,11.5866,11.5866,11.5537,11.442,11.3367,11.2052,11.0737,10.9356,10.7844,10.6397,10.6135,10.6145,10.742,10.921,11.1131,11.3143,11.4009,11.4162,11.3488,11.1799,11.0369,10.9008,10.7622,10.6233,10.594,10.5782,10.1374,10.1374,10.03,9.9226,9.8299,9.8006,9.7371,9.6493,9.6395,9.6981,9.7713,9.8055,9.9128,10.0739,10.1959,10.2691,10.3588,10.5306,10.8009,11.0714,11.2151,11.4186,11.6067,11.4323,11.3533,11.2799,11.1897,11.1445,11.1825,11.2584,11.3122,11.3608,11.4352,11.4879,11.4879,11.5112,11.4879,11.4937,11.4879,11.4879,11.5054,11.581,11.5694,11.517,11.4879,11.4763,11.4472,11.4414,11.389,11.2785,11.1447,11.0284,10.9237,10.8016,10.7434,10.7318,10.7318,10.7259,10.7553,10.8983,11.0002,11.0656,11.3593,11.54,11.6568,11.7613,11.8806,11.8806,11.8806,11.8806,11.8806,11.8806,11.8806,11.8806,11.8806,11.8806,11.8613,11.8097,11.6616,11.5522,11.3938,11.3329,11.3363,11.3805,11.4515,11.5867,11.7016,11.7362,11.751,11.7773,11.7839,11.5603,11.4157,11.2381,11.0869,10.9751,10.8304,10.6726,10.6005,10.5673,10.623,10.7339,10.9563,11.1794,11.4174,11.5409,11.4122,11.2362,11.0532,10.896,10.7481,10.6071,10.4655,10.4454,10.4462,10.1764,10.2447,10.1422,10.0349,9.9275,9.8396,9.742,9.6542,9.6444,9.6542,9.6834,9.7567,9.825,9.9128,10.0593,10.2057,10.3105,10.5729,10.8239,11.0523,11.2257,11.3758,11.4883,11.4097,11.2799,11.2122,11.1445,11.1664,11.21,11.2692,11.3394,11.3821,11.4458,11.4879,11.4937,11.5054,11.4879,11.4879,11.4879,11.4879,11.4937,11.5112,11.5112,11.4937,11.4879,11.4356,11.36,11.3425,11.2669,11.1447,11.0342,10.957,10.9063,10.8016,10.7318,10.7318,10.7318,10.7318,10.769,10.8924,11.0002,11.019,11.3681,11.5314,11.6315,11.7467,11.8806,11.8806,11.8806,11.8806,11.8806,11.8806,11.8806,11.8806,11.8806,11.8741,11.8419,11.7325,11.5844,11.4196,11.2489,11.2263,11.3016,11.3584,11.4402,11.5754,11.6902,11.7313,11.8036,11.8562,11.7708,11.5472,11.3499,11.1658,10.9685,10.8436,10.7252,10.6003,10.5609,10.5867,10.6693,10.8081,10.9447,11.1586,11.3719,11.4009,11.3016,11.1517,10.9264,10.7293,10.5932,10.4755,10.3833,10.3376,10.378,10.191,10.2789,10.2301,10.1422,10.0349,9.9275,9.8201,9.7225,9.6639,9.6395,9.659,9.6981,9.7469,9.8201,9.9372,10.03,10.2357,10.5603,10.8216,10.9588,11.1854,11.364,11.3985,11.2969,11.2009,11.1614,11.1389,11.1607,11.1934,11.2476,11.2965,11.3608,11.4304,11.4669,11.489,11.5403,11.581,11.6043,11.6508,11.6857,11.6857,11.6857,11.6392,11.5635,11.4763,11.3716,11.2902,11.2494,11.1389,11.0284,10.9528,10.8888,10.8306,10.7608,10.7318,10.7318,10.7318,10.7318,10.7553,10.8924,10.9908,11.047,11.3593,11.5571,11.6315,11.7531,11.8725,11.8806,11.8806,11.8806,11.8806,11.8806,11.8806,11.8806,11.8806,11.8806,11.8355,11.6745,11.5071,11.3474,11.2026,11.1615,11.2516,11.3406,11.4362,11.5442,11.6582,11.7379,11.8102,11.7839,11.7181,11.5209,11.3499,11.1,10.8107,10.7186,10.62,10.5675,10.5474,10.6447,10.7791,11.1064,11.2492,11.1779,11.1115,11.1534,11.0579,10.9264,10.7504,10.5674,10.5016,10.4357,10.3224,10.2837,10.3567,10.1813,10.2643,10.2789,10.2252,10.1227,10.0349,9.9177,9.7957,9.7078,9.659,9.6444,9.6444,9.6981,9.7615,9.7859,9.8494,10.0856,10.5544,10.8569,10.9345,11.1599,11.331,11.3307,11.2292,11.1558,11.1389,11.1389,11.1389,11.1607,11.2043,11.28,11.3287,11.3927,11.4458,11.5065,11.581,11.6217,11.6566,11.7729,11.8078,11.8078,11.802,11.7671,11.5519,11.4007,11.2843,11.2204,11.1157,11.011,10.9063,10.8888,10.8306,10.7608,10.7376,10.7318,10.7318,10.7318,10.7318,10.7358,10.8696,10.9495,11.0749,11.3148,11.5055,11.6231,11.7467,11.8579,11.8806,11.8806,11.8806,11.8806,11.8806,11.8806,11.8806,11.8741,11.8613,11.784,11.5972,11.3654,11.283,11.1552,11.0745,11.1718,11.2615,11.3831,11.5041,11.664,11.8102,11.8168,11.7444,11.6392,11.4814,11.3236,11.0014,10.6923,10.6397,10.6068,10.5807,10.6532,10.7579,10.9447,11.3356,11.3968,11.168,11.0526,11.0015,10.8335,10.6495,10.5533,10.5885,10.5086,10.4146,10.4282,10.4629,10.4826,10.1374,10.1569,10.2496,10.2252,10.1325,10.1081,9.9909,9.825,9.7811,9.7225,9.6542,9.6395,9.6493,9.6834,9.7567,9.8006,9.9895,10.4383,10.8049,10.9479,11.1903,11.2915,11.2856,11.2066,11.1389,11.1389,11.1389,11.1389,11.1716,11.2368,11.2907,11.3394,11.414,11.4669,11.4774,11.5228,11.5984,11.7031,11.8195,11.8427,11.7846,11.8427,11.7206,11.4996,11.3263,11.2204,11.0459,10.9644,10.8946,10.7667,10.7608,10.7492,10.7318,10.7318,10.7318,10.7318,10.7318,10.7318,10.7456,10.7788,10.8696,11.0096,11.2339,11.4122,11.5828,11.7531,11.8498,11.8806,11.8806,11.8806,11.8806,11.8806,11.8806,11.8741,11.8806,11.8226,11.681,11.4427,11.2946,11.2121,11.1241,11.0809,11.1375,11.2338,11.3423,11.4763,11.7091,11.8562,11.7971,11.7116,11.5537,11.3959,11.2052,10.9225,10.7318,10.6529,10.666,10.6927,10.8051,10.8846,10.9948,11.1897,11.2241,11.0592,10.9531,10.8797,10.755,10.5815,10.5463,10.6096,10.5861,10.5531,10.5834,10.6396,10.7279,10.0739,10.1325,10.1813,10.2057,10.2008,10.152,10.069,9.9665,9.8543,9.7713,9.7225,9.659,9.6395,9.6493,9.6932,9.7518,9.8621,10.0805,10.3674,10.7554,11.0956,11.2181,11.2066,11.1671,11.1389,11.1389,11.1389,11.1607,11.1991,11.2533,11.3072,11.3714,11.414,11.4563,11.4937,11.5635,11.6508,11.7671,11.8486,11.8893,11.8893,11.9474,11.8311,11.645,11.3949,11.1796,10.9353,10.8697,10.7899,10.7492,10.7318,10.7318,10.7318,10.7318,10.7318,10.7318,10.7318,10.7318,10.7651,10.8176,10.902,11.0002,11.288,11.4559,11.5976,11.7696,11.8579,11.8806,11.8806,11.8806,11.8806,11.8806,11.8806,11.8677,11.8097,11.7453,11.6423,11.4105,11.2173,11.1283,11.0918,11.1003,11.1755,11.2776,11.3928,11.5605,11.7935,11.7773,11.7247,11.5669,11.4222,11.2513,11.0671,10.9159,10.7515,10.712,10.7318,10.8177,10.9641,11.0901,11.0524,11.0424,11.0409,10.9215,10.7935,10.7386,10.6941,10.5744,10.4829,10.6167,10.7058,10.6941,10.7104,10.7833,10.8817,10.0397,10.0983,10.1227,10.1764,10.235,10.191,10.152,10.1081,9.9177,9.825,9.7859,9.7127,9.6834,9.6786,9.6932,9.7176,9.7987,9.8236,9.9585,10.4368,10.9119,11.117,11.1445,11.1445,11.1389,11.1389,11.1389,11.1607,11.2043,11.2425,11.3072,11.3821,11.414,11.4516,11.5112,11.6043,11.738,11.8311,11.9358,11.994,12.0172,12.0231,11.9533,11.7264,11.4181,11.1331,10.9121,10.7841,10.7318,10.7318,10.7318,10.7318,10.7318,10.7318,10.7318,10.7318,10.7318,10.7318,10.7553,10.8466,10.953,11.019,11.288,11.54,11.5742,11.7696,11.8643,11.8806,11.8806,11.8806,11.8806,11.8806,11.8548,11.8097,11.7325,11.6616,11.5779,11.359,11.1787,11.095,11.0639,11.0714,11.2198,11.3026,11.4831,11.6708,11.7138,11.6845,11.5603,11.3959,11.2315,11.054,10.9225,10.8633,10.7712,10.8107,10.8436,10.9096,11.1573,11.3208,11.1293,11.0592,10.9146,10.7778,10.6612,10.6237,10.6026,10.504,10.5674,10.6871,10.7927,10.8351,10.8845,10.9386,11.0069,10.0641,9.9958,10.0885,10.1374,10.1569,10.2301,10.2057,10.1178,10.0007,9.9031,9.8299,9.7957,9.7811,9.7859,9.7615,9.7811,9.8114,9.8932,10.1452,10.4898,10.8502,11.1279,11.1279,11.1389,11.1389,11.1389,11.1389,11.1498,11.1934,11.2584,11.3122,11.3608,11.4352,11.4774,11.5112,11.6043,11.6799,11.7613,11.9649,12.0114,11.93,11.9474,11.8544,11.581,11.2843,11.0284,10.8539,10.7434,10.7318,10.7318,10.7318,10.7318,10.7318,10.7318,10.7318,10.7318,10.7318,10.7318,10.7358,10.7749,10.8407,11.0096,11.2158,11.3858,11.5828,11.7613,11.8806,11.8806,11.8806,11.8806,11.8806,11.8806,11.8291,11.726,11.681,11.5972,11.4556,11.2173,11.0885,11.1787,11.0885,11.0595,11.1615,11.3286,11.5222,11.6642,11.6623,11.5793,11.4157,11.2513,11.0671,10.9093,10.8567,10.8041,10.8567,10.9093,10.9557,11.0287,11.2972,11.385,11.1975,10.987,10.8158,10.6846,10.619,10.5674,10.5463,10.6307,10.7152,10.7997,10.8349,10.9338,11.0186,10.9763,10.9339,10.1032,10.0593,10.0446,10.069,10.1325,10.1764,10.1666,10.1227,10.0788,10.03,9.986,9.9275,9.864,9.8006,9.8006,9.8375,9.9181,9.9858,10.2374,10.5826,10.839,11.0121,11.117,11.1389,11.1389,11.1389,11.1389,11.1716,11.2368,11.28,11.3443,11.4082,11.4669,11.4879,11.4821,11.5519,11.6043,11.6799,11.738,11.8137,11.7613,11.7497,11.6217,11.4937,11.2378,11.0633,10.9412,10.8016,10.7318,10.7318,10.7318,10.7318,10.7318,10.7318,10.7318,10.7318,10.7318,10.7259,10.7456,10.8311,10.921,11.0377,11.3059,11.4733,11.5913,11.7613,11.8806,11.8806,11.8806,11.8806,11.8806,11.8806,11.8097,11.6745,11.5844,11.4427,11.2173,11.1658,11.1465,11.095,11.0768,11.0843,11.3158,11.3805,11.5027,11.5923,11.6041,11.4347,11.271,11.1,10.9422,10.883,10.8304,10.883,10.9488,11.002,11.0485,11.1546,11.3508,11.4189,11.2239,10.9846,10.7661,10.5697,10.5533,10.5392,10.5815,10.6448,10.7363,10.8067,10.856,10.9031,10.8985,10.8751,10.8325,10.1129,10.0788,10.0007,9.9958,10.0397,10.0788,10.0837,10.0885,10.0837,10.069,10.0739,10.03,9.9519,9.8543,9.8445,9.8775,9.9379,9.9808,10.273,10.6402,10.7825,10.9788,11.106,11.1389,11.1389,11.1389,11.1389,11.1934,11.28,11.3015,11.3378,11.4204,11.4193,11.4181,11.4007,11.4181,11.4763,11.5054,11.4821,11.5403,11.5635,11.4879,11.4239,11.3774,11.1622,11.0342,10.9761,10.819,10.7318,10.7318,10.7318,10.7318,10.7318,10.7318,10.7318,10.7318,10.7259,10.7456,10.8176,10.921,11.019,11.0967,11.3858,11.5828,11.5913,11.7696,11.8579,11.8806,11.8806,11.8677,11.8291,11.8162,11.7453,11.623,11.4749,11.3204,11.1594,11.14,11.1594,11.0961,11.0649,11.138,11.2856,11.3686,11.4263,11.4746,11.4065,11.2381,11.1066,10.9619,10.9356,10.8699,10.9027,10.9751,11.0481,11.1018,11.169,11.2688,11.2968,11.3312,11.0648,10.8717,10.6633,10.4477,10.4336,10.4759,10.5463,10.6448,10.7082,10.7786,10.8115,10.8021,10.7857,10.7669,10.7194,10.069,9.9812,9.9665,9.9128,9.8543,9.9372,9.9763,9.9763,9.986,9.986,10.0105,10.069,10.0446,9.9795,9.9888,9.9662,9.8649,10.0234,10.2493,10.5203,10.8727,11.095,11.1389,11.1389,11.1389,11.1389,11.1332,11.1769,11.2305,11.2621,11.2869,11.2464,11.2811,11.2494,11.1971,11.2553,11.2669,11.232,11.3716,11.4065,11.3309,11.3018,11.2494,11.1273,10.9993,10.883,10.8016,10.7492,10.7318,10.7318,10.7318,10.7318,10.7318,10.7318,10.7318,10.7318,10.7259,10.8273,10.94,11.0096,11.0967,11.2639,11.4646,11.5828,11.6315,11.7779,11.8806,11.8806,11.8677,11.8162,11.7196,11.681,11.5972,11.4749,11.3268,11.256,11.2109,11.1143,11.1154,11.1605,11.1391,11.0968,11.1375,11.2737,11.2385,11.1882,11.1906,11.0869,10.9685,10.9356,10.9159,10.9619,11.0145,11.1012,11.2092,11.2498,11.2373,11.2698,11.1897,11.0258,10.7397,10.6646,10.5322,10.3984,10.335,10.3984,10.4829,10.6026,10.6941,10.6941,10.6847,10.6941,10.6752,10.6491,10.6082,10.1032,10.0544,9.9226,9.8347,9.8103,9.8396,9.864,9.8738,9.9324,9.9665,9.9909,10.0837,10.116,10.1229,10.1782,10.2728,10.4056,10.4644,10.5051,10.5825,10.9565,11.1279,11.1389,11.1389,11.1389,11.1276,11.0655,11.0692,11.16,11.1068,11.1066,11.1444,11.1636,11.1389,11.1157,11.1447,11.1564,11.1215,11.1913,11.2204,11.168,11.0982,11.0342,10.9761,10.8655,10.7783,10.7376,10.7318,10.7318,10.7318,10.7318,10.7318,10.7318,10.7318,10.7318,10.7553,10.837,10.921,11.0002,11.106,11.27,11.4384,11.54,11.6315,11.7467,11.8171,11.8806,11.8613,11.7969,11.726,11.6552,11.5908,11.4234,11.2044,11.1336,11.1465,11.2173,11.1851,11.1605,11.0928,11.0024,11.0126,11.0436,11.1137,10.957,11.026,11.0076,10.9159,10.8962,10.9093,10.9619,11.0211,11.1143,11.2288,11.3434,11.3374,11.3159,11.2018,11.0648,10.7674,10.5485,10.5041,10.4336,10.3069,10.2998,10.3702,10.3632,10.504,10.5885,10.5603,10.5251,10.5273,10.5224,10.5008,10.516,10.0885,10.0105,9.8591,9.7811,9.7518,9.7518,9.7518,9.7615,9.8689,9.9128,9.9372,10.03,10.055,10.0355,10.0881,10.2186,10.4516,10.6789,10.7294,10.6907,10.8995,11.0147,11.0147,11.0204,11.026,11.0091,10.9414,10.9552,11.0333,10.9856,10.9787,11.0256,11.04,11.0226,10.9761,10.9819,10.9819,10.9819,10.9819,10.9819,10.9761,10.9004,10.8697,10.8481,10.7783,10.7318,10.7318,10.7318,10.7318,10.7318,10.7318,10.7318,10.7318,10.7318,10.7318,10.7456,10.8504,10.9305,11.0002,11.1244,11.2516,11.3911,11.4795,11.5662,11.6337,11.6923,11.7325,11.726,11.6616,11.5715,11.5264,11.4363,11.2882,11.0435,11.0177,11.0692,11.14,11.1594,11.1165,11.0099,10.8531,10.8362,10.9266,10.9701,10.8721,10.9067,10.9215,10.9225,10.9159,10.9817,11.0408,11.114,11.2222,11.3366,11.3437,11.3137,11.2274,11.0908,10.8503,10.553,10.4432,10.3702,10.2858,10.2294,10.2928,10.321,10.2858,10.321,10.3843,10.3914,10.3843,10.3794,10.3673,10.3807,10.4091,10.0056,9.8299,9.8006,9.7371,9.6639,9.6542,9.6493,9.6688,9.7615,9.8006,9.8152,9.9128,9.8858,9.7364,9.7866,9.7312,9.9296,10.449,10.714,10.7353,10.7841,10.8003,10.8059,10.8116,10.8116,10.8059,10.7834,10.8305,10.9397,10.9214,10.9153,10.9253,10.9179,10.8813,10.7434,10.7667,10.755,10.7608,10.7725,10.755,10.7318,10.7492,10.7492,10.7434,10.7376,10.7318,10.7318,10.7318,10.7318,10.7318,10.7318,10.7318,10.7318,10.7143,10.7201,10.7143,10.7437,10.8289,10.9729,11.0203,11.0821,11.1801,11.2822,11.3393,11.3294,11.4088,11.4942,11.5007,11.462,11.4041,11.2946,11.2495,11.1722,11.0435,11.0177,11.0113,11.0241,11.0177,10.9662,10.8383,10.7305,10.648,10.6674,10.7829,10.8591,10.8269,10.9076,11.0145,11.0145,11.0474,11.1132,11.2272,11.289,11.3307,11.3205,11.2812,11.124,10.9547,10.6611,10.4266,10.328,10.2928,10.2154,10.2083,10.2646,10.2646,10.2294,10.2365,10.2787,10.2858,10.2551,10.2455,10.2968,10.3496,10.3539,10.0007,9.8055,9.7225,9.6688,9.6444,9.6395,9.6395,9.6444,9.6786,9.6932,9.6981,9.7274,9.8585,10.0015,10.0218,9.9966,9.9806,10.2522,10.5054,10.6488,10.7326,10.7721,10.7721,10.7721,10.7721,10.7664,10.7721,10.7738,10.8034,10.774,10.7609,10.7957,10.7899,10.7667,10.7376,10.7318,10.7318,10.7318,10.7318,10.7318,10.7318,10.7318,10.7318,10.7318,10.7318,10.7318,10.7318,10.7318,10.7318,10.7318,10.7318,10.7318,10.7201,10.6445,10.598,10.6154,10.7506,10.8762,10.9236,11.0379,11.1716,11.3086,11.2777,11.2814,11.3545,11.4114,11.4413,11.4234,11.3719,11.2946,11.2302,11.1465,11.0692,11.037,11.0177,10.9855,10.8954,10.876,10.8116,10.6957,10.6257,10.6494,10.6991,10.7592,10.7938,10.8027,10.9346,11.0343,11.0606,11.1202,11.2334,11.3434,11.2835,11.2768,11.4016,11.192,10.9487,10.799,10.5486,10.3562,10.2294,10.2224,10.2013,10.2013,10.2083,10.2083,10.2013,10.2013,10.2083,10.2154,10.2103,10.2386,10.2885,10.3419,10.4241,9.9275,9.7908,9.6834,9.6395,9.6395,9.6395,9.6395,9.6395,9.6395,9.6395,9.6346,9.6005,9.7455,10.0152,10.1033,10.1544,10.1775,10.2648,10.3772,10.5144,10.6028,10.6367,10.6423,10.6423,10.6367,10.6367,10.6367,10.649,10.666,10.6575,10.6825,10.7161,10.7318,10.7318,10.7318,10.7318,10.7318,10.7318,10.7318,10.7318,10.7318,10.7318,10.7318,10.7318,10.7318,10.7318,10.7318,10.7318,10.7318,10.7318,10.6794,10.6561,10.6445,10.5398,10.4642,10.4907,10.7348,10.863,10.8133,10.9516,11.1155,11.2461,11.1468,11.144,11.2624,11.2946,11.2946,11.2753,11.198,11.1594,11.1272,11.0306,10.9469,10.9404,10.8954,10.8245,10.7601,10.727,10.6691,10.5533,10.5219,10.5505,10.6276,10.7472,10.8269,10.8883,11.0207,11.1066,11.1329,11.1395,11.2015,11.2906,11.2303,11.2066,11.5093,11.1217,10.8103,10.6751,10.5251,10.3562,10.2646,10.2646,10.2083,10.2013,10.2013,10.2013,10.2013,10.2013,10.2013,10.2058,10.2456,10.2703,10.3307,10.4167,10.5061,9.7957,9.7762,9.6834,9.6395,9.6395,9.6395,9.6395,9.6395,9.6395,9.6472,9.6477,9.5546,9.5753,9.757,9.9699,10.1769,10.369,10.3848,10.4007,10.4166,10.4166,10.4109,10.3997,10.3997,10.4109,10.4438,10.4494,10.4834,10.573,10.6271,10.6825,10.7259,10.7318,10.7318,10.7318,10.7318,10.7318,10.7318,10.7318,10.7318,10.7318,10.7318,10.7318,10.7318,10.7318,10.7318,10.7259,10.7259,10.7241,10.7339,10.6018,10.5474,10.5549,10.4345,10.374,10.4033,10.6804,10.7889,10.6832,10.8028,10.9157,10.9542,10.9774,10.9809,11.0605,11.0628,11.0628,11.0306,11.0177,10.9855,10.9726,10.8696,10.7978,10.785,10.6829,10.6185,10.5927,10.579,10.5147,10.406,10.3738,10.4213,10.4823,10.7662,10.9516,11.012,11.1249,11.2123,11.1868,11.1078,11.1303,11.2027,11.2217,11.2264,11.2827,11.0348,10.8417,10.7591,10.6096,10.4266,10.3843,10.328,10.2506,10.2013,10.2013,10.2013,10.2013,10.2013,10.2013,10.2369,10.2689,10.3369,10.3979,10.4923,10.5794,9.7567,9.6834,9.6542,9.6395,9.6395,9.6395,9.6395,9.6395,9.6395,9.6901,9.7648,9.6665,9.7802,10.0335,10.0515,10.1819,10.3792,10.3997,10.3997,10.3997,10.3997,10.3997,10.3997,10.3997,10.4201,10.4404,10.4201,10.4765,10.6172,10.6767,10.7161,10.7318,10.7318,10.7318,10.7318,10.7318,10.7318,10.7318,10.7318,10.7318,10.7318,10.7318,10.7318,10.7318,10.7318,10.7318,10.7259,10.6387,10.6539,10.7752,10.5346,10.5053,10.7498,10.6264,10.5517,10.6008,10.7107,10.7601,10.713,10.8731,10.985,10.9995,11.0008,11.0109,11.0166,11.0177,11.0177,10.9984,10.831,10.7215,10.7151,10.6829,10.6498,10.6498,10.6313,10.5404,10.4575,10.4446,10.3937,10.2857,10.2797,10.3453,10.614,10.8912,11.0715,11.0269,11.0606,11.0949,11.0641,11.0506,11.0881,11.2964,11.1624,11.1033,11.144,10.9836,10.8833,10.8208,10.6519,10.4547,10.4266,10.3069,10.2083,10.2013,10.2013,10.2058,10.2147,10.2147,10.2147,10.2689,10.345,10.4164,10.4784,10.5496,10.6285,9.7371,9.6444,9.6395,9.6395,9.6395,9.6395,9.6395,9.652,9.742,9.8005,9.8296,9.8818,10.0335,10.2709,10.2255,10.2706,10.3894,10.3997,10.3997,10.3997,10.3997,10.4099,10.4303,10.4099,10.4404,10.4955,10.4303,10.4867,10.6329,10.6569,10.6808,10.7259,10.7318,10.7318,10.7318,10.7318,10.7318,10.7318,10.7318,10.7318,10.7318,10.7318,10.7318,10.7358,10.7513,10.7605,10.7524,10.71,10.722,10.8101,10.6087,10.5756,10.7859,10.6505,10.6156,10.7068,10.6753,10.6801,10.7376,10.9139,11.0177,11.0177,11.0177,11.0177,11.0177,10.9662,10.9082,10.8438,10.6884,10.5991,10.5919,10.5476,10.509,10.5026,10.4575,10.4002,10.3234,10.3175,10.3056,10.2623,10.2562,10.3412,10.5316,10.7289,10.8561,10.9443,10.9312,10.9908,11.0731,11.0302,11.0944,11.2179,11.1586,11.0768,11.1029,11.032,10.9616,10.8701,10.68,10.497,10.4477,10.3069,10.2083,10.2013,10.2013,10.2103,10.2325,10.25,10.2674,10.3205,10.3936,10.4642,10.5657,10.6256,10.6763,9.7274,9.6444,9.6395,9.6395,9.6395,9.6395,9.6646,9.7096,9.8945,9.9501,9.9344,10.1366,10.298,10.3905,10.3951,10.3894,10.3997,10.3997,10.3997,10.4099,10.3997,10.4303,10.4709,10.4201,10.4506,10.5357,10.4607,10.4911,10.6528,10.6015,10.6214,10.7161,10.7318,10.7318,10.7318,10.7318,10.7318,10.7318,10.7318,10.7201,10.7143,10.7281,10.732,10.7203,10.7727,10.8094,10.8094,10.839,10.8558,10.8608,10.7417,10.6849,10.7147,10.5808,10.5806,10.733,10.6025,10.5701,10.7235,10.8896,10.9662,10.9791,10.9662,10.9662,10.9597,10.8503,10.7077,10.6048,10.5669,10.5348,10.5541,10.4188,10.3357,10.3228,10.2262,10.1626,10.1771,10.1836,10.204,10.2445,10.212,10.2842,10.3567,10.4226,10.5278,10.8166,10.8618,10.9172,11.0732,11.0404,11.0363,11.121,11.1115,11.0877,11.0764,11.0884,10.9757,10.8631,10.7363,10.5885,10.4477,10.3139,10.2013,10.2013,10.2103,10.2413,10.2802,10.3153,10.3328,10.3931,10.4387,10.4889,10.594,10.6735,10.7211,9.659,9.6395,9.6395,9.6395,9.6395,9.6395,9.7593,9.924,9.8867,10.0217,10.2716,10.4363,10.4664,10.4053,10.3997,10.3997,10.3997,10.3997,10.4201,10.4506,10.4201,10.4201,10.4709,10.4201,10.4607,10.5357,10.4854,10.5414,10.6924,10.6569,10.6668,10.7161,10.7318,10.7318,10.7318,10.7318,10.7318,10.7318,10.7318,10.6794,10.5863,10.7126,10.7346,10.664,10.7738,10.8533,10.8472,10.7772,10.7887,10.8993,10.6758,10.659,10.9122,10.692,10.6163,10.7618,10.6509,10.5871,10.6242,10.6674,10.682,10.6893,10.6957,10.6957,10.6829,10.5605,10.4639,10.4253,10.3351,10.2772,10.2648,10.1691,10.0992,10.0862,9.9699,9.9185,9.9319,9.9123,9.9189,9.9841,10.0035,10.1016,10.3306,10.4672,10.61,10.8476,10.9479,10.9467,10.9861,10.9791,10.9999,11.0676,11.0125,10.9475,10.9335,10.856,10.7786,10.7363,10.5955,10.5016,10.4312,10.3114,10.2199,10.2192,10.2544,10.2901,10.3069,10.361,10.4274,10.4858,10.5202,10.573,10.665,10.7211,10.7545,9.537,9.4931,9.4931,9.4882,9.4882,9.4882,9.6552,9.9297,9.9244,10.0773,10.3191,10.399,10.3827,10.3263,10.3771,10.3997,10.3997,10.3997,10.4303,10.4709,10.4201,10.4506,10.5414,10.4765,10.5113,10.6214,10.5558,10.5915,10.7063,10.6825,10.6825,10.7259,10.7318,10.7318,10.7318,10.7318,10.7318,10.7259,10.5697,10.4801,10.5006,10.5936,10.6107,10.5531,10.7833,10.8763,10.7998,10.7596,10.7534,10.7823,10.6226,10.6234,10.8097,10.6659,10.6201,10.694,10.6305,10.5991,10.5991,10.5991,10.5991,10.5991,10.5991,10.489,10.2316,10.142,10.0969,10.0969,10.0969,10.0651,10.0145,10.0086,9.9964,9.9448,9.8734,9.8475,9.8669,9.8604,9.8733,9.918,9.9372,10.0026,10.173,10.299,10.4514,10.5844,10.7861,10.9184,11.0107,10.9703,10.9397,10.9822,10.8842,10.7997,10.7856,10.7152,10.6448,10.5744,10.4899,10.4333,10.3729,10.3207,10.276,10.304,10.3338,10.3736,10.4311,10.4678,10.5241,10.5844,10.6148,10.6448,10.6948,10.7416,10.767,9.3906,9.3125,9.3125,9.3367,9.3608,9.3608,9.5616,9.8786,9.9483,10.0775,10.2291,10.2122,10.2109,10.2165,10.3139,10.359,10.3692,10.3861,10.4279,10.4727,10.4392,10.5069,10.6428,10.5414,10.5715,10.7063,10.6214,10.6214,10.7161,10.6866,10.6924,10.7259,10.7318,10.7318,10.7259,10.7085,10.7106,10.7106,10.4287,10.3459,10.4894,10.5146,10.4922,10.4329,10.7408,10.8433,10.6668,10.7287,10.6949,10.5219,10.509,10.5026,10.4761,10.4439,10.4704,10.5026,10.4897,10.4768,10.4768,10.4697,10.4761,10.4761,10.4761,10.2766,9.8135,9.762,9.7687,9.7952,9.9174,9.9438,9.88,9.9514,9.9579,9.88,9.8214,9.8082,9.8396,9.8459,9.8644,9.9013,9.947,9.9782,10.0557,10.1772,10.3049,10.3356,10.6681,10.8764,11.0307,10.9687,10.8631,10.8349,10.7363,10.6519,10.6307,10.6284,10.5527,10.4423,10.4365,10.415,10.3603,10.344,10.3539,10.4276,10.4461,10.4821,10.547,10.5794,10.6148,10.6521,10.6939,10.7157,10.7211,10.7546,10.7836,9.2588,9.3125,9.3125,9.433,9.6184,9.6184,9.7578,9.9851,0.0,0.0,0.0,10.1557,10.13,10.13,10.1429,10.1837,10.2343,10.3314,10.4068,10.4617,10.5099,10.5715,10.6528,10.5815,10.5815,10.6627,10.647,10.6668,10.7259,10.7219,10.7161,10.7259,10.7318,10.7318,10.7201,10.6271,10.5873,10.6343,10.713,10.7172,10.6557,10.7833,10.6506,10.2,10.607,10.6572,10.3055,10.5003,10.4639,10.1033,10.0844,10.026,9.9166,9.7942,9.8329,10.0518,9.9681,9.9034,9.9101,9.9101,9.9101,9.9101,9.9101,9.8583,9.7749,9.762,9.8084,9.9238,9.9777,10.0492,10.1522,10.0288,9.9252,9.9054,9.6646,9.5335,9.5886,9.6302,9.696,9.7541,9.9266,10.1085,10.2126,10.4392,10.6629,10.7857,10.8958,11.0736,11.0764,10.8842,10.7223,10.7011,10.5815,10.4829,10.471,10.4365,10.3726,10.3776,10.4048,10.4449,10.4461,10.4498,10.4462,10.4819,10.513,10.5536,10.573,10.6359,10.6892,10.7049,10.729,10.7545,10.7595,10.7996,10.8346,8.9996,0.0,9.1545,9.2919,0.0,9.4279,9.6212,9.9564,9.7404,9.7501,9.918,9.9409,9.9904,10.0532,10.1217,10.16,10.1851,10.2521,10.3099,10.3641,10.4363,10.5094,10.5938,10.5983,10.6371,10.6924,10.6866,10.6964,10.7259,10.662,10.6329,10.6329,10.5631,10.4642,10.342,10.4002,10.5467,10.7822,10.5892,10.5108,10.5286,10.5501,10.43,10.1826,10.5107,0.0,0.0,0.0,0.0,0.0,0.0,0.0,0.0,0.0,0.0,9.2081,8.8389,8.638,8.6797,8.6867,8.8348,9.1889,9.2855,9.1945,8.8972,9.4005,9.6248,9.4047,9.7579,10.0009,10.023,9.9996,9.9427,9.8859,9.7407,9.6595,9.6878,9.7157,9.7489,9.7884,9.8912,10.0254,10.177,10.3727,10.5437,10.6825,10.8158,10.8842,10.8771,10.7645,10.6378,10.5603,10.4195,10.3346,10.3561,10.3314,10.3235,10.3782,10.4164,10.4606,10.5163,10.5264,10.543,10.5847,10.6196,10.6477,10.6724,10.7076,10.742,10.7546,10.7765,10.7882,10.8107,10.8306,10.85,8.8685,9.0786,9.0895,9.2081,9.3782,9.2014,9.3707,9.7738,9.5885,9.5472,9.6112,9.6996,9.8029,9.9004,10.0094,10.082,10.105,10.1279,10.1796,10.2408,10.3293,10.416,10.4953,10.5707,10.617,10.6561,10.6561,10.6561,10.6503,10.5514,10.4991,10.4991,10.3886,10.2502,10.1003,0.0,0.0,0.0,10.3957,10.29,10.4401,10.3508,10.2479,10.1648,10.4235,0.0,10.3833,10.3176,10.2377,10.1321,10.0116,0.0,0.0,0.0,0.0,0.0,0.0,0.0,0.0,0.0,0.0,0.0,8.4561,8.3755,8.0246,8.8245,9.1528,8.6601,9.3778,9.8399,9.7027,9.8708,9.9538,9.87,9.8496,9.8496,9.8548,9.8705,9.8809,9.8861,9.9341,10.0182,10.1608,10.2638,10.3934,10.5236,10.6016,10.6472,10.6026,10.5744,10.5322,10.4241,10.3172,10.2674,10.3246,10.353,10.4008,10.4534,10.4821,10.527,10.5993,10.6148,10.6418,10.6975,10.7211,10.729,10.7619,10.7694,10.7816,10.8041,10.8076,10.802,10.7711,10.7632,10.7776,9.1466,9.3572,9.3993,9.5091,9.5998,9.2315,9.1616,9.3117,9.1832,9.2812,9.5238,9.5321,9.5526,9.5757,9.5872,9.6744,9.8205,9.9249,10.0444,10.1699,10.2919,10.3558,10.3653,10.3828,10.3886,10.3886,10.3886,10.3886,10.3886,10.3711,10.3748,10.3653,10.3479,10.4033,10.5157,10.2509,10.0922,10.0868,10.3829,10.5885,10.695,10.6889,10.4881,10.0977,10.3424,10.2683,9.8217,10.0095,9.9845,9.6598,9.618,9.5236,9.3484,9.26,8.875,0.0,8.0113,0.0,0.0,0.0,0.0,0.0,0.0,0.0,0.0,8.0617,8.1458,7.8294,8.9067,9.5,9.2148,9.6054,9.8731,9.8579,9.8352,9.8284,9.86,9.9151,9.9673,10.0059,10.2136,10.3684,10.38,10.5252,10.6189,10.6142,10.6401,10.5672,10.3326,10.2878,10.2967,10.2435,10.2817,10.3475,10.4315,10.4923,10.5397,10.5847,10.6315,10.6892,10.7364,10.7416,10.7468,10.7545,10.7447,10.7521,10.7669,10.7761,10.7967,10.7852,10.8046,10.7499,10.569,10.5206,10.4905,9.0255,9.2408,9.2604,9.3345,9.4126,9.1431,9.045,9.0541,8.9584,8.9893,9.1218,9.1914,9.3073,9.4348,9.4493,9.5219,9.6615,9.7197,9.7778,9.836,9.964,10.057,10.1268,10.1966,10.2664,10.3362,10.3362,10.3013,10.2409,10.2516,10.2354,10.1645,10.1761,10.083,9.8911,10.1104,10.248,10.3063,10.4923,10.5718,10.5133,10.5279,10.3738,10.0969,10.2337,10.2267,10.0542,10.0894,10.0544,9.9478,9.8688,9.756,9.6002,8.6965,8.1568,0.0,0.0,0.0,0.0,0.0,0.0,0.0,0.0,0.0,0.0,0.0,7.3375,7.8262,8.8798,9.3061,8.761,9.0497,9.309,9.3922,9.0851,9.1544,9.8505,9.7185,9.7204,10.0882,10.2373,10.3069,10.3069,10.3702,10.4125,10.4125,10.4658,10.4279,10.2328,10.2676,10.3338,10.3338,10.3859,10.4316,10.4676,10.5298,10.6013,10.6726,10.712,10.7496,10.8011,10.7404,10.6732,10.6657,10.5964,10.5441,10.5441,10.5491,10.565,10.5799,10.6086,10.5836,10.4716,10.4485,10.4452,9.0109,9.1811,9.039,9.0041,9.0283,8.948,8.8866,8.8422,8.7845,8.7774,8.8123,8.9111,8.9926,9.0624,9.0042,9.0973,9.3009,9.3385,9.42,9.5422,9.6324,9.7429,9.8709,9.964,10.0904,10.209,10.1856,10.1511,10.1258,10.122,10.0023,9.7824,9.7886,9.5881,9.2168,9.7298,10.1237,10.3924,10.4143,10.36,10.2455,10.3097,10.277,10.1459,10.1843,10.2219,10.2469,10.1417,10.1266,10.2257,9.9461,9.7417,9.6366,8.1684,0.0,0.0,0.0,0.0,0.0,0.0,0.0,0.0,0.0,6.3075,5.3124,0.0,6.6548,0.0,8.5365,8.8956,8.4104,8.5455,0.0,0.0,8.2975,8.3575,9.3215,9.2619,9.3648,9.9557,10.1184,10.2076,10.2429,10.2429,10.25,10.2473,10.3378,10.3615,10.2388,10.3518,10.4425,10.4462,10.4854,10.5091,10.5158,10.5396,10.5782,10.633,10.6398,10.6654,10.7226,10.6213,10.5406,10.5331,10.4374,10.3733,10.3716,10.3709,10.3421,10.21,10.2317,10.2803,10.2803,10.2759,10.286,9.3502,9.4311,8.8711,8.5829,8.4942,8.595,8.6357,8.6357,8.6319,8.6959,8.8006,8.8181,8.568,8.1375,7.9049,0.0,8.5136,8.6378,8.946,9.3997,9.4114,9.487,9.6121,9.6238,9.7083,9.8569,9.7208,9.7982,10.057,9.9511,9.6135,9.0982,9.0214,8.9778,8.9388,8.9902,9.2857,9.8135,9.906,9.9704,10.0068,10.2191,10.3114,10.2518,10.2569,10.1777,10.0112,9.9874,10.0321,10.1241,9.4333,9.0009,8.921,0.0,0.0,0.0,0.0,0.0,0.0,0.0,0.0,0.0,0.0,0.0,0.0,0.0,0.0,0.0,7.4147,0.0,8.247,8.271,0.0,0.0,0.0,7.6438,7.8861,8.4086,8.9437,9.4301,0.0,0.0,10.3514,10.3658,10.3658,10.3658,10.4241,10.4569,10.4171,10.4316,10.4711,10.4636,10.5414,10.5988,10.5755,10.512,10.4451,10.3798,10.3415,10.3751,10.4134,10.3935,10.3776,10.3674,10.3753,10.3617,10.3768,10.3521,10.2324,9.6649,9.6855,9.7854,9.7936,9.8016,9.84,8.693,8.3569,7.9674,7.8641,7.9383,7.7711,7.87,8.1624,8.2526,8.2155,8.0936,8.1235,7.8267,7.316,7.2332,0.0,0.0,0.0,8.3241,8.8257,8.9104,9.1474,9.49,9.502,9.5782,9.7068,9.6583,9.6475,9.6934,9.7375,9.052,7.7194,0.0,0.0,7.7905,8.576,9.1386,9.4508,9.8296,10.0649,10.1411,10.1837,10.197,10.1804,10.2537,10.1998,10.0236,10.0578,9.8803,9.4445,9.029,8.5753,0.0,0.0,0.0,0.0,0.0,0.0,0.0,0.0,0.0,0.0,0.0,5.0984,4.4211,0.0,0.0,0.0,5.8203,6.141,6.5587,7.0751,0.0,0.0,0.0,0.0,0.0,0.0,0.0,8.4576,8.9862,9.4124,9.7639,10.0041,10.1435,10.155,10.1668,10.1684,10.1596,0.0,10.3197,10.3197,10.3843,10.4279,10.4229,10.1655,10.0552,10.2953,10.3501,10.3764,10.406,10.2439,10.1181,10.1038,10.0379,9.9491,9.8416,9.8445,9.7548,9.5135,9.5101,9.5439,9.5222,9.5298,9.5233,7.8476,0.0,0.0,0.0,0.0,7.0937,7.206,7.5104,7.6929,7.6004,7.3169,7.3967,0.0,0.0,0.0,0.0,0.0,0.0,7.8651,8.3894,8.6565,8.9931,9.3933,9.3933,9.4649,9.5948,9.5579,9.4506,9.2846,9.0887,8.1979,6.7033,0.0,0.0,0.0,0.0,8.7939,9.1084,9.7092,10.0716,10.1551,10.1262,10.1266,10.1465,10.2473,10.2196,10.0531,9.8648,9.4505,8.7751,8.1876,0.0,0.0,0.0,0.0,0.0,0.0,0.0,0.0,0.0,0.0,0.0,0.0,0.0,0.0,0.0,0.0,0.0,0.0,0.0,5.4919,6.2353,6.4958,0.0,0.0,0.0,0.0,0.0,0.0,0.0,0.0,0.0,8.8753,9.3347,9.7473,0.0,0.0,10.0262,10.0588,10.1405,10.1753,10.1233,10.0677,0.0,0.0,9.6818,9.5853,9.9421,10.0666,10.0802,9.9701,9.8677,9.7568,9.6045,9.6203,9.5369,9.2473,9.1293,9.0775,9.0234,9.0442,9.0764,9.1147,9.2482,9.3259,0.0,0.0,0.0,0.0,0.0,0.0,0.0,0.0,6.9153,6.8472,0.0,6.7267,0.0,0.0,0.0,0.0,0.0,7.0242,0.0,0.0,8.7688,9.1324,9.2366,9.2428,9.3416,9.497,9.3399,9.1428,8.8427,7.8206,0.0,0.0,0.0,0.0,0.0,0.0,8.0277,8.7238,9.4548,9.8542,9.9169,10.0492,10.1535,10.2013,10.2717,10.2146,10.024,9.2883,8.6783,8.2484,6.7535,0.0,0.0,0.0,0.0,0.0,0.0,0.0,0.0,0.0,0.0,0.0,0.0,0.0,0.0,0.0,0.0,0.0,0.0,0.0,0.0,6.0477,0.0,0.0,0.0,0.0,0.0,0.0,0.0,0.0,0.0,0.0,7.7097,8.3485,9.1436,9.8952,0.0,0.0,0.0,0.0,10.0482,9.8873,9.5951,9.3405,9.1965,9.1457,9.1286,9.1639,0.0,0.0,8.8293,9.1339,9.2759,8.8223,9.13,9.2381,8.538,8.2729,8.1327,7.9799,8.0777,8.2322,8.4028,8.7174,9.0874,0.0,0.0,0.0,0.0,0.0,0.0,0.0,0.0,0.0,6.1841,0.0,5.9944,0.0,0.0,0.0,0.0,0.0,0.0,0.0,0.0,7.7556,8.0782,8.2131,8.4787,8.4966,0.0,8.1436,7.7882,0.0,0.0,0.0,0.0,0.0,0.0,0.0,0.0,7.9608,8.4495,9.441,10.0108,10.0975,10.1962,10.2689,10.3205,10.345,9.9547,9.1141,8.6464,8.1121,0.0,0.0,0.0,0.0,0.0,0.0,0.0,0.0,0.0,0.0,0.0,0.0,0.0,0.0,0.0,0.0,0.0,0.0,0.0,0.0,0.0,0.0,0.0,5.4374,0.0,0.0,0.0,0.0,0.0,0.0,0.0,0.0,0.0,6.8575,7.5753,8.3514,9.0668,9.2519,9.4142,9.68,0.0,0.0,0.0,0.0,0.0,0.0,0.0,8.4733,8.7961,8.3566,7.9776,8.0328,8.2622,8.3879,8.208,0.0,0.0,7.3376,7.071,7.0046,6.9332,7.2109,7.4202,7.248,7.539,7.7717,0.0,0.0,0.0,0.0,0.0,0.0,0.0,0.0,0.0,5.5138,5.2494,0.0,0.0,0.0,0.0,0.0,0.0,0.0,0.0,0.0,0.0,0.0,7.566,7.8208,0.0,0.0,0.0,0.0,0.0,0.0,0.0,0.0,0.0,0.0,0.0,0.0,7.863,8.2772,9.4662,10.1347,10.2042,10.2843,10.353,10.3936,10.3694,9.8209,8.7063,0.0,0.0,0.0,0.0,0.0,0.0,0.0,0.0,0.0,0.0,0.0,0.0,0.0,0.0,0.0,0.0,0.0,0.0,0.0,0.0,0.0,0.0,0.0,0.0,0.0,4.9865,0.0,0.0,0.0,0.0,0.0,0.0,0.0,0.0,0.0,0.0,0.0,7.512,8.3509,8.6371,8.9194,9.3681,9.3711,9.2758,0.0,0.0,0.0,0.0,0.0,0.0,0.0,0.0,0.0,0.0,0.0,0.0,0.0,0.0,7.2507,6.3983,6.0512,5.9194,6.0138,0.0,0.0,0.0,0.0,0.0,0.0,0.0,0.0,0.0,0.0,0.0,0.0,0.0,0.0,0.0,0.0,0.0,0.0,4.5768,0.0,0.0,0.0,0.0,0.0,0.0,0.0,0.0,0.0,0.0,0.0,0.0,0.0,0.0,0.0,0.0,0.0,0.0,0.0,0.0,0.0,0.0,7.7132,8.1754,9.5125,10.2086,10.2146,10.3226,10.4013,10.4316,10.3367,9.8318,8.87,0.0,0.0,0.0,0.0,0.0,0.0,0.0,0.0,0.0,0.0,0.0,0.0,0.0,0.0,0.0,0.0,0.0,0.0,0.0,0.0,0.0,0.0,0.0,0.0,0.0,0.0,4.9917,5.132,5.102,0.0,0.0,0.0,0.0,0.0,0.0,0.0,0.0,0.0,0.0,8.2455,8.7014,9.3323,9.2969,9.0628,8.7744,8.4284,8.0923,7.7961,7.8221,7.7316,0.0,0.0,0.0,0.0,0.0,0.0,0.0,0.0,0.0,0.0,0.0,0.0,0.0,0.0,0.0,0.0,0.0,0.0,0.0,0.0,0.0,0.0,0.0,0.0,0.0,0.0,0.0,0.0,0.0,0.0,0.0,0.0,0.0,0.0,0.0,0.0,0.0,0.0,0.0,0.0,0.0,0.0,0.0,0.0,0.0,0.0,0.0,0.0,0.0,0.0,0.0,0.0,0.0,0.0,7.6736,8.3249,9.5674,10.2785,10.4351,10.4715,10.4732,10.4214,10.2828,9.7017,0.0,0.0,0.0,0.0,0.0,0.0,0.0,0.0,0.0,0.0,0.0,0.0,0.0,0.0,0.0,0.0,0.0,0.0,0.0,0.0,0.0,0.0,0.0,0.0,0.0,0.0,0.0,0.0,5.3106,5.3149,5.0947,0.0,0.0,0.0,0.0,0.0,0.0,0.0,0.0,0.0,0.0,8.1238,8.6635,8.6027,8.4945,8.5231,8.327,8.1712,8.1802,7.9254,7.6782,7.5365,0.0,0.0,0.0,0.0,0.0,0.0,0.0,0.0,0.0,0.0,0.0,0.0,0.0,0.0,0.0,0.0,0.0,0.0,0.0,0.0,0.0,0.0,0.0,0.0,0.0,0.0,0.0,0.0,0.0,0.0,0.0,0.0,0.0,0.0,0.0,0.0,0.0,0.0,0.0,0.0,0.0,0.0,0.0,0.0,0.0,0.0,0.0,0.0,0.0,0.0,0.0,0.0,0.0,7.5441,8.301,9.5217,10.2104,10.3422,10.3856,10.3812,10.3432,10.0703,9.3301,0.0,0.0,0.0,0.0,0.0,0.0,0.0,0.0,0.0,0.0,0.0,0.0,0.0,0.0,0.0,0.0,0.0,0.0,0.0,0.0,0.0,0.0,0.0,0.0,0.0,0.0,0.0,0.0,4.7912,4.9882,4.9431,0.0,0.0,0.0,0.0,0.0,0.0,0.0,0.0,0.0,0.0,7.6021,8.1536,8.1468,0.0,0.0,8.0261,7.9015,7.9916,7.788,7.4984,7.1207,6.6793,0.0,0.0,0.0,0.0,0.0,0.0,0.0,0.0,0.0,0.0,0.0,0.0,0.0,0.0,0.0,0.0,0.0,0.0,0.0,0.0,0.0,0.0,0.0,0.0,0.0,0.0,0.0,0.0,0.0,0.0,0.0,0.0,0.0,0.0,0.0,0.0,0.0,0.0,0.0,0.0,0.0,0.0,0.0,0.0,0.0,0.0,0.0,0.0,0.0,0.0,0.0,0.0,7.3633,8.1373,9.3946,10.0583,10.0608,10.145,10.1984,10.2026,9.7438,8.8238,0.0,0.0,0.0,0.0,0.0,0.0,0.0,0.0,0.0,0.0,0.0,0.0,0.0,0.0,0.0,0.0,0.0,0.0,0.0,0.0,0.0,0.0,0.0,0.0,0.0,0.0,0.0,0.0,0.0,0.0,0.0,0.0,0.0,0.0,0.0,0.0,0.0,0.0,0.0,0.0,0.0,7.1191,7.7536,7.824,7.8122,0.0,0.0,7.3249,7.3492,7.42,7.1776,6.2879,0.0,0.0,0.0,0.0,0.0,0.0,0.0,0.0,0.0,0.0,0.0,0.0,0.0,0.0,0.0,0.0,0.0,0.0,0.0,0.0,0.0,0.0,0.0,0.0,0.0,0.0,0.0,0.0,0.0,0.0,0.0,0.0,0.0,0.0,0.0,0.0,0.0,0.0,0.0,0.0,0.0,0.0,0.0,0.0,0.0,0.0,0.0,0.0,0.0,0.0,0.0,0.0,0.0,0.0,7.9511,9.335,10.083,10.1508,10.193,10.173,10.0743,9.743,0.0,0.0,0.0,0.0,0.0,0.0,0.0,0.0,0.0,0.0,0.0,0.0,0.0,0.0,0.0,0.0,0.0,0.0,0.0,0.0,0.0,0.0,0.0,0.0,0.0,0.0,0.0,2.9966,0.0,0.0,0.0,0.0,0.0,0.0,0.0,0.0,0.0,0.0,0.0,0.0,0.0,0.0,6.6826,7.0833,6.9309,6.861,0.0,0.0,6.7232,7.0913,6.8662,6.6003,0.0,0.0,0.0,0.0,0.0,0.0,0.0,0.0,0.0,0.0,0.0,0.0,0.0,0.0,0.0,0.0,0.0,0.0,0.0,0.0,0.0,0.0,0.0,0.0,0.0,0.0,0.0,0.0,0.0,0.0,0.0,0.0,0.0,0.0,0.0,0.0,0.0,0.0,0.0,0.0,0.0,0.0,0.0,0.0,0.0,0.0,0.0,0.0,0.0,0.0,0.0,0.0,0.0,0.0,6.7497,7.7872,8.8373,9.577,9.977,10.0127,9.9657,9.8262,9.4546,8.5916,0.0,0.0,0.0,0.0,0.0,0.0,0.0,0.0,0.0,0.0,0.0,0.0,0.0,0.0,0.0,0.0,0.0,0.0,0.0,0.0,0.0,0.0,0.0,0.0,0.0,0.0,0.0,0.0,0.0,0.0,0.0,0.0,0.0,0.0,0.0,0.0,0.0,0.0,0.0,0.0,0.0,0.0,6.5145,6.2523,0.0,0.0,0.0,6.0639,6.4769,0.0,0.0,0.0,0.0,0.0,0.0,0.0,0.0,0.0,0.0,0.0,0.0,0.0,0.0,0.0,0.0,0.0,0.0,0.0,0.0,0.0,0.0,0.0,0.0,0.0,0.0,0.0,0.0,0.0,0.0,0.0,0.0,0.0,0.0,0.0,0.0,0.0,0.0,0.0,0.0,0.0,0.0,0.0,0.0,0.0,0.0,0.0,0.0,0.0,0.0,0.0,0.0,0.0,0.0,0.0,0.0,0.0,7.5422,8.2528,8.9583,9.6378,9.7233,9.6702,9.5164,9.084,8.3055,0.0,0.0,0.0,0.0,0.0,0.0,0.0,0.0,0.0,0.0,0.0,0.0,0.0,0.0,0.0,0.0,0.0,0.0,0.0,0.0,0.0,0.0,0.0,0.0,0.0,0.0,0.0,0.0,0.0,0.0,0.0,0.0,0.0,0.0,0.0,0.0,0.0,0.0,0.0,0.0,0.0,5.9884,6.0032,5.7219,5.5618,0.0,0.0,5.3713,5.7412,5.7044,0.0,0.0,0.0,0.0,0.0,0.0,0.0,0.0,0.0,0.0,0.0,0.0,0.0,0.0,0.0,0.0,0.0,0.0,0.0,0.0,0.0,0.0,0.0,0.0,0.0,0.0,0.0,0.0,0.0,0.0,0.0,0.0,0.0,0.0,0.0,0.0,0.0,0.0,0.0,0.0,0.0,0.0,0.0,0.0,0.0,0.0,0.0,0.0,0.0,0.0,0.0,0.0,0.0,0.0,0.0,0.0,6.977,8.4915,9.31,9.3517,9.5105,9.5068,9.3434,9.0282,8.3172,0.0,0.0,0.0,0.0,0.0,0.0,0.0,0.0,0.0,0.0,0.0,0.0,0.0,0.0,0.0,0.0,0.0,0.0,0.0,0.0,0.0,0.0,0.0,0.0,0.0,0.0,0.0,0.0,0.0,0.0,0.0,0.0,0.0,0.0,0.0,0.0,0.0,0.0,0.0,0.0,0.0,5.3605,5.485,5.2207,0.0,0.0,0.0,0.0,5.3561,4.8887,0.0,0.0,0.0,0.0,0.0,0.0,0.0,0.0,0.0,0.0,0.0,0.0,0.0,0.0,0.0,0.0,0.0,0.0,0.0,0.0,0.0,0.0,0.0,0.0,0.0,0.0,0.0,0.0,0.0,0.0,0.0,0.0,0.0,0.0,0.0,0.0,0.0,0.0,0.0,0.0,0.0,0.0,0.0,0.0,0.0,0.0,0.0,0.0,0.0,0.0,0.0,0.0,0.0,0.0,0.0,0.0,7.3415,8.299,8.952,9.2808,9.3902,9.3652,9.2093,8.9128,8.2078,0.0,0.0,0.0,0.0,0.0,0.0,0.0,0.0,0.0,0.0,0.0,0.0,0.0,0.0,0.0,0.0,0.0,0.0,0.0,0.0,0.0,0.0,0.0,0.0,0.0,0.0,0.0,0.0,0.0,0.0,0.0,0.0,0.0,0.0,0.0,0.0,0.0,0.0,0.0,0.0,4.7894,5.048,5.2167,0.0,0.0,0.0,0.0,0.0,0.0,4.3654,4.0477,0.0,0.0,0.0,0.0,0.0,0.0,0.0,0.0,0.0,0.0,0.0,0.0,0.0,0.0,0.0,0.0,0.0,0.0,0.0,0.0,0.0,0.0,0.0,0.0,0.0,0.0,0.0,0.0,0.0,0.0,0.0,0.0,0.0,0.0,0.0,0.0,0.0,0.0,0.0,0.0,0.0,0.0,0.0,0.0,0.0,0.0,0.0,0.0,0.0,0.0,0.0,0.0,0.0,0.0,0.0,7.7062,7.9507,8.4433,9.2242,9.2821,9.2219,9.0789,8.7371,8.0177,6.8928,0.0,0.0,0.0,0.0,0.0,0.0,0.0,0.0,0.0,0.0,0.0,0.0,0.0,0.0,0.0,0.0,0.0,0.0,0.0,0.0,0.0,0.0,0.0,0.0,0.0,0.0,0.0,0.0,0.0,0.0,0.0,0.0,0.0,0.0,0.0,0.0,0.0,0.0,0.0,4.4991,4.804,0.0,0.0,0.0,0.0,0.0,0.0,0.0,0.0,3.8414,0.0,0.0,0.0,0.0,0.0,0.0,0.0,0.0,0.0,0.0,0.0,0.0,0.0,0.0,0.0,0.0,0.0,0.0,0.0,0.0,0.0,0.0,0.0,0.0,0.0,0.0,0.0,0.0,0.0,0.0,0.0,0.0,0.0,0.0,0.0,0.0,0.0,0.0,0.0,0.0,0.0,0.0,0.0,0.0,0.0,0.0,0.0,0.0,0.0,0.0,0.0,0.0,0.0,0.0,0.0,0.0,7.578,8.3677,8.9012,9.0716,9.0757,8.9171,8.4764,7.7024,6.5878,0.0,0.0,0.0,0.0,0.0,0.0,0.0,0.0,0.0,0.0,0.0,0.0,0.0,0.0,0.0,0.0,0.0,0.0,0.0,0.0,0.0,0.0,0.0,0.0,0.0,0.0,0.0,0.0,0.0,0.0,0.0,0.0,0.0,0.0,0.0,0.0,0.0,0.0,3.3025,3.8543,0.0,0.0,0.0,0.0,0.0,0.0,0.0,0.0,3.9138,0.0,0.0,0.0,0.0,0.0,0.0,0.0,0.0,0.0,0.0,0.0,0.0,0.0,0.0,0.0,0.0,0.0,0.0,0.0,0.0,0.0,0.0,0.0,0.0,0.0,0.0,0.0,0.0,0.0,0.0,0.0,0.0,0.0,0.0,0.0,0.0,0.0,0.0,0.0,0.0,0.0,0.0,0.0,0.0,0.0,0.0,0.0,0.0,0.0,0.0,0.0,0.0,0.0,0.0,0.0,0.0,0.0,0.0,8.1314,8.714,8.8256,8.8577,8.764,8.0565,7.2822,0.0,0.0,0.0,0.0,0.0,0.0,0.0,0.0,0.0,0.0,0.0,0.0,0.0,0.0,0.0,0.0,0.0,0.0,0.0,0.0,0.0,0.0,0.0,0.0,0.0,0.0,0.0,0.0,0.0,0.0,0.0,0.0,0.0,0.0,0.0,0.0,0.0,0.0,0.0,0.0,0.0,0.0,0.0,0.0,0.0,0.0,0.0,0.0,0.0,0.0,0.0,0.0,0.0,0.0,0.0,0.0,0.0,0.0,0.0,0.0,0.0,0.0,0.0,0.0,0.0,0.0,0.0,0.0,0.0,0.0,0.0,0.0,0.0,0.0,0.0,0.0,0.0,0.0,0.0,0.0,0.0,0.0,0.0,0.0,0.0,0.0,0.0,0.0,0.0,0.0,0.0,0.0,0.0,0.0,0.0,0.0,0.0,0.0,0.0,0.0,0.0,0.0,0.0,0.0,0.0,0.0,0.0,0.0,7.863,8.5568,8.6072,8.6305,8.6414,7.6781,6.8964,0.0,0.0,0.0,0.0,0.0,0.0,0.0,0.0,0.0,0.0,0.0,0.0,0.0,0.0,0.0,0.0,0.0,0.0,0.0,0.0,0.0,0.0,0.0,0.0,0.0,0.0,0.0,0.0,0.0,0.0,0.0,0.0,0.0,0.0,0.0,0.0,0.0,0.0,0.0,0.0,0.0,0.0,0.0,0.0,0.0,0.0,0.0,0.0,3.6577,0.0,0.0,0.0,0.0,0.0,0.0,0.0,0.0,0.0,0.0,0.0,0.0,0.0,0.0,0.0,0.0,0.0,0.0,0.0,0.0,0.0,0.0,0.0,0.0,0.0,0.0,0.0,0.0,0.0,0.0,0.0,0.0,0.0,0.0,0.0,0.0,0.0,0.0,0.0,0.0,0.0,0.0,0.0,0.0,0.0,0.0,0.0,0.0,0.0,0.0,0.0,0.0,0.0,0.0,0.0,0.0,0.0,0.0,0.0,7.6035,8.4191,8.4604,8.4723,8.4224,7.499,6.6823,0.0,0.0,0.0,0.0,0.0,0.0,0.0,0.0,0.0,0.0,0.0,0.0,0.0,0.0,0.0,0.0,0.0,0.0,0.0,0.0,0.0,0.0,0.0,0.0,0.0,0.0,0.0,0.0,0.0,0.0,0.0,0.0,0.0,0.0,0.0,0.0,0.0,0.0,0.0,0.0,0.0,0.0,0.0,0.0,0.0,0.0,0.0,0.0,0.0,0.0,0.0,0.0,0.0,0.0,0.0,0.0,0.0,0.0,0.0,0.0,0.0,0.0,0.0,0.0,0.0,0.0,0.0,0.0,0.0,0.0,0.0,0.0,0.0,0.0,0.0,0.0,0.0,0.0,0.0,0.0,0.0,0.0,0.0,0.0,0.0,0.0,0.0,0.0,0.0,0.0,0.0,0.0,0.0,0.0,0.0,0.0,0.0,0.0,0.0,0.0,0.0,0.0,0.0,0.0,0.0,0.0,0.0,0.0,7.0015,7.827,8.1468,8.164,7.8443,6.8946,6.1584,0.0,0.0,0.0,0.0,0.0,0.0,0.0,0.0,0.0,0.0,0.0,0.0,0.0,0.0,0.0,0.0,0.0,0.0,0.0,0.0,0.0,0.0,0.0,0.0,0.0,0.0,0.0,0.0,0.0,0.0,0.0,0.0,0.0,0.0,0.0,0.0,0.0,0.0,0.0,0.0,0.0,0.0,0.0,0.0,0.0,0.0,0.0,0.0,0.0,0.0,0.0,0.0,0.0,0.0,0.0,0.0,0.0,0.0,0.0,0.0,0.0,0.0,0.0,0.0,0.0,0.0,0.0,0.0,0.0,0.0,0.0,0.0,0.0,0.0,0.0,0.0,0.0,0.0,0.0,0.0,0.0,0.0,0.0,0.0,0.0,0.0,0.0,0.0,0.0,0.0,0.0,0.0,0.0,0.0,0.0,0.0,0.0,0.0,0.0,0.0,0.0,0.0,0.0,0.0,0.0,0.0,0.0,0.0,0.0,7.2246,7.7424,7.7433,7.1794,6.3055,5.6342,0.0,0.0,0.0,0.0,0.0,0.0,0.0,0.0,0.0,0.0,0.0,0.0,0.0,0.0,0.0,0.0,0.0,0.0,0.0,0.0,0.0,0.0,0.0,0.0,0.0,0.0,0.0,0.0,0.0,0.0,0.0,0.0,0.0,0.0,0.0,0.0,0.0,0.0,0.0,0.0,0.0,0.0,0.0,0.0,0.0,0.0,0.0,0.0,0.0,0.0,0.0,0.0,0.0,0.0,0.0,0.0,0.0,0.0,0.0,0.0,0.0,0.0,0.0,0.0,0.0,0.0,0.0,0.0,0.0,0.0,0.0,0.0,0.0,0.0,0.0,0.0,0.0,0.0,0.0,0.0,0.0,0.0,0.0,0.0,0.0,0.0,0.0,0.0,0.0,0.0,0.0,0.0,0.0,0.0,0.0,0.0,0.0,0.0,0.0,0.0,0.0,0.0,0.0,0.0,0.0,0.0,0.0,0.0,0.0,6.7427,7.2419,7.1891,6.5457,5.8461,5.1892,0.0,0.0,0.0,0.0,0.0,0.0,0.0,0.0,0.0,0.0,0.0,0.0,0.0,0.0,0.0,0.0,0.0,0.0,0.0,0.0,0.0,0.0,0.0,0.0,0.0,0.0,0.0,0.0,0.0,0.0,0.0,0.0,0.0,0.0,0.0,0.0,0.0,0.0,0.0,0.0,0.0,0.0,0.0,0.0,0.0,0.0,0.0,0.0,0.0,0.0,0.0,0.0,0.0,0.0,0.0,0.0,0.0,0.0,0.0,0.0,0.0,0.0,0.0,0.0,0.0,0.0,0.0,0.0,0.0,0.0,0.0,0.0,0.0,0.0,0.0,0.0,0.0,0.0,0.0,0.0,0.0,0.0,0.0,0.0,0.0,0.0,0.0,0.0,0.0,0.0,0.0,0.0,0.0,0.0,0.0,0.0,0.0,0.0,0.0,0.0,0.0,0.0,0.0,0.0,0.0,0.0,0.0,0.0,0.0,5.1949,5.8373,6.1923,6.1545,5.1974,4.7134,4.7569,0.0,0.0,0.0,0.0,0.0,0.0,0.0,0.0,0.0,0.0,0.0,0.0,0.0,0.0,0.0,0.0,0.0,0.0,0.0,0.0,0.0,0.0,0.0,0.0,0.0,0.0,0.0,0.0,0.0,0.0,0.0,0.0,0.0,0.0,0.0,0.0,0.0,0.0,0.0,0.0,0.0,0.0,0.0,0.0,0.0,0.0,0.0,0.0,0.0,0.0,0.0,0.0,0.0,0.0,0.0,0.0,0.0,0.0,0.0,0.0,0.0,0.0,0.0,0.0,0.0,0.0,0.0,0.0,0.0,0.0,0.0,0.0,0.0,0.0,0.0,0.0,0.0,0.0,0.0,0.0,0.0,0.0,0.0,0.0,0.0,0.0,0.0,0.0,0.0,0.0,0.0,0.0,0.0,0.0,0.0,0.0,0.0,0.0,0.0,0.0,0.0,0.0,0.0,0.0,0.0,0.0,0.0,0.0,4.4705,5.2175,5.6328,5.6233,4.8145,4.3613,0.0,0.0,0.0,0.0,0.0,0.0,0.0,0.0,0.0,0.0,0.0,0.0,0.0,0.0,0.0,0.0,0.0,0.0,0.0,0.0,0.0,0.0,0.0,0.0,0.0,0.0,0.0,0.0,0.0,0.0,0.0,0.0,0.0,0.0,0.0,0.0,0.0,0.0,0.0,0.0,0.0,0.0,0.0,0.0,0.0,0.0,0.0,0.0,0.0,0.0,0.0,0.0,0.0,0.0,0.0,0.0,0.0,0.0,0.0,0.0,0.0,0.0,0.0,0.0,0.0,0.0,0.0,0.0,0.0,0.0,0.0,0.0,0.0,0.0,0.0,0.0,0.0,0.0,0.0,0.0,0.0,0.0,0.0,0.0,0.0,0.0,0.0,0.0,0.0,0.0,0.0,0.0,0.0,0.0,0.0,0.0,0.0,0.0,0.0,0.0,0.0,0.0,0.0,0.0,0.0,0.0,0.0,0.0,3.6585,4.9009,5.5661,5.5937,4.998,4.7732,4.1529,0.0,0.0,0.0,0.0,0.0,0.0,0.0,0.0,0.0,0.0,0.0,0.0,0.0,0.0,0.0,0.0,0.0,0.0,0.0,0.0,0.0,0.0,0.0,0.0,0.0,0.0,0.0,0.0,0.0,0.0,0.0,0.0,0.0,0.0,0.0,0.0,0.0,0.0,0.0,0.0,0.0,0.0,0.0,0.0,0.0,0.0,0.0,0.0,0.0,0.0,0.0,0.0,0.0,0.0,0.0,0.0,0.0,0.0,0.0,0.0,0.0,0.0,0.0,0.0,0.0,0.0,0.0,0.0,0.0,0.0,0.0,0.0,0.0,0.0,0.0,0.0,0.0,0.0,0.0,0.0,0.0,0.0,0.0,0.0,0.0,0.0,0.0,0.0,0.0,0.0,0.0,0.0,0.0,0.0,0.0,0.0,0.0,0.0,0.0,0.0,0.0,0.0,0.0,0.0,0.0,0.0,0.0,0.0,0.0,3.6362,0.0,4.847,0.0,4.5765,4.1751,0.0,0.0,0.0,0.0,0.0,0.0,0.0,0.0,0.0,0.0,0.0,0.0,0.0,0.0,0.0,0.0,0.0,0.0,0.0,0.0,0.0,0.0,0.0,0.0,0.0,0.0,0.0,0.0,0.0,0.0,0.0,0.0,0.0,0.0,0.0,0.0,0.0,0.0,0.0,0.0,0.0,0.0,0.0,0.0,0.0,0.0,0.0,0.0,0.0,0.0,0.0,0.0,0.0,0.0,0.0,0.0,0.0,0.0,0.0,0.0,0.0,0.0,0.0,0.0,0.0,0.0,0.0,0.0,0.0,0.0,0.0,0.0,0.0,0.0,0.0,0.0,0.0,0.0,0.0,0.0,0.0,0.0,0.0,0.0,0.0,0.0,0.0,0.0,0.0,0.0,0.0,0.0,0.0,0.0,0.0,0.0,0.0,0.0,0.0,0.0,0.0,0.0,0.0,0.0,0.0,0.0,0.0,0.0,0.0,3.6888,3.9428,4.4916,5.305,4.6236,4.3118,0.0,0.0,0.0,0.0,0.0,0.0,0.0,0.0,0.0,0.0,0.0,0.0,0.0,0.0,0.0,0.0,0.0,0.0,0.0,0.0,0.0,0.0,0.0,0.0,0.0,0.0,0.0,0.0,0.0,0.0,0.0,0.0,0.0,0.0,0.0,0.0,0.0,0.0,0.0,0.0,0.0,0.0,0.0,0.0,0.0,0.0,0.0,0.0,0.0,0.0,0.0,0.0,0.0,0.0,0.0,0.0,0.0,0.0,0.0,0.0,0.0,0.0,0.0,0.0,0.0,0.0,0.0,0.0,0.0,0.0,0.0,0.0,0.0,0.0,0.0,0.0,0.0,0.0,0.0,0.0,0.0,0.0,0.0,0.0,0.0,0.0,0.0,0.0,0.0,0.0,0.0,0.0,0.0,0.0,0.0,0.0,0.0,0.0,0.0,0.0,0.0,0.0,0.0,0.0,0.0,0.0,0.0,0.0,0.0,4.8039,4.4327,4.5132,5.1351,4.8625,4.5327,0.0,0.0,0.0,0.0,0.0,0.0,0.0,0.0,0.0,0.0,0.0,0.0,0.0,0.0,0.0,0.0,0.0,0.0,0.0,0.0,0.0,0.0,0.0,0.0,0.0,0.0,0.0,0.0,0.0,0.0,0.0,0.0,0.0,0.0,0.0,0.0,0.0,0.0,0.0,0.0,0.0,0.0,0.0,0.0,0.0,0.0,0.0,0.0,0.0,0.0,0.0,0.0,0.0,0.0,0.0,0.0,0.0,0.0,0.0,0.0,0.0,0.0,0.0,0.0,0.0,0.0,0.0,0.0,0.0,0.0,0.0,0.0,0.0,0.0,0.0,0.0,0.0,0.0,0.0,0.0,0.0,0.0,0.0,0.0,0.0,0.0,0.0,0.0,0.0,0.0,0.0,0.0,0.0,0.0,0.0,0.0,0.0,0.0,0.0,0.0,0.0,0.0,0.0,0.0,0.0,0.0,0.0,0.0,0.0,0.0,3.9974,4.25,4.642,4.5765,4.3646,4.0246,0.0,0.0,0.0,0.0,0.0,0.0,0.0,0.0,0.0,0.0,0.0,0.0,0.0,0.0,0.0,0.0,0.0,0.0,0.0,0.0,0.0,0.0,0.0,0.0,0.0,0.0,0.0,0.0,0.0,0.0,0.0,0.0,0.0,0.0,0.0,0.0,0.0,0.0,0.0,0.0,0.0,0.0,0.0,0.0,0.0,0.0,0.0,0.0,0.0,0.0,0.0,0.0,0.0,0.0,0.0,0.0,0.0,0.0,0.0,0.0,0.0,0.0,0.0,0.0,0.0,0.0,0.0,0.0,0.0,0.0,0.0,0.0,0.0,0.0,0.0,0.0,0.0,0.0,0.0,0.0,0.0,0.0,0.0,0.0,0.0,0.0,0.0,0.0,0.0,0.0,0.0,0.0,0.0,0.0,0.0,0.0,0.0,0.0,0.0,0.0,0.0,0.0,0.0,0.0,0.0,0.0,0.0,0.0,0.0,0.0,4.1019,4.5606,4.5646,4.4554,0.0,0.0,0.0,0.0,0.0,0.0,0.0,0.0,0.0,0.0,0.0,0.0,0.0,0.0,0.0,0.0,0.0,0.0,0.0,0.0,0.0,0.0,0.0,0.0,0.0,0.0,0.0,0.0,0.0,0.0,0.0,0.0,0.0,0.0,0.0,0.0,0.0,0.0,0.0,0.0,0.0,0.0,0.0,0.0,0.0,0.0,0.0,0.0,0.0,0.0,0.0,0.0,0.0,0.0,0.0,0.0,0.0,0.0,0.0,0.0,0.0,0.0,0.0,0.0,0.0,0.0,0.0,0.0,0.0,0.0,0.0,0.0,0.0,0.0,0.0,0.0,0.0,0.0,0.0,0.0,0.0,0.0,0.0,0.0,0.0,0.0,0.0,0.0,0.0,0.0,0.0,0.0,0.0,0.0,0.0,0.0,0.0,0.0,0.0,0.0,0.0,0.0,0.0,0.0,0.0,0.0,0.0,0.0,0.0,0.0,0.0,4.0592,4.6356,4.689,0.0,4.5691,0.0,0.0,0.0,0.0,0.0,0.0,0.0,0.0,0.0,0.0,0.0,0.0,0.0,0.0,0.0,0.0,0.0,0.0,0.0,0.0,0.0,0.0,0.0,0.0,0.0,0.0,0.0,0.0,0.0,0.0,0.0,0.0,0.0,0.0,0.0,0.0,0.0,0.0,0.0,0.0,0.0,0.0,0.0,0.0,0.0,0.0,0.0,0.0,0.0,0.0,0.0,0.0,0.0,0.0,0.0,0.0,0.0,0.0,0.0,0.0,0.0,0.0,0.0,0.0,0.0,0.0,0.0,0.0,0.0,0.0,0.0,0.0,0.0,0.0,0.0,0.0,0.0,0.0,0.0,0.0,0.0,0.0,0.0,0.0,0.0,0.0,0.0,0.0,0.0,0.0,0.0,0.0,0.0,0.0,0.0,0.0,0.0,0.0,0.0,0.0,0.0,0.0,0.0,0.0,0.0,0.0,0.0,0.0,0.0,0.0,0.0,0.0,4.5086,4.4629,3.9462,0.0,0.0,0.0,0.0,0.0,0.0,0.0,0.0,0.0,0.0,0.0,0.0,0.0,0.0,0.0,0.0,0.0,0.0,0.0,0.0,0.0,0.0,0.0,0.0,0.0,0.0,0.0,0.0,0.0,0.0,0.0,0.0,0.0,0.0,0.0,0.0,0.0,0.0,0.0,0.0,0.0,0.0,0.0,0.0,0.0,0.0,0.0,0.0,0.0,0.0,0.0,0.0,0.0,0.0,0.0,0.0,0.0,0.0,0.0,0.0,0.0,0.0,0.0,0.0,0.0,0.0,0.0,0.0,0.0,0.0,0.0,0.0,0.0,0.0,0.0,0.0,0.0,0.0,0.0,0.0,0.0,0.0,0.0,0.0,0.0,0.0,0.0,0.0,0.0,0.0,0.0,0.0,0.0,0.0,0.0,0.0,0.0,0.0,0.0,0.0,0.0,0.0,0.0,0.0,0.0,0.0,0.0,0.0,0.0,0.0,4.233,4.0014,4.3045,4.2001,3.6185,0.0,0.0,0.0,0.0,0.0,0.0,0.0,0.0,0.0,0.0,0.0,0.0,0.0,0.0,0.0,0.0,0.0,0.0,0.0,0.0,0.0,0.0,0.0,0.0,0.0,0.0,0.0,0.0,0.0,0.0,0.0,0.0,0.0,0.0,0.0,0.0,0.0,0.0,0.0,0.0,0.0,0.0,0.0,0.0,0.0,0.0,0.0,0.0,0.0,0.0,0.0,0.0,0.0,0.0,0.0,0.0,0.0,0.0,0.0,0.0,0.0,0.0,0.0,0.0,0.0,0.0,0.0,0.0,0.0,0.0,0.0,0.0,0.0,0.0,0.0,0.0,0.0,0.0,0.0,0.0,0.0,0.0,0.0,0.0,0.0,0.0,0.0,0.0,0.0,0.0,0.0,0.0,0.0,0.0,0.0,0.0,0.0,0.0,0.0,0.0,0.0,0.0,0.0,0.0,0.0,0.0,0.0,0.0,0.0,0.0,0.0,0.0,0.0,0.0,3.5861,0.0,0.0,0.0,0.0,0.0,0.0,0.0,0.0,0.0,0.0,0.0,0.0,0.0,0.0,0.0,0.0,0.0,0.0,0.0,0.0,0.0,0.0,0.0,0.0,0.0,0.0,0.0,0.0,0.0,0.0,0.0,0.0,0.0,0.0,0.0,0.0,0.0,0.0,0.0,0.0,0.0,0.0,0.0,0.0,0.0,0.0,0.0,0.0,0.0,0.0,0.0,0.0,0.0,0.0,0.0,0.0,0.0,0.0,0.0,0.0,0.0,0.0,0.0,0.0,0.0,0.0,0.0,0.0,0.0,0.0,0.0,0.0,0.0,0.0,0.0,0.0,0.0,0.0,0.0,0.0,0.0,0.0,0.0,0.0,0.0,0.0,0.0,0.0,0.0,0.0,0.0,0.0,0.0,0.0,0.0,0.0,0.0,0.0,0.0,0.0,0.0,0.0,0.0,0.0,0.0,0.0,0.0,0.0,0.0,0.0,0.0,0.0,0.0,0.0,0.0,0.0,0.0,0.0,0.0,0.0,0.0,0.0,0.0,0.0,0.0,0.0,0.0,0.0,0.0,0.0,0.0,0.0,0.0,0.0,0.0,0.0,0.0,0.0,0.0,0.0,0.0,0.0,0.0,0.0,0.0,0.0,0.0,0.0,0.0,0.0,0.0,0.0,0.0,0.0,0.0,0.0,0.0,0.0,0.0,0.0,0.0,0.0,0.0,0.0,0.0,0.0,0.0,0.0,0.0,0.0,0.0,0.0,0.0,0.0,0.0,0.0,0.0,0.0,0.0,0.0,0.0,0.0,0.0,0.0,0.0,0.0,0.0,0.0,0.0,0.0,0.0,0.0,0.0,0.0,0.0,0.0,0.0,0.0,0.0,0.0,0.0,0.0,0.0,0.0,0.0,0.0,0.0,0.0,0.0,0.0,0.0,0.0,0.0,0.0,0.0,0.0,0.0,0.0,0.0,0.0,0.0,0.0,0.0,0.0,0.0,0.0,0.0,0.0,0.0,0.0,0.0,0.0,0.0,0.0,0.0,0.0,0.0,0.0,0.0,0.0,0.0,0.0,0.0,0.0,0.0,0.0,0.0,0.0,0.0,0.0,0.0,0.0,0.0,0.0,0.0,0.0,0.0,0.0,0.0,0.0,0.0,0.0,0.0,0.0,0.0,0.0,0.0,0.0,0.0,0.0,0.0,0.0,0.0,0.0,0.0,0.0,0.0,0.0,0.0,0.0,0.0,0.0,0.0,0.0,0.0,0.0,0.0,0.0,0.0,0.0,0.0,0.0,0.0,0.0,0.0,0.0,0.0,0.0,0.0,0.0,0.0,0.0,0.0,0.0,0.0,0.0,0.0,0.0,0.0,0.0,0.0,0.0,0.0,0.0,0.0,0.0,0.0,0.0,0.0,0.0,0.0,0.0,0.0,0.0,0.0,0.0,0.0,0.0,0.0,0.0,0.0,0.0,0.0,0.0,0.0,0.0,0.0,0.0,0.0,0.0,0.0,0.0,0.0,0.0,0.0,0.0,0.0,0.0,0.0,0.0,0.0,0.0,0.0,0.0,0.0,0.0,0.0,0.0,0.0,0.0,0.0,0.0,0.0,0.0,0.0,0.0,0.0,0.0,0.0,0.0,0.0,0.0,0.0,0.0,0.0,0.0,0.0,0.0,0.0,0.0,0.0,0.0,0.0,0.0,0.0,0.0,0.0,0.0,0.0,0.0,0.0,0.0,0.0,0.0,0.0,0.0,0.0,0.0,0.0,0.0,0.0,0.0,0.0,0.0,0.0,0.0,0.0,0.0,0.0,0.0,0.0,0.0,0.0,0.0,0.0,0.0,0.0,0.0,0.0,0.0,0.0,0.0,0.0,0.0,0.0,0.0,0.0,0.0,0.0,0.0,0.0,0.0,0.0,0.0,0.0,0.0,0.0,0.0,0.0,0.0,0.0,0.0,0.0,0.0,0.0,0.0,0.0,0.0,0.0,0.0,0.0,0.0,0.0,0.0,0.0,0.0,0.0,0.0,0.0,0.0,0.0,0.0,0.0,0.0,0.0,0.0,0.0,0.0,0.0,0.0,0.0,0.0,0.0,0.0,0.0,0.0,0.0,0.0,0.0,0.0,0.0,0.0,0.0,0.0,0.0,0.0,0.0,0.0,0.0,0.0,0.0,0.0,0.0,0.0,0.0,0.0,0.0,0.0,0.0,0.0,0.0,0.0,0.0,0.0,0.0,0.0,0.0,0.0,0.0,0.0,0.0,0.0,0.0,0.0,0.0,0.0,0.0,0.0,0.0,0.0,0.0,0.0,0.0,0.0,0.0,0.0,0.0,0.0,0.0,0.0,0.0,0.0,0.0,0.0,0.0,0.0,0.0,0.0,0.0,0.0,0.0,0.0,0.0,0.0,0.0,0.0,0.0,0.0,0.0,0.0,0.0,0.0,0.0,0.0,0.0,0.0,0.0,0.0,0.0,0.0,0.0,0.0,0.0,0.0,0.0,0.0,0.0,0.0,0.0,0.0,0.0,0.0,0.0,0.0,0.0,0.0,0.0,0.0,0.0,0.0,0.0,0.0,0.0,0.0,0.0,0.0,0.0,0.0,0.0,0.0,0.0,0.0,0.0,0.0,0.0,0.0,0.0,0.0,0.0,0.0,0.0,0.0,0.0,0.0,0.0,0.0,0.0,0.0,0.0,0.0,0.0,0.0,0.0,0.0,0.0,0.0,0.0,0.0,0.0,0.0,0.0,0.0,0.0,0.0,0.0,0.0,0.0,0.0,0.0,0.0,0.0,0.0,0.0,0.0,0.0,0.0,0.0,0.0,0.0,0.0,0.0,0.0,0.0,0.0,0.0,0.0,0.0,0.0,0.0,0.0,0.0,0.0,0.0,0.0,0.0,0.0,0.0,0.0,0.0,0.0,0.0,0.0,0.0,0.0,0.0,0.0,0.0,0.0,0.0,0.0,0.0,0.0,0.0,0.0,0.0,0.0,0.0,0.0,0.0,0.0,0.0,0.0,0.0,0.0,0.0,0.0,0.0,0.0,0.0,0.0,0.0,0.0,0.0,0.0,0.0,0.0,0.0,0.0,0.0,0.0,0.0,0.0,0.0,0.0,0.0,0.0,0.0,0.0,0.0,0.0,0.0,0.0,0.0,0.0,0.0,0.0,0.0,0.0,0.0,0.0,0.0,0.0,0.0,0.0,0.0,0.0,0.0,0.0,0.0,0.0,0.0,0.0,0.0,0.0,0.0,0.0,0.0,0.0,0.0,0.0,0.0,0.0,0.0,0.0,0.0,0.0,0.0,0.0,0.0,0.0,0.0,0.0,0.0,0.0,0.0,0.0,0.0,0.0,0.0,0.0,0.0,0.0,0.0,0.0,0.0,0.0,0.0,0.0,0.0,0.0,0.0,0.0,0.0,0.0,0.0,0.0,0.0,0.0,0.0,0.0,0.0,0.0,0.0,0.0,0.0,0.0,0.0,0.0,0.0,0.0,0.0,0.0,0.0,0.0,0.0,0.0,0.0,0.0,0.0,0.0,0.0,0.0,0.0,0.0,0.0,0.0,0.0,0.0,0.0,0.0,0.0,0.0,0.0,0.0,0.0,0.0,0.0,0.0,0.0,0.0,0.0,0.0,0.0,0.0,0.0,0.0,0.0,0.0,0.0,0.0,0.0,0.0,0.0,0.0,0.0,0.0,0.0,0.0,0.0,0.0,0.0,0.0,0.0,0.0,0.0,0.0,0.0,0.0,0.0,0.0,0.0,0.0,0.0,0.0,0.0,0.0,0.0,0.0,0.0,0.0,0.0,0.0,0.0,0.0,0.0,0.0,0.0,0.0,0.0,0.0,0.0,0.0,0.0,0.0,0.0,0.0,0.0,0.0,0.0,0.0,0.0,0.0,0.0,0.0,0.0,0.0,0.0,0.0,0.0,0.0,0.0,0.0,0.0,0.0,0.0,0.0,0.0,0.0,0.0,0.0,0.0,0.0,0.0,0.0,0.0,0.0,0.0,0.0,0.0,0.0,0.0,0.0,0.0,0.0,0.0,0.0,0.0,0.0,0.0,0.0,0.0,0.0,0.0,0.0,0.0,0.0,0.0,0.0,0.0,0.0,0.0,0.0,0.0,0.0,0.0,0.0,0.0,0.0,0.0,0.0,0.0,0.0,0.0,0.0,0.0,0.0,0.0,0.0,0.0,0.0,0.0,0.0,0.0,0.0,0.0,0.0,0.0,0.0,0.0,0.0,0.0,0.0,0.0,0.0,0.0,0.0,0.0,0.0,0.0,0.0,0.0,0.0,0.0,0.0,0.0,0.0,0.0,0.0,0.0,0.0,0.0,0.0,0.0,0.0,0.0,0.0,0.0,0.0]}]]]